[[{"header":{"parameterUnit":"m.s-1","parameterCategory":1,"la1":30.6,"la2":29.2853,"lo1":-89.7004,"lo2":-87.6739,"dy":0.0162,"dx":0.0183,"nx":112,"ny":82,"refTime":"2023-09-14T18:00:00:Z","depth":0,"parameterNumber":2,"parameterNumberName":"U-component_of_WINDS"},"data":[0.0,0.0,0.0,0.0,0.0,0.0,0.0,0.0,0.0,0.0,0.0,0.0,0.0,0.0,0.0,0.0,0.0,0.0,0.0,0.0,0.0,0.0,0.0,0.0,0.0,0.0,0.0,0.0,0.0,0.0,0.0,0.0,0.0,0.0,0.0,0.0,0.0,0.0,0.0,0.0,0.0,0.0,0.0,0.0,0.0,0.0,0.0,0.0,0.0,0.0,0.0,0.0,0.0,0.0,0.0,0.0,0.0,0.0,0.0,0.0,0.0,0.0,0.0,0.0,0.0,0.0,0.0,0.0,0.0,0.0,0.0,0.0,0.0,0.0,0.0,0.0,0.0,0.0,0.0,0.0,0.0,0.0,0.0,0.0,0.0,0.0,0.0,0.0,0.0,0.0,-3.302,-3.3608,-3.3201,-3.2839,-3.2653,-3.1781,-3.119,-3.1057,0.0,0.0,0.0,0.0,0.0,0.0,0.0,0.0,0.0,0.0,0.0,0.0,0.0,0.0,0.0,0.0,0.0,0.0,0.0,0.0,0.0,0.0,0.0,0.0,0.0,0.0,0.0,0.0,0.0,0.0,0.0,0.0,0.0,0.0,0.0,0.0,0.0,0.0,0.0,0.0,0.0,0.0,0.0,0.0,0.0,0.0,0.0,0.0,0.0,0.0,0.0,0.0,0.0,0.0,0.0,0.0,0.0,0.0,0.0,0.0,0.0,0.0,0.0,0.0,0.0,0.0,0.0,0.0,0.0,0.0,0.0,0.0,0.0,0.0,0.0,0.0,0.0,0.0,0.0,0.0,0.0,0.0,0.0,0.0,0.0,0.0,0.0,0.0,0.0,0.0,0.0,0.0,0.0,0.0,0.0,0.0,0.0,0.0,0.0,0.0,0.0,0.0,0.0,0.0,-3.3479,-3.3082,-3.2949,-3.2885,-3.2859,-3.2546,-3.2049,-3.1291,0.0,0.0,0.0,0.0,0.0,0.0,0.0,0.0,0.0,0.0,0.0,0.0,0.0,0.0,0.0,0.0,0.0,0.0,0.0,0.0,0.0,0.0,0.0,0.0,0.0,0.0,0.0,0.0,0.0,0.0,0.0,0.0,0.0,0.0,0.0,0.0,0.0,0.0,0.0,0.0,0.0,0.0,0.0,0.0,0.0,0.0,0.0,0.0,0.0,0.0,0.0,0.0,0.0,0.0,0.0,0.0,0.0,0.0,0.0,0.0,0.0,0.0,0.0,0.0,0.0,0.0,0.0,0.0,0.0,0.0,0.0,0.0,0.0,0.0,0.0,0.0,0.0,0.0,0.0,0.0,0.0,0.0,0.0,0.0,0.0,0.0,0.0,0.0,0.0,0.0,0.0,0.0,0.0,0.0,0.0,0.0,0.0,0.0,0.0,0.0,0.0,0.0,0.0,-3.4653,-3.4621,-3.4339,-3.4308,-3.4308,-3.4308,-3.3661,-3.3142,-3.2893,-3.0941,0.0,0.0,0.0,0.0,0.0,0.0,0.0,0.0,0.0,0.0,0.0,0.0,0.0,0.0,0.0,0.0,0.0,0.0,0.0,0.0,0.0,0.0,0.0,0.0,0.0,0.0,0.0,0.0,0.0,0.0,0.0,0.0,0.0,0.0,0.0,0.0,0.0,0.0,0.0,0.0,0.0,0.0,0.0,0.0,0.0,0.0,0.0,0.0,0.0,0.0,0.0,0.0,0.0,0.0,0.0,0.0,0.0,0.0,0.0,0.0,0.0,0.0,0.0,0.0,0.0,0.0,0.0,0.0,0.0,0.0,0.0,0.0,0.0,0.0,0.0,0.0,0.0,0.0,0.0,0.0,0.0,0.0,0.0,0.0,0.0,0.0,0.0,0.0,0.0,0.0,0.0,0.0,0.0,0.0,0.0,0.0,0.0,0.0,0.0,0.0,0.0,0.0,-3.55,-3.55,-3.55,-3.55,-3.55,-3.55,-3.4695,-3.4201,-3.4199,-3.2665,0.0,0.0,0.0,0.0,0.0,0.0,0.0,0.0,0.0,0.0,0.0,0.0,0.0,0.0,0.0,0.0,0.0,0.0,0.0,0.0,0.0,0.0,0.0,0.0,0.0,0.0,0.0,0.0,0.0,0.0,0.0,0.0,0.0,0.0,0.0,0.0,0.0,0.0,0.0,0.0,0.0,0.0,0.0,0.0,0.0,0.0,0.0,0.0,0.0,0.0,0.0,0.0,0.0,0.0,0.0,0.0,0.0,0.0,0.0,0.0,0.0,0.0,0.0,0.0,0.0,0.0,0.0,0.0,0.0,0.0,0.0,0.0,0.0,0.0,0.0,0.0,0.0,0.0,0.0,0.0,0.0,0.0,0.0,0.0,0.0,0.0,0.0,0.0,0.0,0.0,0.0,0.0,0.0,0.0,0.0,0.0,0.0,0.0,0.0,0.0,0.0,0.0,-3.55,-3.55,-3.55,-3.55,-3.55,-3.55,-3.5435,-3.5032,-3.4244,-3.407,0.0,0.0,0.0,0.0,0.0,0.0,0.0,0.0,0.0,0.0,0.0,0.0,0.0,0.0,0.0,0.0,0.0,0.0,0.0,0.0,0.0,0.0,0.0,0.0,0.0,0.0,0.0,0.0,0.0,0.0,0.0,0.0,0.0,0.0,0.0,0.0,0.0,0.0,0.0,0.0,0.0,0.0,0.0,0.0,0.0,0.0,0.0,0.0,0.0,0.0,0.0,0.0,0.0,0.0,0.0,0.0,0.0,0.0,0.0,0.0,0.0,0.0,0.0,0.0,0.0,0.0,0.0,0.0,0.0,0.0,0.0,0.0,0.0,0.0,0.0,0.0,0.0,0.0,0.0,0.0,0.0,0.0,0.0,0.0,0.0,0.0,0.0,0.0,0.0,0.0,0.0,0.0,0.0,0.0,0.0,0.0,0.0,0.0,0.0,0.0,0.0,0.0,-3.5361,-3.5312,0.0,-3.55,-3.55,-3.55,-3.55,-3.5365,-3.5026,0.0,0.0,0.0,0.0,0.0,0.0,0.0,0.0,0.0,0.0,0.0,0.0,0.0,0.0,0.0,0.0,0.0,0.0,0.0,0.0,0.0,0.0,0.0,0.0,0.0,0.0,0.0,0.0,0.0,0.0,0.0,0.0,0.0,0.0,0.0,0.0,0.0,0.0,0.0,0.0,0.0,0.0,0.0,0.0,0.0,0.0,0.0,0.0,0.0,0.0,0.0,0.0,0.0,0.0,0.0,0.0,0.0,0.0,0.0,0.0,0.0,0.0,0.0,0.0,0.0,0.0,0.0,0.0,0.0,0.0,0.0,0.0,0.0,0.0,0.0,0.0,0.0,0.0,0.0,0.0,0.0,0.0,0.0,0.0,0.0,0.0,0.0,0.0,0.0,0.0,0.0,0.0,0.0,0.0,0.0,0.0,0.0,0.0,0.0,0.0,0.0,0.0,-3.5432,-3.5273,-3.5207,0.0,-3.55,-3.55,-3.55,-3.5424,-3.5369,-3.5369,0.0,0.0,0.0,0.0,0.0,0.0,0.0,0.0,0.0,0.0,0.0,0.0,0.0,0.0,0.0,0.0,0.0,0.0,0.0,0.0,0.0,0.0,0.0,0.0,0.0,0.0,0.0,0.0,0.0,0.0,0.0,0.0,0.0,0.0,0.0,0.0,0.0,0.0,0.0,0.0,0.0,0.0,0.0,0.0,0.0,0.0,0.0,0.0,0.0,0.0,0.0,0.0,0.0,0.0,0.0,0.0,0.0,0.0,0.0,0.0,0.0,0.0,0.0,0.0,0.0,0.0,0.0,0.0,0.0,0.0,0.0,0.0,0.0,0.0,0.0,0.0,0.0,0.0,0.0,0.0,0.0,0.0,0.0,0.0,0.0,0.0,0.0,0.0,0.0,0.0,0.0,0.0,0.0,0.0,0.0,0.0,0.0,0.0,0.0,0.0,0.0,0.0,-3.5432,-3.5266,-3.5198,-3.546,-3.55,-3.55,-3.55,-3.5246,-3.5105,0.0,0.0,0.0,0.0,0.0,0.0,0.0,0.0,0.0,0.0,0.0,0.0,0.0,0.0,0.0,0.0,0.0,0.0,0.0,0.0,0.0,0.0,0.0,0.0,0.0,0.0,0.0,0.0,0.0,0.0,0.0,0.0,0.0,0.0,0.0,0.0,0.0,0.0,0.0,0.0,0.0,0.0,0.0,0.0,0.0,0.0,0.0,0.0,0.0,0.0,0.0,0.0,0.0,0.0,0.0,0.0,0.0,0.0,0.0,0.0,0.0,0.0,0.0,0.0,0.0,0.0,0.0,0.0,0.0,0.0,0.0,0.0,0.0,0.0,0.0,0.0,0.0,0.0,0.0,0.0,0.0,0.0,0.0,0.0,0.0,0.0,0.0,0.0,0.0,0.0,0.0,0.0,0.0,0.0,0.0,0.0,0.0,0.0,0.0,0.0,0.0,0.0,0.0,-3.5122,-3.4981,-3.499,-3.5446,-3.55,-3.55,-3.55,-3.5246,-3.519,-3.5369,0.0,0.0,0.0,0.0,0.0,0.0,0.0,0.0,0.0,0.0,0.0,0.0,0.0,0.0,0.0,0.0,0.0,0.0,0.0,0.0,0.0,0.0,0.0,0.0,0.0,0.0,0.0,0.0,0.0,0.0,0.0,0.0,0.0,0.0,0.0,0.0,0.0,0.0,0.0,0.0,0.0,0.0,0.0,0.0,0.0,0.0,0.0,0.0,0.0,0.0,0.0,0.0,0.0,0.0,0.0,0.0,0.0,0.0,0.0,0.0,0.0,0.0,0.0,0.0,0.0,0.0,0.0,0.0,0.0,0.0,0.0,0.0,0.0,0.0,0.0,0.0,0.0,0.0,0.0,0.0,0.0,0.0,0.0,0.0,0.0,0.0,0.0,0.0,0.0,0.0,0.0,0.0,0.0,0.0,0.0,0.0,0.0,0.0,0.0,0.0,0.0,0.0,-3.499,-3.4745,-3.4715,-3.5289,-3.5239,-3.519,-3.519,-3.4916,-3.4823,-3.4969,0.0,0.0,0.0,0.0,0.0,0.0,0.0,0.0,0.0,0.0,0.0,0.0,0.0,0.0,0.0,0.0,0.0,0.0,0.0,0.0,0.0,0.0,0.0,0.0,0.0,0.0,0.0,0.0,0.0,0.0,0.0,0.0,0.0,0.0,0.0,0.0,0.0,0.0,0.0,0.0,0.0,0.0,0.0,0.0,0.0,0.0,0.0,0.0,0.0,0.0,0.0,0.0,0.0,0.0,0.0,0.0,0.0,0.0,0.0,0.0,0.0,0.0,0.0,0.0,0.0,0.0,0.0,0.0,0.0,0.0,0.0,0.0,0.0,0.0,0.0,0.0,0.0,0.0,0.0,0.0,0.0,0.0,0.0,0.0,0.0,0.0,0.0,0.0,0.0,0.0,0.0,0.0,0.0,0.0,0.0,0.0,0.0,0.0,0.0,0.0,0.0,0.0,-3.4944,-3.4563,-3.4416,-3.4999,-3.4851,-3.4694,-3.4694,-3.439,-3.4211,-3.4235,0.0,0.0,0.0,0.0,0.0,0.0,0.0,0.0,0.0,0.0,0.0,0.0,0.0,0.0,0.0,0.0,0.0,0.0,0.0,0.0,0.0,0.0,0.0,0.0,0.0,0.0,0.0,0.0,0.0,0.0,0.0,0.0,0.0,0.0,0.0,0.0,0.0,0.0,0.0,0.0,0.0,0.0,0.0,0.0,0.0,0.0,0.0,0.0,0.0,0.0,0.0,0.0,0.0,0.0,0.0,0.0,0.0,0.0,0.0,0.0,-3.8553,0.0,0.0,0.0,0.0,0.0,0.0,0.0,0.0,0.0,0.0,0.0,0.0,0.0,0.0,0.0,0.0,0.0,0.0,0.0,0.0,0.0,0.0,0.0,0.0,0.0,0.0,0.0,0.0,0.0,0.0,0.0,0.0,0.0,0.0,0.0,0.0,0.0,0.0,0.0,0.0,0.0,-3.4704,-3.4445,-3.4357,-3.4744,-3.4724,-3.4694,-3.4694,-3.439,-3.4304,-3.4572,-3.4087,0.0,0.0,0.0,0.0,0.0,0.0,0.0,0.0,0.0,0.0,0.0,0.0,0.0,0.0,0.0,0.0,0.0,0.0,0.0,0.0,0.0,0.0,0.0,0.0,0.0,0.0,0.0,0.0,0.0,0.0,0.0,0.0,0.0,0.0,0.0,0.0,0.0,0.0,0.0,0.0,0.0,0.0,0.0,0.0,0.0,0.0,0.0,0.0,0.0,0.0,0.0,0.0,0.0,0.0,0.0,0.0,0.0,0.0,0.0,0.0,-3.9348,0.0,0.0,0.0,0.0,0.0,0.0,0.0,0.0,0.0,0.0,0.0,0.0,0.0,0.0,0.0,0.0,0.0,0.0,0.0,0.0,0.0,0.0,0.0,0.0,0.0,0.0,0.0,0.0,0.0,0.0,0.0,0.0,0.0,0.0,0.0,0.0,0.0,0.0,0.0,0.0,-3.439,-3.4201,-3.4129,-3.4442,-3.4341,-3.4279,-3.4279,-3.4105,-3.4068,-3.4267,-3.3967,0.0,0.0,0.0,0.0,0.0,0.0,0.0,0.0,0.0,0.0,0.0,0.0,0.0,0.0,0.0,0.0,0.0,0.0,0.0,0.0,0.0,0.0,0.0,0.0,0.0,0.0,0.0,0.0,0.0,0.0,0.0,0.0,0.0,0.0,0.0,0.0,0.0,0.0,0.0,0.0,0.0,0.0,0.0,0.0,0.0,0.0,0.0,0.0,0.0,0.0,0.0,0.0,0.0,-3.8339,-3.8751,-3.9432,-3.9432,-3.9282,-3.9049,-3.932,-3.932,-3.9125,-3.9389,0.0,0.0,0.0,0.0,0.0,0.0,0.0,0.0,0.0,0.0,0.0,0.0,0.0,0.0,0.0,0.0,0.0,0.0,0.0,0.0,0.0,0.0,0.0,0.0,-3.1968,-3.1603,-3.1271,0.0,0.0,0.0,0.0,0.0,0.0,0.0,0.0,0.0,0.0,0.0,-3.4171,-3.3961,-3.3876,-3.4099,-3.3923,-3.3807,-3.3807,-3.3807,-3.3807,-3.3807,-3.3807,-3.3807,0.0,0.0,0.0,0.0,0.0,0.0,0.0,0.0,0.0,0.0,0.0,0.0,0.0,0.0,0.0,0.0,0.0,0.0,0.0,0.0,0.0,0.0,0.0,0.0,0.0,0.0,0.0,0.0,0.0,0.0,0.0,0.0,-3.2367,-3.2484,0.0,0.0,0.0,0.0,0.0,0.0,0.0,0.0,0.0,0.0,0.0,0.0,0.0,-3.6441,-3.6007,-3.7157,-3.7807,-3.7964,-3.842,-3.8711,-3.8822,-3.8822,-3.8792,-3.8747,-3.8807,0.0,-3.9093,-3.9152,0.0,0.0,0.0,0.0,0.0,0.0,0.0,0.0,0.0,0.0,0.0,0.0,0.0,0.0,0.0,0.0,0.0,0.0,0.0,0.0,0.0,0.0,-3.231,-3.1557,-3.1329,-3.1252,0.0,-3.1787,-3.235,-3.2484,-3.2501,0.0,0.0,0.0,0.0,0.0,0.0,0.0,-3.4171,-3.3961,-3.3802,-3.3855,-3.3815,-3.3807,-3.3807,-3.3807,-3.3807,-3.3807,-3.3807,-3.3807,-3.3807,-3.3807,0.0,0.0,0.0,0.0,0.0,0.0,0.0,0.0,0.0,0.0,0.0,0.0,0.0,0.0,0.0,0.0,0.0,0.0,0.0,0.0,0.0,0.0,0.0,0.0,0.0,0.0,0.0,0.0,0.0,-3.2805,-3.3536,-3.3568,-3.4121,-3.4612,0.0,0.0,0.0,0.0,0.0,0.0,0.0,0.0,0.0,-3.7275,-3.7342,-3.7251,-3.7041,-3.7345,-3.7506,-3.7506,-3.8015,-3.8251,-3.8267,-3.8562,-3.8546,-3.8267,-3.8562,-3.8603,-3.8459,-3.8744,-3.905,-3.9307,0.0,0.0,0.0,0.0,-3.9314,-3.9282,-3.8975,-3.8681,-3.8397,-3.8279,0.0,0.0,0.0,0.0,0.0,0.0,0.0,0.0,0.0,0.0,-3.312,-3.2086,-3.1515,-3.119,-3.119,-3.1487,-3.1841,0.0,-3.2333,-3.2648,-3.3105,0.0,0.0,0.0,0.0,-3.3842,-3.3961,-3.3863,-3.3807,-3.3807,-3.3807,-3.3807,-3.3807,-3.3807,-3.3807,-3.3807,-3.3807,-3.3807,-3.3807,-3.3807,-3.3606,0.0,0.0,0.0,0.0,0.0,0.0,0.0,0.0,0.0,0.0,0.0,0.0,0.0,0.0,0.0,0.0,0.0,0.0,0.0,0.0,0.0,0.0,0.0,0.0,0.0,0.0,0.0,0.0,-3.3265,-3.414,-3.4325,-3.4926,-3.5514,0.0,0.0,0.0,0.0,0.0,0.0,-3.7176,-3.7212,-3.7551,-3.8283,-3.7929,-3.7667,-3.7506,-3.7304,-3.7209,-3.7209,-3.7685,-3.7842,-3.7737,-3.8251,-3.8283,-3.7929,-3.8465,-3.8481,-3.815,-3.8546,-3.875,-3.8833,-3.8947,-3.9036,-3.9099,-3.9022,-3.8999,-3.8975,-3.8777,-3.8449,-3.8099,-3.8099,-3.7773,-3.7378,-3.7378,0.0,0.0,0.0,0.0,-3.6689,-3.5423,-3.4694,-3.394,-3.2615,-3.1887,-3.1427,-3.1241,-3.1291,-3.1411,0.0,-3.1932,-3.235,-3.2921,0.0,0.0,0.0,0.0,-3.3807,-3.3807,-3.3807,-3.3807,-3.3807,-3.3807,-3.3807,-3.3807,-3.3807,-3.3807,-3.3807,-3.3807,-3.3807,-3.3807,-3.3707,-3.3447,-3.3029,0.0,0.0,0.0,0.0,0.0,0.0,0.0,0.0,0.0,0.0,0.0,0.0,0.0,0.0,0.0,0.0,0.0,0.0,0.0,0.0,0.0,0.0,0.0,0.0,0.0,0.0,0.0,0.0,0.0,-3.4152,-3.4585,0.0,0.0,0.0,0.0,-3.7408,-3.8108,-3.8566,-3.8603,-3.8603,-3.8181,-3.7285,-3.7248,-3.6981,-3.6478,-3.696,-3.7209,-3.7209,-3.7685,-3.7667,-3.7248,-3.772,-3.7929,-3.7929,-3.8465,-3.8673,-3.8658,-3.8692,-3.884,-3.9063,-3.88,-3.8884,-3.9058,-3.88,-3.8719,-3.8719,-3.8707,-3.8692,-3.8658,-3.8658,-3.83,-3.7859,-3.7859,-3.756,0.0,0.0,-3.6437,-3.6139,-3.487,-3.4498,-3.4109,-3.2649,-3.2276,-3.2056,-3.1343,-3.1507,-3.166,0.0,-3.1249,-3.1543,-3.2384,0.0,-3.2825,-3.3662,-3.3807,-3.3807,-3.3807,-3.3807,-3.3807,-3.3807,-3.3807,-3.3807,-3.3807,-3.3807,-3.3807,-3.3807,-3.3807,-3.3807,-3.3807,-3.3419,-3.3014,-3.255,-3.2092,0.0,0.0,0.0,0.0,0.0,0.0,0.0,0.0,0.0,0.0,0.0,0.0,0.0,0.0,0.0,0.0,0.0,0.0,0.0,0.0,0.0,0.0,0.0,0.0,0.0,0.0,0.0,0.0,-3.6224,-3.6604,0.0,-3.7541,-3.8007,-3.8123,-3.778,-3.802,-3.8183,-3.8183,-3.8183,-3.8167,-3.8168,-3.7542,-3.7114,-3.6921,-3.6922,-3.6943,-3.6943,-3.7888,-3.8018,-3.74,-3.7916,-3.7708,-3.6944,-3.7506,-3.7542,-3.7247,-3.7596,-3.8163,-3.8829,-3.875,-3.8762,-3.8781,-3.8346,-3.8183,-3.815,-3.7843,-3.7506,-3.7154,-3.6825,-3.6586,-3.6422,-3.6422,-3.6316,-3.6122,-3.5941,-3.5876,-3.5781,-3.5328,-3.4861,-3.4252,-3.3254,-3.2666,-3.2107,-3.136,-3.131,-3.137,-3.123,-3.1657,-3.2144,-3.2451,-3.2745,-3.3151,-3.3707,-3.3807,-3.3807,-3.3807,-3.3807,-3.3807,-3.3807,-3.3807,-3.3807,-3.3807,-3.3807,-3.3807,-3.3807,-3.355,-3.3404,-3.3404,-3.2999,-3.2534,-3.2057,-3.1897,-3.1603,0.0,0.0,0.0,0.0,0.0,0.0,0.0,0.0,0.0,0.0,0.0,0.0,0.0,0.0,0.0,0.0,0.0,0.0,0.0,0.0,0.0,0.0,0.0,0.0,0.0,0.0,-3.6208,-3.727,-3.7571,-3.7947,-3.8627,-3.8707,-3.8546,-3.82,-3.8167,-3.8167,-3.8167,-3.8437,-3.8566,-3.8585,-3.8167,-3.7874,-3.7677,-3.7503,-3.7416,-3.7416,-3.8205,-3.8276,-3.7652,-3.8178,-3.7804,-3.6797,-3.7347,-3.7228,-3.6704,-3.7039,-3.7596,-3.8201,-3.8366,-3.8546,-3.8643,-3.8099,-3.7893,-3.7825,-3.736,-3.698,-3.6603,-3.6249,-3.6011,-3.5876,-3.5876,-3.5739,-3.56,-3.56,-3.56,-3.56,-3.56,-3.525,-3.4692,-3.3947,-3.3203,-3.2479,-3.1735,-3.1376,-3.119,-3.119,-3.1657,-3.2092,-3.2248,-3.2648,-3.3105,-3.3536,-3.3707,-3.3807,-3.3807,-3.3807,-3.3807,-3.3807,-3.3807,-3.3807,-3.3807,-3.3807,-3.3734,-3.3606,-3.3346,-3.3139,-3.2968,-3.25,-3.2109,-3.1807,-3.166,-3.1468,-3.119,0.0,0.0,0.0,0.0,0.0,0.0,0.0,0.0,0.0,0.0,0.0,0.0,0.0,0.0,0.0,0.0,0.0,0.0,0.0,0.0,0.0,0.0,0.0,-3.5605,-3.5644,-3.6054,-3.7097,-3.7247,-3.7632,-3.8611,-3.8707,-3.8707,-3.8707,-3.871,-3.8713,-3.8713,-3.9481,-3.9418,-3.8394,-3.9102,-3.9209,-3.8633,-3.8624,-3.8619,-3.8619,-3.8637,-3.8397,-3.7963,-3.8402,-3.8204,-3.7538,-3.8041,-3.7839,-3.7188,-3.7152,-3.7154,-3.721,-3.7685,-3.82,-3.8596,-3.8048,-3.7842,-3.7772,-3.7304,-3.7135,-3.7135,-3.7135,-3.6803,-3.6392,-3.6392,-3.6028,-3.56,-3.56,-3.56,-3.56,-3.56,-3.56,-3.5397,-3.4675,-3.3947,-3.3237,-3.2462,-3.1752,-3.1224,-3.119,-3.119,-3.1332,-3.1734,-3.2179,-3.2665,-3.3139,-3.3536,0.0,-3.3807,-3.3807,-3.3807,-3.3807,-3.3807,-3.3807,-3.3807,-3.3807,-3.3638,-3.3229,-3.3184,-3.2968,-3.2501,-3.2039,-3.1789,-3.1789,-3.1408,-3.119,-3.119,0.0,0.0,0.0,0.0,0.0,0.0,0.0,0.0,0.0,0.0,0.0,0.0,0.0,0.0,0.0,0.0,0.0,0.0,0.0,0.0,0.0,0.0,-3.5739,-3.6118,-3.6501,-3.7001,-3.7632,-3.805,-3.8401,-3.8658,-3.8707,-3.8707,-3.8707,-3.8828,-3.8933,-3.8933,-3.9694,-3.9986,-3.9694,-3.9546,-3.9431,-3.925,-3.9015,-3.8874,-3.8891,-3.9443,-3.9346,-3.8684,-3.8819,-3.8482,-3.7774,-3.737,-3.71,-3.686,-3.6277,-3.627,-3.6664,-3.7192,-3.747,-3.7542,-3.7001,-3.6565,-3.6211,-3.6079,-3.6054,-3.6054,-3.6054,-3.5924,-3.581,-3.581,-3.5717,-3.56,-3.56,-3.56,-3.56,-3.56,-3.56,-3.5397,-3.4675,-3.4336,-3.3846,-3.2564,-3.2141,-3.1853,-3.1292,-3.119,-3.1332,-3.1734,-3.2179,-3.2665,-3.3139,-3.3288,0.0,-3.3762,-3.3807,-3.3807,-3.3807,-3.3807,-3.3807,-3.3807,-3.3807,-3.3638,-3.3229,-3.2872,-3.2484,-3.2004,-3.1601,-3.137,-3.137,-3.1269,-3.119,0.0,0.0,0.0,0.0,0.0,0.0,0.0,0.0,0.0,0.0,0.0,0.0,0.0,0.0,0.0,0.0,0.0,0.0,0.0,0.0,0.0,0.0,-3.56,-3.5717,-3.6028,-3.6316,-3.6805,-3.7524,-3.7878,-3.8236,-3.8676,-3.9001,-3.9203,-3.9203,-3.9622,-3.9889,-3.9889,-4.0402,-4.0596,-4.0367,-4.0188,-3.9979,-3.9755,-3.9563,-3.9469,-3.9486,-3.991,-3.9893,-3.9469,-3.9469,-3.9056,-3.8345,-3.7905,-3.7557,-3.7195,-3.6417,-3.6298,0.0,0.0,0.0,0.0,0.0,-3.6054,-3.56,-3.56,-3.56,-3.56,-3.56,-3.56,-3.56,-3.56,-3.56,-3.56,-3.56,-3.56,-3.56,-3.56,-3.56,-3.5481,-3.5064,-3.4726,-3.4273,-3.341,-3.275,-3.2175,-3.1752,-3.141,0.0,-3.1507,-3.1915,-3.2366,-3.2842,-3.2921,-3.306,-3.3494,-3.339,-3.3255,-3.3255,-3.3255,-3.3346,-3.3536,-3.355,0.0,0.0,0.0,-3.2213,-3.1565,-3.1312,0.0,0.0,0.0,-3.1092,-3.0818,-3.0477,0.0,0.0,-2.918,-2.8803,0.0,0.0,0.0,0.0,0.0,0.0,0.0,0.0,0.0,0.0,0.0,0.0,0.0,0.0,0.0,0.0,-3.56,-3.56,-3.56,-3.56,-3.5989,-3.7058,-3.7209,-3.7596,-3.8624,-3.9397,-3.9836,-3.993,-4.0681,-4.1106,-4.1055,0.0,0.0,0.0,0.0,-4.0679,-4.0179,-4.0121,-4.0096,-4.0096,-4.0096,-4.0096,-4.0096,-4.0096,-3.9757,-3.9106,-3.9039,-3.8633,-3.7973,-3.7212,-3.688,-3.6774,-3.6427,-3.6603,-3.6962,-3.6498,-3.6028,-3.56,-3.56,0.0,0.0,-3.56,-3.56,-3.56,-3.56,-3.56,-3.56,-3.56,-3.56,-3.56,-3.56,-3.56,-3.56,-3.56,-3.5115,-3.459,-3.4506,-3.341,-3.2395,-3.2327,-3.1698,-3.119,-3.119,-3.1488,-3.1915,-3.2417,-3.2501,-3.2665,-3.3154,-3.2842,-3.2567,-3.2501,0.0,0.0,-3.3093,-3.3105,-3.309,-3.3045,-3.2616,-3.2003,-3.123,-3.119,-3.119,-3.119,-3.119,-3.0898,-3.0293,-3.0293,-2.9717,-2.863,-2.9629,-2.9496,0.0,0.0,0.0,0.0,0.0,0.0,0.0,0.0,0.0,0.0,0.0,0.0,0.0,0.0,0.0,-3.56,-3.56,-3.56,-3.56,-3.56,-3.5989,-3.7058,-3.7209,-3.7664,-3.8831,-3.9134,-3.9496,-4.0094,-4.089,-4.1158,-4.0731,-4.1342,-4.1456,-4.0861,-4.088,-4.0833,-4.075,-4.0311,-4.0096,-4.0096,0.0,0.0,-4.0096,-4.0096,-4.0028,-3.9859,-3.9242,-3.892,-3.8717,-3.799,-3.733,-3.6728,-3.6022,-3.581,-3.5898,-3.5788,-3.5694,-3.56,-3.56,-3.56,-3.56,-3.56,-3.56,-3.56,-3.56,-3.56,0.0,-3.56,-3.56,-3.56,-3.56,-3.56,-3.56,-3.56,-3.5481,-3.5211,-3.4624,-3.3812,-3.3,-3.2412,-3.1698,-3.119,-3.119,-3.1252,-3.1582,-3.2384,-3.2501,-3.2665,-3.3154,-3.3105,-3.2921,-3.2534,-3.2501,-3.2534,-3.2632,-3.2632,-3.2466,-3.2092,-3.1677,-3.1387,-3.121,-3.119,-3.119,-3.119,-3.119,-3.0898,-3.0293,-3.0293,-2.9935,-2.9225,-2.8966,-2.8463,0.0,0.0,0.0,0.0,0.0,0.0,0.0,0.0,0.0,0.0,0.0,-3.56,0.0,0.0,-3.56,-3.56,-3.56,-3.56,-3.56,-3.56,-3.5898,-3.6704,-3.7038,-3.7681,-3.8923,-3.9674,-4.0307,-4.0762,-4.1574,-4.1792,-4.1226,-4.1301,-4.1223,-4.0903,-4.0631,-4.0497,-4.0497,-4.0229,-4.0096,-4.0096,-4.0096,-4.0096,-4.0096,-4.0096,-4.0096,-4.0079,-3.9723,-3.9554,-3.9503,-3.8751,-3.7787,-3.6761,-3.6349,-3.596,-3.56,-3.56,-3.56,-3.56,-3.56,-3.56,-3.56,-3.56,-3.56,-3.56,-3.56,-3.56,-3.56,-3.56,-3.56,-3.56,-3.56,-3.5362,-3.5168,-3.5515,-3.5339,-3.5107,-3.5065,-3.4472,-3.3728,-3.2983,-3.2239,-3.1613,-3.1258,-3.119,-3.1428,-3.2057,-3.1986,-3.2003,-3.2433,-3.2333,-3.2109,-3.1878,-3.186,-3.1932,-3.2127,-3.2349,-3.2316,-3.1843,-3.1621,-3.1411,-3.121,-3.119,-3.119,-3.119,-3.119,-3.0898,-3.0293,-3.0293,-2.9827,-2.8943,-2.8654,-2.8334,0.0,0.0,0.0,0.0,0.0,0.0,0.0,0.0,-3.6539,-3.6416,-3.5968,-3.56,-3.56,-3.56,-3.56,-3.56,-3.56,-3.56,-3.56,-3.56,-3.5761,-3.6203,-3.6623,-3.745,-3.8867,-3.9986,-4.0818,-4.1269,-4.2065,-4.2262,-4.1643,-4.1178,-4.0833,-4.0733,-4.0336,-4.0096,-4.0096,-4.0096,-4.0096,-4.0096,-4.0096,-4.0096,-4.0096,-4.0096,-4.0096,-4.0096,-4.0096,-4.0096,-4.0045,-3.9292,-3.8294,-3.7218,-3.7083,-3.6518,-3.5802,-3.565,-3.56,-3.56,-3.56,-3.56,-3.56,-3.56,-3.56,-3.56,-3.56,-3.56,-3.56,-3.56,-3.5515,-3.5447,-3.5577,-3.5098,-3.4759,-3.543,-3.5184,-3.4941,-3.5492,-3.503,-3.4269,-3.3541,-3.2797,-3.2073,-3.1326,-3.119,-3.1332,-3.1734,-3.1509,-3.143,-3.1752,-3.1526,-3.1291,-3.121,-3.119,-3.1332,-3.166,-3.2021,-3.2092,-3.1715,-3.1678,-3.1545,-3.121,-3.119,-3.119,-3.119,-3.1075,-3.072,-3.0123,-3.0016,-2.9384,-2.8334,-2.8334,-2.8334,-4.0756,-4.0412,-4.0012,-3.9634,-3.9289,-3.8826,0.0,0.0,-3.698,-3.6498,-3.5968,-3.56,-3.56,-3.56,-3.56,-3.56,-3.56,-3.56,-3.56,-3.56,-3.5622,-3.5672,-3.5739,-3.6537,-3.8482,-3.8841,-3.953,-4.0866,-4.1547,-4.1643,-4.1041,-4.0926,-4.0679,-4.0204,-4.0121,-4.0096,-4.0096,-4.0096,-4.0096,-4.0096,-4.0096,-4.0096,-4.0096,-4.0096,-4.0096,-4.0096,-4.0096,-4.0096,-4.0045,-3.9292,-3.8886,-3.8684,-3.8024,-3.7313,-3.6592,-3.5853,-3.56,-3.56,-3.56,-3.56,-3.56,-3.56,-3.56,-3.56,-3.56,-3.56,-3.56,-3.56,-3.5184,-3.4847,-3.5447,-3.5098,-3.4759,-3.543,-3.5538,-3.5515,-3.5577,-3.503,-3.4269,-3.3541,-3.2797,-3.2073,-3.1326,-3.119,-3.1332,-3.1734,-3.1752,-3.1752,-3.1789,-3.1752,-3.1603,-3.1249,-3.119,-3.121,-3.1252,-3.131,-3.1329,-3.1271,-3.1271,-3.1249,-3.119,-3.119,-3.119,-3.119,-3.0679,-3.0086,-2.9496,-2.895,-2.8367,-2.7685,-2.7685,-2.7685,-4.0742,-4.0521,-4.0212,-3.9724,-3.9486,-3.9199,-3.852,-3.7755,-3.7152,-3.6921,-3.6186,-3.56,-3.56,-3.56,-3.56,0.0,-3.56,-3.56,-3.56,-3.56,-3.56,-3.56,-3.6011,-3.7062,-3.8979,-3.9456,-4.0273,-4.1813,-4.1853,-4.1534,-4.0926,-4.0601,-4.0336,-4.0096,-4.0096,-4.0096,-4.0096,-4.0096,-4.0096,-4.0096,-4.0096,-4.0096,-4.0096,-4.0096,-4.0096,-4.0096,-4.0096,-4.0096,-4.0079,-3.9774,-3.9402,-3.8954,-3.865,-3.7821,-3.6761,-3.6417,-3.6011,-3.56,-3.56,-3.56,-3.56,-3.56,-3.56,-3.56,-3.56,-3.56,-3.56,-3.56,-3.5385,-3.5161,-3.5052,-3.452,-3.4186,-3.4871,-3.4728,-3.4544,-3.4918,-3.5087,-3.4683,-3.3117,-3.2866,-3.256,-3.1393,-3.119,-3.1269,-3.143,-3.1468,-3.1468,-3.1468,-3.1468,-3.1389,-3.121,-3.119,-3.119,-3.119,-3.119,-3.119,-3.119,-3.119,-3.119,-3.119,-3.119,-3.119,-3.119,-3.0938,-3.0699,-3.0456,-2.9848,-2.9432,-2.9214,-2.8879,-2.8723,-4.0786,-4.0629,0.0,-3.9874,-3.9668,-3.9457,-3.8942,-3.798,-3.7209,-3.7209,-3.6336,-3.56,-3.56,-3.56,-3.56,-3.56,-3.56,-3.56,-3.56,-3.56,-3.56,-3.56,-3.6315,-3.7466,-3.9197,-3.9709,-4.0501,-4.1887,-4.1573,-4.115,-4.0703,-4.0311,-4.0096,-4.0096,-4.0096,-4.0096,-4.0096,-4.0096,-4.0096,-4.0096,-4.0096,-4.0096,-4.0096,-4.0096,-4.0096,-4.0096,-4.0096,-4.0096,-4.0096,-4.0096,-3.9791,-3.9292,-3.9292,-3.8539,-3.7388,-3.7185,-3.6468,-3.56,-3.56,-3.56,-3.56,-3.56,-3.56,-3.56,-3.56,-3.56,-3.556,-3.5385,-3.5184,-3.4934,-3.4431,-3.3836,-3.3479,-3.4161,-3.3962,-3.3786,-3.4455,-3.4965,-3.4862,-3.3283,-3.3078,-3.2816,-3.1695,-3.119,-3.1015,-3.1171,-3.119,-3.119,-3.119,-3.119,-3.119,-3.119,-3.119,-3.119,-3.119,-3.119,-3.119,-3.119,-3.119,-3.119,-3.119,-3.119,-3.119,-3.119,-3.1237,-3.116,-3.0979,-3.0593,-3.0307,-3.0176,-2.9738,-2.9635,-4.0824,-4.0742,-4.0591,-4.0194,-3.9829,-3.9517,-3.9178,-3.8103,-3.7209,-3.7209,-3.6336,-3.56,-3.56,-3.56,-3.56,-3.56,-3.56,-3.56,-3.56,-3.56,-3.56,-3.56,-3.6315,-3.7303,0.0,-3.8916,-3.9357,-4.0103,-4.0171,-4.0146,-4.0121,-4.0096,-4.0096,-4.0096,-4.0096,-4.0096,-4.0096,-4.0096,-4.0096,-4.0096,-4.0096,-4.0096,-4.0096,-4.0096,-4.0096,-4.0096,-4.0096,-4.0096,-4.0096,-4.0096,-4.0096,-4.0079,-4.0079,-3.9605,-3.8836,-3.8125,-3.6884,-3.56,-3.56,-3.56,-3.56,-3.56,-3.56,-3.56,-3.56,-3.56,-3.547,-3.4807,-3.4161,-3.3675,-3.3649,-3.3145,-3.2788,-3.3453,-3.3608,-3.3786,-3.4455,-3.4616,-3.4591,-3.4459,-3.3395,-3.2464,-3.2313,-3.1187,-3.0518,-3.1112,-3.119,-3.119,-3.119,-3.119,-3.119,-3.119,-3.119,-3.119,-3.119,-3.119,-3.119,-3.119,-3.119,-3.119,-3.119,-3.119,-3.119,-3.119,-3.1341,-3.1073,-3.0414,-3.0546,-3.0263,-2.963,-2.9604,-2.9906,-4.0933,-4.0812,-4.061,-4.0257,-3.9879,-3.9498,-3.9192,-3.812,-3.7209,-3.7209,-3.6336,-3.56,-3.56,-3.56,-3.56,-3.56,-3.56,-3.56,-3.56,-3.56,-3.5785,-3.6332,-3.706,0.0,0.0,0.0,0.0,-4.1143,-4.0868,-4.0631,-4.0631,-4.0286,-4.0096,-4.0096,-4.0096,-4.0096,-4.0096,-4.0096,-4.0096,-4.0096,-4.0096,-4.0096,-4.0096,-4.0096,-4.0096,-4.0096,-4.0096,-4.0096,-4.0096,-4.0096,-4.0096,-4.0045,-3.9516,-3.8857,-3.8114,-3.738,-3.6183,-3.4988,-3.5438,-3.5316,-3.4941,-3.4941,-3.464,-3.4276,-3.4276,-3.4568,-3.48,-3.4137,-3.4087,-3.4062,-3.3172,-3.2776,-3.2668,-3.2895,-3.2949,-3.2986,-3.3209,-3.3987,-3.4177,-3.2721,-3.2454,-3.2198,-3.1214,-3.0297,-2.9761,-2.9995,-3.0679,-3.119,-3.119,-3.119,-3.119,-3.119,-3.119,-3.119,-3.119,-3.119,-3.119,-3.119,-3.119,-3.141,-3.1921,-3.1516,-3.1501,-3.1999,-3.1603,-3.1276,-3.1055,-3.072,-3.0603,-3.0785,-3.0383,-3.0552,-4.1,-4.0866,-4.0685,-4.0442,-3.9995,-3.9534,-3.9327,-3.8342,-3.7396,-3.7229,-3.6501,-3.5827,-3.5644,-3.56,-3.56,-3.56,-3.56,-3.56,-3.56,-3.56,-3.591,-3.6711,-3.7449,-3.8193,0.0,0.0,0.0,-4.1133,-4.0844,-4.0607,-4.0607,-4.0286,-4.0096,-4.0096,-4.0096,-4.0096,-4.0096,-4.0096,-4.0096,-4.0096,-4.0096,-4.0096,-4.0096,-4.0096,-4.0096,-4.0096,-4.0096,-4.0096,-4.0096,-4.0096,-4.0096,-4.002,-3.9219,-3.8601,-3.8066,-3.7069,-3.5986,-3.5016,-3.5186,-3.4806,-3.4235,-3.4235,-3.3962,-3.3582,-3.3582,-3.3912,-3.4112,-3.3443,-3.3556,-3.3633,-3.2504,-3.2203,-3.2203,-3.2203,-3.2203,-3.2272,-3.2532,-3.3287,-3.354,-3.241,-3.1978,-3.1603,-3.0918,-3.0007,-2.9406,-2.9406,-3.0059,-3.0576,-3.0576,-3.0757,-3.0878,-3.0878,-3.1055,-3.1112,-3.0898,-3.0878,-3.0877,-3.0921,-3.09,-3.1231,-3.1945,-3.1565,-3.1567,-3.2022,-3.1879,-3.1649,-3.1385,-3.1301,-3.1301,-3.1418,-3.1048,-3.1077,-4.1031,-4.0911,-4.0773,-4.0729,-4.0151,-3.9599,-3.9599,-3.8718,-3.7772,-3.7285,-3.6764,-3.6245,-3.5694,-3.56,-3.56,-3.56,-3.56,-3.56,-3.56,-3.5633,-3.596,0.0,0.0,0.0,0.0,0.0,0.0,-4.0096,0.0,-4.0096,-4.0096,-4.0096,-4.0096,-4.0096,-4.0096,-4.0096,-4.0096,-4.0096,-4.0096,-4.0096,-4.0045,-4.0045,-4.0045,-3.9995,-3.9978,-3.9978,-3.9978,-3.9978,-3.9978,-3.9978,-3.9978,-3.9901,-3.9086,-3.8799,-3.8592,-3.7179,-3.6194,-3.5489,-3.4792,-3.4101,-3.3547,-3.3547,-3.3505,-3.3479,-3.3479,-3.3521,-3.3417,-3.2734,-3.2559,-3.2437,-3.1697,-3.1511,-3.1511,-3.1511,-3.1511,-3.1697,-3.2382,-3.2559,-3.2761,-3.3391,-3.1907,-3.0723,-3.1269,-3.0233,-2.9339,-2.9316,-2.9339,-2.9361,-2.9406,-2.9892,-3.0251,-3.0251,-3.0777,-3.0878,-3.0293,-3.0284,-3.0337,-3.0391,-3.0447,-3.0743,-3.1421,-3.1429,-3.1421,-3.1469,-3.2097,-3.2084,-3.1404,-3.218,-3.216,-3.1511,-3.1511,-3.1511,-4.1151,-4.0986,-4.0793,-4.0784,-4.0172,-3.9599,-3.9599,-3.8718,-3.7772,-3.7285,-3.6764,-3.6245,-3.5694,-3.56,-3.56,-3.56,-3.56,0.0,-3.56,-3.6129,0.0,-3.7533,0.0,-3.9005,-3.9757,-3.9994,0.0,0.0,-4.0096,-4.0096,-4.0096,-4.0096,-4.0096,-4.0096,-4.0096,-4.0096,-4.0096,-4.0096,-4.0096,-4.0096,-3.9489,-3.9209,-3.9183,-3.8624,-3.8374,-3.8374,-3.8374,-3.8374,-3.8374,-3.8374,-3.8374,-3.8318,-3.7512,-3.7188,-3.7083,-3.6168,-3.5079,-3.4013,-3.3846,-3.338,-3.2841,-3.2841,-3.2489,-3.2048,-3.2048,-3.2422,-3.2707,-3.1979,-3.2176,-3.2437,-3.1697,-3.1511,-3.1511,-3.1511,-3.1511,-3.1553,-3.1739,-3.2216,-3.2492,-3.2104,-3.0846,-2.9758,-2.9398,-2.9011,-2.8567,-2.8125,-2.8424,-2.8896,-2.9339,-2.954,-2.9629,-2.9629,-2.9761,-2.9783,-2.9651,-3.009,-3.0369,-3.04,-3.0871,-3.1478,-3.2196,-3.1693,-3.1685,-3.2284,-3.1946,-3.1665,-3.1468,-3.1677,-3.1682,-3.1511,-3.1511,-3.1511,-4.1191,-4.0998,-4.0797,-4.0797,-4.0192,-3.9599,-3.9599,-3.8718,-3.7772,-3.7285,-3.6764,-3.6245,-3.5694,-3.56,-3.56,0.0,0.0,0.0,-3.56,-3.6282,-3.7083,0.0,-3.8548,0.0,-4.0028,-4.0096,-4.0096,0.0,-4.0096,-4.0096,-4.0096,-4.0096,-4.0096,-4.0096,-4.0096,-4.0096,-4.0096,-3.9756,-3.9584,-3.9542,-3.8789,-3.8414,-3.8386,-3.7978,-3.7793,-3.7793,0.0,-3.7793,-3.7793,-3.7793,-3.7793,-3.7719,-3.6904,-3.6615,-3.6492,-3.5782,-3.4651,-3.3499,-3.3499,-3.2884,-3.212,-3.212,-3.1853,-3.1511,-3.1511,-3.1796,-3.2035,-3.1611,-3.1796,-3.2007,-3.1611,-3.1511,-3.1511,-3.1511,-3.1511,-3.1511,-3.1511,-3.1824,-3.1916,-3.1192,-3.0268,-2.9397,-2.8712,-2.8314,-2.7993,-2.7635,-2.7885,-2.8222,-2.8567,-2.8834,-2.9012,-2.9012,-2.9512,-2.9733,-2.9454,-3.0077,-3.045,-3.0447,-3.0794,-3.1321,-3.202,-3.1646,-3.1652,-3.2104,-3.171,-3.1511,-3.1511,-3.1511,-3.1511,-3.1511,-3.1511,-3.1511,-4.1171,-4.0992,-4.0793,-4.0781,-4.0188,-3.9599,-3.9599,-3.8718,-3.7772,-3.7285,-3.6764,-3.6245,-3.5694,-3.56,-3.5577,-3.547,0.0,-3.547,-3.547,-3.615,-3.6973,-3.7797,-3.8548,-3.9276,-4.0028,-3.9995,-3.9927,-3.9927,-3.9927,-3.9995,-4.0096,-4.0096,-4.0045,-3.9952,-3.9927,-3.9901,-3.9799,-3.9086,-3.8745,-3.8745,-3.7991,-3.7632,-3.7632,-3.7531,-3.7501,-3.7501,-3.7501,-3.7501,-3.7501,-3.7501,-3.7501,-3.7442,-3.6737,-3.6446,-3.6399,-3.5733,-3.4651,-3.3499,-3.3499,-3.2632,-3.1511,-3.1511,-3.1511,-3.1511,-3.1511,-3.1511,-3.1511,-3.1511,-3.1511,-3.1511,-3.1511,-3.1511,-3.1511,-3.1511,-3.1511,-3.1511,-3.1511,-3.1511,-3.1331,-3.0761,-3.0133,-2.9505,-2.8846,-2.8184,-2.7705,-2.76,-2.76,-2.76,-2.76,-2.8067,-2.8367,-2.8367,-2.9437,-2.9942,-2.9435,-3.0068,-3.0498,-3.049,-3.0597,-3.0883,-3.1481,-3.1511,-3.1511,-3.1511,-3.1511,-3.1511,-3.1511,-3.1511,-3.1511,-3.1511,-3.1511,-3.1438,-4.1056,-4.092,-4.0796,-4.0731,-4.0158,-3.9599,-3.9599,-3.8718,0.0,-3.7285,-3.6764,-3.6245,-3.5694,-3.56,-3.5407,-3.4854,-3.4759,-3.4759,-3.4759,-3.5429,-3.6387,0.0,-3.8548,-3.9276,-4.0028,-3.9489,0.0,0.0,-3.9113,-3.9394,-4.007,-4.0096,-3.9808,-3.9139,-3.9113,-3.8816,-3.8206,-3.8064,-3.7978,-3.7978,-3.7203,-3.6813,-3.6783,-3.6196,-3.591,-3.591,-3.591,0.0,-3.591,-3.591,-3.591,-3.5893,-3.5765,-3.5701,-3.5668,-3.5569,-3.4651,-3.3499,-3.3499,-3.2632,-3.1511,-3.1511,-3.1511,-3.1511,-3.1511,-3.1511,-3.1511,-3.1511,-3.1511,-3.1511,-3.1511,-3.1511,-3.1511,-3.1511,-3.1511,-3.1511,-3.1511,-3.1511,-3.1466,-3.1346,-3.0778,-3.0148,-2.9547,-2.8861,-2.8233,-2.769,-2.76,-2.76,-2.76,-2.7685,-2.776,-2.776,-2.844,-2.8873,-2.8759,-2.9843,-3.0483,-3.0492,-3.1017,-3.1376,-3.1511,-3.1511,-3.1511,-3.1511,-3.1511,-3.1511,-3.1511,-3.1511,-3.1511,-3.1511,-3.1511,-3.1161,-4.1048,-4.0908,-4.0773,-4.0718,-4.0142,-3.9599,-3.9599,0.0,0.0,-3.7248,-3.6542,-3.5898,-3.5644,-3.5299,0.0,-3.4664,-3.4309,-3.4087,-3.4087,-3.4704,0.0,-3.664,-3.7399,-3.8134,0.0,-3.8569,-3.833,-3.833,-3.833,-3.8513,-3.8887,-3.8914,-3.875,-3.833,-3.833,-3.8177,-3.7806,-3.7381,-3.7189,-3.716,-3.6415,-3.6023,-3.6038,-3.5668,-3.5504,-3.5504,-3.5504,-3.5504,-3.5504,-3.5504,-3.5504,-3.5504,-3.5504,-3.5504,-3.5459,-3.51,-3.4337,-3.344,-3.3095,-3.2318,-3.1511,-3.1511,-3.1511,-3.1511,-3.1511,-3.1511,-3.1511,-3.1511,-3.1511,-3.1511,-3.1511,-3.1511,-3.1511,-3.1511,-3.1511,-3.1511,-3.1511,-3.1511,-3.1511,-3.1511,-3.0943,-3.0417,-3.0118,-2.9535,-2.8876,-2.8229,-2.8113,-2.8004,-2.7645,-2.7899,-2.8113,-2.8113,-2.8712,-2.925,-2.9564,-3.0477,-3.1017,-3.1017,-3.1316,-3.1511,-3.1511,-3.1511,-3.1511,-3.1511,-3.1511,-3.1511,-3.1511,-3.1087,-3.0866,-3.0866,-3.0419,-2.9981,-4.0996,-4.0877,-4.0788,-4.0678,-4.0126,-3.9569,-3.9442,-3.8269,0.0,-3.7039,-3.627,-3.56,-3.56,-3.5052,-3.4552,0.0,-3.3811,-3.3391,-3.3391,-3.3868,-3.4569,0.0,-3.6105,0.0,-3.7502,-3.7565,0.0,-3.7544,-3.7413,-3.7442,-3.7793,-3.7793,-3.7719,-3.7544,-3.7544,-3.7456,-3.7324,-3.6692,-3.6353,-3.6353,-3.5782,-3.5504,-3.5504,-3.5504,-3.5504,-3.5504,-3.5504,-3.5504,-3.5504,-3.5504,-3.5504,-3.5504,-3.5504,-3.5504,-3.5429,-3.4758,-3.4099,-3.3395,-3.2736,-3.2049,-3.1511,-3.1511,-3.1511,-3.1511,-3.1511,-3.1511,-3.1467,-3.1278,-3.138,-3.1467,-3.1278,-3.138,-3.1511,-3.1511,-3.138,-3.1278,-3.1467,-3.1511,-3.1511,-3.1511,-3.1062,-3.0672,-3.0522,-3.0103,-2.9564,-2.8906,-2.8801,-2.8607,-2.8109,-2.8472,-2.8861,-2.8996,-2.9475,-2.9968,-3.0462,-3.1107,-3.1511,-3.1511,-3.1511,-3.1511,-3.1511,-3.1511,-3.1511,-3.1511,-3.1511,-3.1511,-3.1511,-3.0673,-3.0299,-3.0269,-2.9411,-2.8907,-4.0899,-4.0805,-4.0746,-4.0575,-4.0063,-3.9472,-3.8988,0.0,-3.7058,-3.6563,-3.6028,-3.56,-3.56,-3.5052,-3.4406,0.0,0.0,-3.2695,0.0,-3.2742,0.0,0.0,0.0,0.0,0.0,-3.6796,0.0,-3.6691,-3.6101,-3.6321,-3.7735,-3.7793,-3.7456,-3.6722,-3.6691,-3.6399,-3.5716,-3.5651,-3.5619,-3.5619,-3.5537,-3.5504,-3.5504,-3.5504,-3.5504,-3.5504,-3.5504,-3.5504,0.0,-3.5504,-3.5504,-3.5504,-3.5504,-3.5504,-3.5429,-3.4758,-3.4099,-3.3395,-3.2736,-3.2049,-3.1511,-3.1511,-3.1511,-3.1511,-3.1511,-3.1511,-3.1351,-3.0614,-3.094,-3.1322,-3.0614,-3.097,-3.1511,-3.1511,-3.094,-3.0614,-3.1351,-3.1511,-3.1511,-3.1511,-3.1451,-3.1212,-3.0612,-3.0447,-3.0208,-2.9579,-2.9517,-2.9502,-2.9427,-2.9472,-2.9726,-3.0268,-3.0387,-3.0447,-3.0507,-3.1107,-3.1511,-3.1511,-3.1511,-3.1511,-3.1511,-3.1511,-3.1511,-3.1511,-3.1511,-3.1511,-3.1511,-3.0673,-3.0299,-3.0269,-2.9411,-2.8588,-4.0857,-4.0766,-4.0657,-4.0342,-3.9924,-3.9413,-3.872,0.0,-3.7057,-3.6519,-3.5632,-3.4988,-3.4988,-3.4112,-3.3313,0.0,0.0,0.0,-3.1923,0.0,0.0,0.0,-3.3967,0.0,0.0,0.0,-3.5943,-3.5943,-3.5668,-3.5765,-3.6368,-3.6399,-3.6274,-3.5943,-3.5943,-3.5814,-3.5504,-3.5504,-3.5504,-3.5504,-3.5504,-3.5504,-3.5504,-3.5504,-3.5504,-3.5504,-3.5504,-3.5504,0.0,-3.5504,-3.5504,-3.5504,-3.5504,-3.4928,-3.4097,-3.3956,-3.3148,-3.2084,-3.1946,-3.1412,-3.0777,-3.0777,-3.0419,-3.0178,-3.119,-3.1161,-3.0703,-3.0389,-3.0133,-2.9919,-2.9597,-2.9766,-3.0011,-3.0011,-2.9766,-2.9766,-3.0614,-3.0777,-3.0777,-3.0777,-3.0777,-3.0526,-2.9729,-2.9595,-2.9575,-2.9434,-2.9403,-2.9456,-2.957,-2.9909,-3.0223,-3.0477,-3.0507,-3.0672,-3.1062,-3.1346,-3.1511,-3.1511,-3.1511,-3.1511,-3.1511,-3.1511,-3.1511,-3.1511,-3.1511,-3.1248,-3.0777,-2.9919,-2.9254,-2.8716,-2.7887,-2.7317,-4.08,-4.0742,-4.0597,-4.0203,-3.9738,-3.9151,0.0,0.0,-3.6746,-3.6024,-3.5193,-3.4528,-3.4333,-3.3365,-3.2586,0.0,0.0,-3.1511,-3.1511,0.0,0.0,0.0,0.0,-3.3679,0.0,-3.4981,-3.5504,-3.5504,-3.5504,-3.5504,-3.5504,-3.5504,-3.5504,-3.5504,-3.5504,-3.5504,-3.5504,-3.5504,-3.5504,-3.5504,-3.5504,-3.5504,-3.5504,-3.5504,-3.5504,-3.5472,-3.518,-3.5067,0.0,-3.4773,-3.4555,-3.4413,-3.4413,-3.3659,-3.252,-3.2509,-3.1768,-3.0825,-3.0788,-3.0389,-2.9919,-2.9919,-2.9504,-2.9223,-3.0389,-3.0359,-2.9858,-2.9597,-2.9097,-2.8684,-2.8939,-2.8812,-2.8684,-2.8939,-2.8812,-2.8844,-2.9721,-2.9919,-2.9919,-2.9919,-2.9919,-2.9721,-2.9097,-2.9002,-2.9039,-2.9201,-2.9204,-2.9256,-2.939,-2.9797,-3.0061,-3.0061,-3.0061,-3.0353,-3.1087,-3.0896,-3.0777,-3.0777,-3.0777,-3.0777,-3.0777,-3.0777,-3.0777,-3.0777,-3.0777,-3.0494,-2.9919,-2.9034,-2.8298,-2.767,-2.6871,-2.6499,-4.0724,-4.0697,-4.0597,-4.0203,-3.9448,-3.8605,0.0,-3.6993,-3.6084,-3.4861,-3.46,-3.4406,-3.3735,-3.3066,-3.2586,-3.2586,0.0,0.0,-3.1511,-3.1511,0.0,0.0,0.0,-3.3499,-3.3499,-3.4711,-3.5504,-3.5504,-3.5504,0.0,-3.5504,-3.5504,-3.5504,-3.5504,-3.5504,-3.5504,-3.5504,-3.5504,-3.5504,-3.5504,-3.5504,-3.5504,-3.5504,-3.5504,-3.5504,-3.5424,-3.4461,-3.4027,0.0,-3.3031,-3.2318,-3.1847,-3.1847,-3.1507,-3.0943,-3.0299,-3.003,-2.9915,-2.9273,-2.9034,-2.9002,-2.9002,-2.9002,-2.9002,-2.9034,-2.9034,-2.8844,-2.7953,-2.7736,-2.792,-2.878,-2.8363,-2.792,-2.878,-2.833,-2.7953,-2.8844,-2.9002,-2.9002,-2.9002,-2.9002,-2.9002,-2.9002,-2.9002,-2.9002,-2.8989,-2.8989,-2.8989,-2.902,-2.902,-2.902,-2.902,-2.902,-2.938,-3.0238,-2.9504,-2.9034,-2.9034,-2.9034,-2.9034,-2.9034,-2.9034,-2.9034,-2.9034,-2.9034,-2.9034,-2.9002,-2.8149,-2.7703,-2.767,-2.6871,-2.6499,-4.0435,-4.0327,-4.0081,-3.9158,-3.8725,-3.8214,-3.705,-3.6236,-3.5503,-3.475,-3.3862,-3.3172,-3.2975,-3.2312,-3.1853,-3.1853,-3.1668,0.0,0.0,0.0,0.0,-3.1511,-3.2691,-3.3664,0.0,0.0,-3.5504,-3.5504,-3.5504,-3.5504,-3.5504,-3.5504,-3.5504,-3.5504,-3.5504,-3.5504,-3.5504,-3.5504,-3.5504,-3.5504,-3.5504,-3.5133,-3.4461,-3.4461,-3.4109,-3.3498,-3.3171,-3.2828,-3.247,-3.2194,-3.173,-3.1257,-3.1257,-3.0513,-2.9464,-2.9871,-2.9313,-2.8489,-2.8881,-2.862,-2.8117,-2.8117,-2.7736,-2.7284,-2.7284,-2.767,-2.7953,-2.7095,-2.6871,-2.6939,-2.7229,-2.7095,-2.6939,-2.7229,-2.7061,-2.7095,-2.792,-2.8117,-2.8117,-2.8117,-2.8117,-2.7953,-2.7384,-2.7284,-2.7484,-2.8019,-2.8117,-2.833,-2.8907,-2.9002,-2.9002,-2.9002,-2.846,-2.846,-2.9348,-2.916,-2.9002,-2.9002,-2.9002,-2.9002,-2.9002,-2.9002,-2.9002,-2.9002,-2.9002,-2.8716,-2.8117,-2.7835,-2.7417,-2.6871,-2.6624,-2.6499,0.0,-3.9938,-3.9671,-3.8648,-3.8253,0.0,0.0,-3.5525,-3.4865,-3.4021,-3.3198,-3.252,-3.2259,-3.1566,-3.1058,-3.1058,-3.0777,0.0,0.0,0.0,0.0,-3.0904,0.0,0.0,0.0,-3.4215,-3.4744,-3.5083,-3.5032,-3.51,-3.5472,-3.5504,-3.5326,-3.4953,-3.5311,-3.5504,-3.5504,-3.5133,-3.4953,-3.4953,-3.4591,-3.4075,-3.3449,-3.3449,-3.3045,-3.2297,-3.1921,-3.1439,0.0,-3.0532,-3.0092,-2.959,-2.959,-2.8868,-2.7952,-2.8499,-2.8073,-2.7317,-2.7855,-2.7703,-2.7263,-2.7263,-2.6905,-2.6499,-2.6499,-2.685,-2.7129,-2.6658,-2.6499,-2.6499,-2.6499,-2.6499,-2.6499,-2.6499,-2.6499,-2.6658,-2.7129,-2.7263,-2.7263,-2.7263,-2.7263,-2.7095,-2.6589,-2.6499,-2.6692,-2.7162,-2.7263,-2.7451,-2.7986,-2.8051,-2.8051,-2.8051,-2.7571,-2.7484,-2.8019,-2.8051,-2.8051,-2.8051,-2.8051,-2.8051,-2.8051,-2.8051,-2.8051,-2.8051,-2.8051,-2.7802,-2.7263,-2.6867,-2.6424,-2.5908,-2.5534,-2.5381,0.0,-3.9498,-3.9327,-3.8519,-3.7878,0.0,0.0,0.0,0.0,-3.2868,-3.2574,-3.2299,-3.1538,-3.0807,-3.0269,-3.0238,-2.9535,-2.9002,0.0,-2.9002,0.0,0.0,-3.063,0.0,-3.1979,-3.2575,-3.3293,-3.4193,-3.3947,-3.4182,-3.5145,-3.5192,-3.474,-3.3815,-3.4707,-3.5222,-3.5279,-3.4361,-3.391,-3.3876,-3.2989,-3.2502,-3.2431,-3.239,-3.206,0.0,-3.0592,-2.9895,-2.9258,-2.8384,-2.772,-2.7218,-2.7218,-2.6952,-2.6499,-2.6499,-2.6499,-2.6499,-2.6499,-2.6499,-2.6499,-2.6499,-2.6499,-2.6499,-2.6499,-2.6499,-2.6499,-2.6499,-2.6499,-2.6499,-2.6499,-2.6499,-2.6499,-2.6499,-2.6499,-2.6499,-2.6499,-2.6499,-2.6499,-2.6499,-2.6499,-2.6499,-2.6499,-2.6499,-2.6499,-2.6499,-2.6499,-2.6499,-2.6499,-2.6499,-2.6499,-2.6499,-2.643,-2.6383,-2.6383,-2.6452,-2.6499,-2.6499,-2.6499,-2.6499,-2.6499,-2.6499,-2.6499,-2.6499,-2.6418,-2.6349,-2.6267,-2.5335,-2.4898,-2.4862,-2.3927,-2.3514,-3.8376,0.0,-3.8486,-3.7665,-3.6689,-3.5711,0.0,0.0,0.0,0.0,0.0,0.0,0.0,-3.0419,-3.0072,-2.9411,-2.9129,-2.9002,-2.9002,0.0,0.0,-2.9228,-2.9835,-3.0331,-3.0485,-3.1105,-3.1589,-3.1787,-3.1763,-3.18,-3.2047,-3.2047,-3.1947,-3.1699,-3.1947,-3.2433,-3.3276,-3.3066,-3.2925,-3.2912,-3.2298,-3.1615,-3.0895,-3.045,-2.9781,-2.8952,-2.8747,-2.8333,-2.7812,-2.7576,-2.719,-2.6688,-2.6688,-2.6612,-2.6499,-2.6499,-2.6499,-2.6499,-2.6499,-2.6499,-2.6499,-2.6499,-2.6499,-2.6499,-2.6499,-2.6499,-2.6499,-2.6499,-2.6499,-2.6499,-2.6499,-2.6499,-2.6499,-2.6499,-2.6499,-2.6499,-2.6499,-2.6499,-2.6499,-2.6499,-2.6499,-2.6499,-2.6499,-2.6499,-2.6499,-2.6499,-2.6499,-2.6499,-2.6499,-2.6499,-2.6499,-2.6499,-2.5804,-2.5335,-2.5335,-2.606,-2.6499,-2.6499,-2.6499,-2.6499,-2.6499,-2.6499,-2.6499,-2.6499,-2.5734,-2.4957,-2.4217,-2.3963,-2.3854,-2.3854,-2.3599,-2.3514,-3.7631,-3.7718,-3.7612,-3.6621,-3.5882,-3.5092,0.0,0.0,0.0,0.0,0.0,0.0,0.0,0.0,-2.8939,-2.8492,-2.8084,0.0,0.0,0.0,-2.7855,-2.7855,-2.8496,-2.8934,0.0,-2.9496,-3.0037,-3.0516,-3.0411,-3.0494,-3.0965,-3.0999,-3.0798,-3.0324,-3.029,-3.0808,-3.1868,-3.1395,-3.1184,-3.1184,-3.045,-2.9833,-2.9318,-2.8995,-2.8439,-2.772,-2.772,-2.7419,-2.6939,-2.6939,-2.6763,-2.6452,-2.599,-2.5804,-2.5769,-2.5276,-2.5429,-2.5804,-2.5804,-2.5804,-2.5804,-2.5804,-2.5499,-2.5205,-2.5652,-2.5499,-2.5323,-2.6233,-2.6164,-2.5804,-2.5804,-2.5464,-2.5122,-2.5122,-2.5122,-2.5122,-2.5122,-2.5122,-2.5122,-2.5122,-2.5122,-2.5122,-2.5122,-2.5122,-2.5122,-2.5122,-2.5122,-2.5122,-2.5122,-2.5122,-2.5122,-2.5122,-2.4624,-2.4301,-2.4301,-2.4803,-2.5122,-2.5122,-2.5122,-2.5122,-2.5122,-2.5122,-2.5122,-2.5122,-2.4588,-2.4036,-2.3514,-2.3036,-2.2813,-2.2813,-2.2376,-2.2161,-3.6775,-3.6716,-3.6458,-3.5606,-3.5166,-3.4516,-3.2779,0.0,0.0,0.0,0.0,0.0,0.0,-2.8214,0.0,0.0,0.0,0.0,-2.6499,-2.6499,-2.6499,-2.6499,-2.7095,0.0,-2.7517,-2.7923,-2.8537,-2.9403,-2.9219,-2.943,-3.0254,-3.0321,-2.993,-2.9061,-2.9026,-2.9464,-3.0288,-2.9638,-2.9289,-2.9289,-2.8395,-2.7984,-2.7971,-2.7896,-2.7595,-2.719,0.0,0.0,-2.628,-2.628,-2.6164,-2.5943,-2.5111,-2.4779,-2.4671,-2.3818,-2.4036,-2.4779,-2.4779,-2.4779,-2.4779,-2.4779,-2.4192,-2.3661,-2.4516,-2.4192,-2.3854,-2.5569,-2.5441,-2.4779,-2.4779,-2.4145,-2.3514,-2.3514,-2.3514,-2.3514,-2.3514,-2.3514,-2.3514,-2.3514,-2.3514,-2.3514,-2.3514,-2.3514,-2.3514,-2.3514,-2.3514,-2.3514,-2.3514,-2.3514,-2.3514,-2.3514,-2.3368,-2.3257,-2.3257,-2.3147,-2.3047,-2.3047,-2.3331,-2.3514,-2.3514,-2.3514,-2.3441,-2.3257,-2.3257,-2.3184,-2.3047,-2.2188,-2.1773,-2.1773,-2.0972,-2.0605,-3.4751,-3.4459,-3.4349,-3.5183,-3.4211,-3.2752,-3.1728,0.0,0.0,0.0,0.0,0.0,0.0,-2.7802,-2.7484,0.0,0.0,-2.6499,0.0,0.0,-2.6499,-2.6499,0.0,-2.6692,-2.6692,-2.6755,-2.6875,-2.7033,-2.6985,-2.7036,-2.7195,-2.7195,-2.7126,-2.698,-2.6967,-2.7036,-2.7195,-2.7942,-2.8303,-2.8303,-2.7704,-2.7406,-2.7394,-2.6964,-2.67,-2.6612,0.0,-2.6099,-2.5229,-2.5229,-2.4743,-2.3963,-2.3781,-2.3745,-2.3708,-2.3551,-2.3588,-2.3745,-2.3745,-2.3745,-2.3745,-2.3745,-2.3635,-2.3514,-2.3672,-2.3635,-2.3551,-2.3879,-2.3854,-2.3745,-2.3745,-2.3635,-2.3514,-2.3514,-2.3514,-2.3514,-2.3514,-2.3514,-2.3514,-2.3514,-2.3514,-2.3514,-2.3514,-2.3514,-2.3514,-2.3514,-2.3514,-2.3514,-2.3514,-2.3514,-2.3514,-2.3514,-2.2739,-2.2215,-2.2215,-2.1489,-2.1049,-2.1049,-2.2601,-2.3514,-2.3514,-2.3514,-2.311,-2.2253,-2.2215,-2.1859,-2.1049,-2.0905,-2.0828,-2.0828,-2.0673,-2.0605,-3.3907,-3.316,-3.2497,-3.3039,-3.2547,-3.1688,-3.094,0.0,0.0,0.0,0.0,0.0,0.0,0.0,-2.6756,-2.5838,0.0,-2.5063,-2.5616,-2.5217,-2.5099,0.0,0.0,-2.5699,-2.5699,-2.6164,-2.6499,-2.6499,-2.6499,-2.6499,-2.6499,-2.6499,-2.6499,-2.6499,-2.6499,-2.6499,-2.6499,-2.6448,-2.6695,-2.7218,-2.6436,-2.6065,-2.6017,-2.5242,-2.4874,-2.4874,0.0,-2.4624,-2.4192,-2.4192,-2.3927,-2.3452,-2.2888,-2.2702,-2.2702,-2.2702,-2.2702,-2.2776,-2.3294,-2.3147,-2.2702,-2.2702,-2.2339,-2.2048,-2.2553,-2.2339,-2.2048,-2.2553,-2.2702,-2.2702,-2.2702,-2.2301,-2.1935,-2.1935,-2.1935,-2.1935,-2.1935,-2.1935,-2.1935,-2.1935,-2.1935,-2.1935,-2.1935,-2.1935,-2.1935,-2.1935,-2.1935,-2.1935,-2.1935,-2.1935,-2.1935,-2.1935,-2.1527,-2.1221,-2.1221,-2.0857,-2.0605,-2.0605,-2.1451,-2.1935,-2.1935,-2.1935,-2.1718,-2.126,-2.1221,-2.1039,-2.0605,-2.0605,-2.0605,-2.0605,-2.0001,-2.004,-3.2528,-3.1641,-3.0764,-3.0764,0.0,-3.0572,-2.986,0.0,0.0,0.0,0.0,0.0,0.0,-2.5642,0.0,-2.4755,-2.4,-2.3781,-2.4528,-2.4,-2.3781,-2.4564,-2.4636,-2.4636,-2.4636,-2.5358,-2.5791,-2.5791,-2.5791,-2.5791,-2.5791,-2.5791,-2.5791,-2.5791,-2.5791,-2.5791,-2.5791,-2.5028,-2.5146,-2.6129,-2.5146,-2.4636,-2.4636,-2.3854,-2.3514,-2.3514,-2.3514,-2.3368,-2.3147,-2.3147,-2.2999,-2.2739,-2.1962,-2.1659,-2.1659,-2.1659,-2.1659,-2.1773,-2.2563,-2.2339,-2.1659,-2.1659,-2.1193,-2.075,-2.1441,-2.1155,-2.075,-2.1479,-2.1659,-2.1659,-2.1659,-2.1155,-2.0605,-2.0605,-2.0605,-2.0605,-2.0605,-2.0605,-2.0605,-2.0605,-2.0605,-2.0605,-2.0605,-2.0605,-2.0605,-2.0605,-2.0605,-2.0605,-2.0605,-2.0605,-2.0605,-2.0605,-2.0605,-2.0605,-2.0605,-2.0605,-2.0605,-2.0605,-2.0605,-2.0605,-2.0605,-2.0605,-2.0605,-2.0605,-2.0605,-2.0605,-2.0605,-2.0362,-2.0245,-2.0206,-1.9116,-1.9036,-2.9338,-2.9258,-2.9178,-2.9178,0.0,0.0,-2.8084,-2.7835,0.0,-2.5557,0.0,0.0,0.0,-2.3173,-2.3249,-2.3557,-2.3562,-2.3514,-2.3588,0.0,-2.3514,-2.3588,-2.3599,-2.3599,-2.3599,-2.3661,-2.3708,-2.3708,-2.3708,-2.3708,-2.3708,-2.3708,-2.3708,-2.3708,-2.3708,-2.3708,-2.3708,-2.3624,-2.4108,-2.5087,-2.4084,-2.3599,-2.3599,-2.3514,-2.3514,-2.3514,-2.3514,-2.2962,-2.2103,-2.2103,-2.1593,-2.0789,-2.0712,-2.0712,-2.0712,-2.0712,-2.0712,-2.0712,-2.0789,-2.075,-2.0712,-2.0712,-2.0644,-2.0605,-2.0673,-2.0634,-2.0605,-2.0673,-2.0712,-2.0712,-2.0712,-2.0634,-2.0605,-2.0605,-2.0605,-2.0605,-2.0605,-2.0605,-2.0605,-2.0605,-2.0605,-2.0605,-2.0605,-2.0605,-2.0605,-2.0605,-2.0605,-2.0605,-2.0605,-2.0605,-2.0605,-2.0605,-2.0605,-2.0605,-2.0605,-2.0605,-2.0605,-2.0605,-2.0605,-2.0605,-2.0605,-2.0605,-2.0605,-2.0605,-2.0605,-2.0605,-2.0605,-1.9599,-1.9116,-1.9085,-1.794,-1.7455,-2.721,-2.6804,-2.6392,-2.6392,0.0,0.0,0.0,0.0,-2.5761,-2.4761,-2.4283,0.0,0.0,0.0,-2.2088,-2.2515,-2.2075,-2.1897,-2.2478,-2.2075,-2.1897,-2.2515,-2.259,-2.259,-2.259,-2.3147,-2.3514,-2.3514,-2.3514,-2.3514,-2.3514,-2.3514,-2.3514,-2.3514,-2.3514,-2.3514,-2.3514,-2.2888,-2.2776,-2.3147,-2.2739,-2.259,-2.2553,-2.1962,-2.1718,-2.1718,-2.1718,-2.1489,-2.1116,-2.1116,-2.0934,-2.0605,-2.0605,-2.0605,-2.0605,-2.0605,-2.0605,-2.0605,-2.0605,-2.0605,-2.0605,-2.0605,-2.0605,-2.0605,-2.0605,-2.0605,-2.0605,-2.0605,-2.0605,-2.0605,-2.0605,-2.0605,-2.0605,-2.0605,-2.0605,-2.0605,-2.0605,-2.0605,-2.0605,-2.0605,-2.0605,-2.0605,-2.0605,-2.0605,-2.0605,-2.0605,-2.0605,-2.0605,-2.0605,-2.0605,-2.0605,-2.0605,-2.0605,-2.0605,-2.0605,-2.0605,-2.0605,-2.0605,-2.0605,-2.0605,-2.0605,-2.0605,-2.0284,-1.9599,-1.9599,-1.9274,-1.855,-1.8149,-1.7948,-1.7908,-1.6805,-1.6642,-2.4765,-2.4354,-2.3961,0.0,0.0,0.0,0.0,0.0,-2.434,-2.3709,-2.2842,0.0,0.0,0.0,0.0,0.0,-2.0911,-2.0818,-2.1479,-2.1011,-2.0828,-2.1479,-2.1555,-2.1555,-2.1555,-2.2188,-2.2601,-2.2601,-2.2601,-2.2601,-2.2601,-2.2601,-2.2601,-2.2601,-2.2601,-2.2601,-2.2601,-2.1886,-2.1555,-2.1555,-2.1555,-2.1555,-2.1555,-2.0895,-2.0605,-2.0605,-2.0605,-2.0605,-2.0605,-2.0605,-2.0605,-2.0605,-2.0605,-2.0605,-2.0605,-2.0605,-2.0605,-2.0605,-2.0605,-2.0605,-2.0605,-2.0605,-2.0605,-2.0527,-2.0206,-2.0323,-2.0527,-2.0196,-2.0323,-2.0605,-2.0605,-2.0605,-2.0605,-2.0605,-2.0605,-2.0605,-2.0605,-2.0605,-2.0605,-2.0605,-2.0605,-2.0605,-2.0605,-2.0605,-2.0605,-2.0605,-2.0605,-2.0605,-2.0605,-2.0605,-2.0479,-2.0118,-1.9756,-1.9559,-1.9559,-1.9559,-1.9559,-1.9559,-1.9559,-1.9717,-2.0079,-1.9756,-1.9195,-1.8479,-1.847,-1.8069,-1.7302,-1.6968,-1.6805,-1.6764,-1.5703,-1.5587,-2.187,-2.187,0.0,0.0,0.0,0.0,0.0,0.0,-2.3172,-2.2167,0.0,-1.9277,-1.9287,0.0,0.0,-1.9844,-2.0273,-2.0595,-2.0605,-2.0605,-2.0605,-2.0605,-2.0605,-2.0605,-2.0605,-2.0605,-2.0605,-2.0605,-2.0605,-2.0605,-2.0605,-2.0605,-2.0605,-2.0605,-2.0605,-2.0605,-2.0605,-2.0605,-2.0605,-2.0605,-2.0605,-2.0605,-2.0605,-2.0605,-2.0605,-2.0605,-2.0605,-2.0605,-2.0605,-2.0605,-2.0605,-2.0605,-2.0605,-2.0605,-2.0605,-2.0605,-2.0605,-2.0566,-2.0566,-2.0566,-2.0566,-2.0566,-2.0566,-2.0362,-1.9323,-1.9726,-2.0362,-1.9283,-1.9766,-2.0566,-2.0566,-2.0566,-2.0566,-2.0605,-2.0605,-2.0605,-2.0605,-2.0605,-2.0566,-2.0566,-2.0566,-2.0566,-2.0566,-2.0566,-2.0566,-2.0566,-2.0566,-2.0566,-2.0566,-2.0566,-2.0157,-1.9116,-1.798,-1.7302,-1.7302,-1.7302,-1.7302,-1.7302,-1.7293,-1.7787,-1.8957,-1.7908,-1.7302,-1.7302,-1.7302,-1.7302,-1.7261,-1.6191,-1.5696,-1.5662,-1.4573,-1.4088,-1.8444,0.0,0.0,-2.0042,0.0,0.0,0.0,-2.0691,0.0,0.0,-1.874,-1.8574,-1.918,0.0,0.0,-1.9795,-2.0019,-2.0215,-2.0556,-2.0605,-2.0605,-2.0605,-2.0605,-2.0605,-2.0605,-2.0605,-2.0605,-2.0605,-2.0605,-2.0605,-2.0605,-2.0605,-2.0605,-2.0605,-2.0605,-2.0605,-2.0605,-2.0605,-2.0605,-2.0605,-2.0605,-2.0605,-2.0605,-2.0605,-2.0605,-2.0605,-2.0605,-2.0605,-2.0605,-2.0605,-2.0605,-2.0605,-2.0605,-2.0605,-2.0605,-2.0605,-2.0118,-1.9481,-1.9481,-1.8957,-1.827,-1.827,-1.827,-1.823,-1.79,-1.802,-1.8221,-1.7908,-1.802,-1.827,-1.827,-1.827,-1.8669,-2.0235,-2.0605,-2.0605,-2.0605,-2.0001,-1.9481,-1.9481,-1.8829,-1.827,-1.827,-1.827,-1.827,-1.827,-1.827,-1.827,-1.827,-1.827,-1.8149,-1.7827,-1.7504,-1.7302,-1.7302,-1.7302,-1.7302,-1.7302,-1.6601,-1.6683,-1.7738,-1.7464,-1.6927,-1.6191,-1.6191,-1.5786,-1.5068,-1.4734,-1.4573,-1.4573,-1.425,-1.4088,-1.5816,0.0,0.0,-1.8069,-1.7496,-1.6774,-1.724,0.0,0.0,0.0,0.0,-1.7237,-1.7604,-1.7559,0.0,-1.8349,-1.8588,-1.8836,-1.921,-1.9274,-1.9471,-1.9923,-1.9962,-2.0118,-2.0566,-2.0605,-2.0605,-2.0605,-2.0605,-2.0605,-2.0605,-2.0605,-2.0605,-2.0605,-2.0605,-2.0401,-1.9962,-1.9962,-1.9756,-1.9274,-1.9274,-1.9274,-1.9313,-2.0196,-2.0362,-1.9923,-1.9471,-1.955,-1.9962,-1.9962,-1.9717,-1.9353,-1.9795,-1.9678,-1.9274,-1.9274,-1.8868,-1.831,-1.831,-1.7868,-1.7302,-1.7302,-1.7302,-1.7212,-1.6805,-1.6968,-1.7212,-1.6764,-1.6968,-1.7302,-1.7302,-1.7302,-1.7626,-1.8988,-1.9274,-1.9274,-1.9274,-1.8789,-1.831,-1.831,-1.7787,-1.7302,-1.7302,-1.7302,-1.7302,-1.7302,-1.7302,-1.7302,-1.7302,-1.6927,-1.6642,-1.6642,-1.6281,-1.6041,-1.6041,-1.6041,-1.6041,-1.6041,-1.5428,-1.5345,-1.6,-1.6041,-1.5711,-1.5095,-1.5054,-1.4734,-1.4088,-1.4088,-1.4088,-1.4088,-1.3603,-1.3379,-1.3765,0.0,0.0,-1.6715,-1.6265,0.0,-1.4833,-1.5662,-1.6452,-1.6059,0.0,-1.5615,-1.5256,-1.5499,-1.5831,-1.6112,-1.6553,-1.6934,-1.7235,-1.7277,-1.7658,-1.8718,-1.8838,-1.9234,-2.0196,-2.0284,-2.0284,-2.0284,-2.0284,-2.0284,-2.0284,-2.0284,-2.0284,-2.0284,-2.0284,-1.9835,-1.8838,-1.8838,-1.831,-1.7302,-1.7302,-1.7302,-1.7383,-1.9392,-1.9756,-1.8798,-1.7747,-1.7908,-1.8838,-1.8838,-1.823,-1.7415,-1.843,-1.823,-1.7302,-1.7302,-1.7261,-1.7131,-1.7131,-1.7098,-1.7017,-1.7017,-1.7017,-1.6813,-1.5869,-1.6232,-1.6813,-1.5827,-1.6281,-1.7017,-1.7017,-1.7017,-1.7017,-1.7017,-1.718,-1.7302,-1.7302,-1.7212,-1.7131,-1.7131,-1.709,-1.7017,-1.7017,-1.7017,-1.7017,-1.7017,-1.7017,-1.7017,-1.7017,-1.6157,-1.5538,-1.5538,-1.4692,-1.4088,-1.4088,-1.4088,-1.4088,-1.4088,-1.4088,-1.4088,-1.4088,-1.4088,-1.4088,-1.4088,-1.4088,-1.4039,-1.3955,-1.3955,-1.3864,-1.3737,-1.2681,-1.2157,-1.1909,-1.2826,0.0,0.0,-1.4532,-1.4282,-1.3933,-1.3921,-1.4027,-1.4215,-1.4824,-1.529,-1.5215,-1.5265,-1.5466,-1.5823,-1.6142,-1.6506,-1.6917,-1.7152,-1.7383,-1.7626,-1.7666,-1.7738,-1.798,-1.802,-1.802,-1.802,-1.802,-1.802,-1.802,-1.802,-1.802,-1.802,-1.802,-1.79,-1.7666,-1.7666,-1.7545,-1.7302,-1.7302,-1.7302,-1.7334,-1.7779,-1.7859,-1.7658,-1.7423,-1.7455,-1.7666,-1.7666,-1.7504,-1.7334,-1.7577,-1.7504,-1.7302,-1.7302,-1.6764,-1.6026,-1.6026,-1.5504,-1.4783,-1.4783,-1.4783,-1.4741,-1.4496,-1.4615,-1.4741,-1.4496,-1.4615,-1.4783,-1.4783,-1.4783,-1.4783,-1.4783,-1.6083,-1.7302,-1.7302,-1.6642,-1.6026,-1.6026,-1.5345,-1.4783,-1.4783,-1.4783,-1.4783,-1.4783,-1.4783,-1.4783,-1.4783,-1.458,-1.4454,-1.4454,-1.425,-1.4088,-1.4088,-1.4088,-1.4088,-1.4088,-1.4088,-1.4088,-1.4088,-1.4088,-1.4088,-1.4088,-1.4088,-1.3646,-1.2674,-1.2674,-1.2248,-1.1348,-1.1085,-1.095,-0.9178,0.0,0.0,-1.208,0.0,-1.2806,-1.2027,-1.242,-1.2891,-1.2402,-1.3106,-1.3803,-1.3803,-1.3803,-1.3944,-1.432,-1.4471,-1.4758,-1.5255,-1.5448,-1.5777,-1.6462,-1.6519,-1.6723,-1.7253,-1.7302,-1.7302,-1.7302,-1.7302,-1.7302,-1.7302,-1.7302,-1.7302,-1.7302,-1.7302,-1.705,-1.656,-1.6519,-1.6281,-1.576,-1.576,-1.576,-1.5801,-1.6322,-1.6805,-1.7261,-1.6206,-1.6075,-1.6519,-1.6519,-1.6239,-1.5835,-1.6322,-1.6239,-1.576,-1.576,-1.5428,-1.4936,-1.4936,-1.4573,-1.4088,-1.4088,-1.4088,-1.4088,-1.4088,-1.4088,-1.4088,-1.4088,-1.4088,-1.4088,-1.4088,-1.4088,-1.4088,-1.4088,-1.4943,-1.576,-1.576,-1.5345,-1.4936,-1.4936,-1.4489,-1.4088,-1.4088,-1.4088,-1.4088,-1.4088,-1.4088,-1.4088,-1.4088,-1.4088,-1.4088,-1.4088,-1.4088,-1.4088,-1.4088,-1.4088,-1.4088,-1.4088,-1.3555,-1.3245,-1.3245,-1.2693,-1.2693,-1.3245,-1.3245,-1.2638,-1.1509,-1.1509,-1.1166,-1.0611,-1.0053,-0.9792,-0.6424,0.0,-0.8831,-1.0255,-1.0995,0.0,-1.0111,-1.1123,-1.1923,-1.0767,-1.1471,-1.2305,-1.2305,-1.2305,-1.2385,-1.2663,-1.275,-1.2978,-1.3453,-1.3573,-1.407,-1.526,-1.5421,-1.5786,-1.665,-1.6731,-1.6731,-1.6731,-1.6731,-1.6731,-1.6731,-1.6731,-1.6731,-1.6731,-1.6731,-1.6322,-1.5413,-1.5421,-1.4977,-1.4088,-1.4088,-1.4088,-1.4124,-1.5019,-1.591,-1.665,-1.4859,-1.4615,-1.5421,-1.5421,-1.4894,-1.4173,-1.5095,-1.4894,-1.4088,-1.4088,-1.4088,-1.4088,-1.4088,-1.4088,-1.4088,-1.4088,-1.4088,-1.4088,-1.4088,-1.4088,-1.4088,-1.4088,-1.4088,-1.4088,-1.4088,-1.4088,-1.4088,-1.4088,-1.4088,-1.4088,-1.4088,-1.4088,-1.4088,-1.4088,-1.4088,-1.4088,-1.4088,-1.4088,-1.4088,-1.4088,-1.4088,-1.4088,-1.4088,-1.4088,-1.3997,-1.3822,-1.3779,-1.3688,-1.3519,-1.3519,-1.3519,-1.3519,-1.2553,-1.2029,-1.2029,-1.108,-1.0956,-1.1681,-1.1901,-1.1466,-1.0313,-1.0313,-1.0178,-0.9961,-0.9017,-0.8584,0.0,0.0,-0.7833,0.0,-0.9852,-0.9261,0.0,0.0,-0.9986,0.0,-1.0987,-1.2305,-1.2305,-1.2305,-1.2318,-1.2351,-1.2616,-1.2904,-1.322,-1.3447,-1.3795,-1.4258,-1.4328,-1.437,-1.4496,-1.4538,-1.4538,-1.4538,-1.4538,-1.4538,-1.4538,-1.4538,-1.4538,-1.4538,-1.4538,-1.4454,-1.4328,-1.4328,-1.425,-1.4088,-1.4088,-1.4088,-1.4088,-1.425,-1.437,-1.4496,-1.4208,-1.4166,-1.4328,-1.4328,-1.4208,-1.413,-1.425,-1.4208,-1.4088,-1.4088,-1.4088,-1.4088,-1.4088,-1.4088,-1.4088,-1.4088,-1.4088,-1.4088,-1.4088,-1.4088,-1.4088,-1.4088,-1.4088,-1.4088,-1.4088,-1.4088,-1.4088,-1.4088,-1.4088,-1.4088,-1.4088,-1.4088,-1.4088,-1.4088,-1.4088,-1.4088,-1.4088,-1.4088,-1.4088,-1.4088,-1.4088,-1.4088,-1.4088,-1.4088,-1.3688,-1.2632,-1.2547,-1.2157,-1.1128,-1.1085,-1.1085,-1.1085,-1.0913,-1.0826,-1.0826,-1.0697,-1.0226,-0.9362,-1.0308,-1.0269,-0.9148,-0.9148,-0.858,-0.7573,-0.7404,-0.736,-0.3515,-0.5247,-0.6536,0.0,-0.8534,-0.8346,-0.8139,0.0,-0.9297,-0.8599,-0.9593,-1.0608,-1.0608,-1.1552,-1.2114,-1.1545,-1.2063,-1.2665,-1.314,-1.332,-1.3574,-1.4035,-1.4088,-1.4088,-1.4088,-1.4088,-1.4088,-1.4088,-1.4088,-1.4088,-1.4088,-1.4088,-1.4088,-1.4088,-1.4088,-1.4088,-1.4088,-1.4088,-1.4088,-1.4088,-1.4088,-1.4088,-1.4088,-1.4088,-1.4088,-1.4088,-1.4088,-1.4088,-1.4088,-1.4088,-1.4088,-1.4088,-1.4088,-1.4088,-1.4088,-1.4088,-1.4088,-1.3997,-1.3336,-1.3069,-1.3069,-1.3069,-1.2644,-1.2254,-1.2899,-1.2644,-1.2126,-1.2126,-1.2601,-1.2942,-1.2303,-1.2601,-1.2942,-1.2297,-1.2126,-1.2126,-1.2126,-1.3173,-1.4088,-1.4088,-1.4088,-1.3913,-1.3203,-1.3069,-1.2857,-1.226,-1.2126,-1.2126,-1.2126,-1.2126,-1.1955,-1.1386,-1.1338,-1.1123,-1.0654,-1.0611,-1.0611,-1.0611,-1.0009,-0.9666,-0.9666,-0.9008,-0.84,-0.7885,-0.9056,-0.9056,-0.7885,-0.7885,-0.7621,-0.7095,-0.7095,-0.7095,0.0,0.0,-0.4816,-0.6248,-0.6963,-0.7248,0.0,0.0,-0.8313,0.0,-0.8237,-0.8841,-0.858,-1.0196,-1.1285,-1.0527,-1.1056,-1.1746,-1.2272,-1.2638,-1.3011,-1.3581,-1.3906,-1.4088,-1.4088,-1.4088,-1.4088,-1.4088,-1.4088,-1.4088,-1.4088,-1.4088,-1.4088,-1.4088,-1.4088,-1.4088,-1.4088,-1.4088,-1.4088,-1.4088,-1.4088,-1.4088,-1.4088,-1.3779,-1.3646,-1.3646,-1.3955,-1.4088,-1.4088,-1.3779,-1.3646,-1.3603,-1.33,-1.3215,-1.3215,-1.3215,-1.3215,-1.3082,-1.2163,-1.1858,-1.1858,-1.1858,-1.1295,-1.0783,-1.1595,-1.1252,-1.0611,-1.0611,-1.1209,-1.1681,-1.0826,-1.1209,-1.1638,-1.0783,-1.0611,-1.0611,-1.0611,-1.1997,-1.3215,-1.3215,-1.3215,-1.2905,-1.2029,-1.1858,-1.1595,-1.074,-1.0611,-1.0611,-1.0611,-1.0611,-1.0481,-1.0183,-1.0183,-1.0048,-0.9744,-0.9701,-0.9701,-0.9701,-0.8925,-0.8452,-0.8452,-0.7577,-0.7095,-0.7095,-0.7705,-0.7702,-0.7095,-0.7095,-0.6962,-0.665,-0.665,-0.6514,0.0,-0.1924,0.0,-0.4656,-0.5151,0.0,0.0,0.0,0.0,-0.6377,-0.7176,-0.7595,-0.6644,-0.8084,-0.9448,-0.9372,-0.941,-0.9602,-0.9998,-1.1043,-1.1933,-1.2354,-1.3379,-1.4088,-1.4088,-1.4088,-1.4088,-1.4088,-1.4088,-1.4088,-1.4088,-1.4088,-1.4088,-1.4088,-1.4088,-1.4088,-1.4088,-1.4088,-1.4088,-1.4088,-1.4088,-1.4088,-1.4046,-1.2942,-1.237,-1.2462,-1.3603,-1.4088,-1.3997,-1.2851,-1.237,-1.2285,-1.1214,-1.0783,-1.0783,-1.0783,-1.0783,-1.0783,-1.0697,-1.0697,-1.0697,-1.0697,-1.0654,-1.0611,-1.0654,-1.0654,-1.0611,-1.0611,-1.0654,-1.0654,-1.0611,-1.0654,-1.0654,-1.0611,-1.0611,-1.0611,-1.0611,-1.0697,-1.0783,-1.0783,-1.0783,-1.074,-1.0697,-1.0697,-1.0654,-1.0611,-1.0611,-1.0611,-1.0611,-1.0611,-1.0183,-0.9104,-0.8978,-0.854,-0.7356,-0.7268,-0.7268,-0.7268,-0.7228,-0.7183,-0.7183,-0.7139,-0.7095,-0.7095,-0.6115,-0.6068,-0.7095,-0.7095,-0.6561,-0.5492,-0.5492,-0.4865,0.0,0.0,0.0,-0.3741,-0.4002,-0.4163,-0.5249,-0.5365,-0.5473,-0.6141,-0.6606,-0.6718,-0.6377,-0.7936,-0.9074,-0.8428,-0.8952,-0.9521,-0.9857,-1.0397,-1.0861,-1.1171,-1.1606,-1.1869,-1.1869,-1.1869,-1.1869,-1.1869,-1.1869,-1.2169,-1.2899,-1.2942,-1.3294,-1.4088,-1.4088,-1.4088,-1.4088,-1.4088,-1.3688,-1.2942,-1.2942,-1.2553,-1.1826,-1.1429,-1.1209,-1.1214,-1.1649,-1.1869,-1.1826,-1.1386,-1.1209,-1.1166,-1.0783,-1.0611,-1.0611,-1.0611,-1.0611,-1.0481,-0.9753,-0.9492,-0.9492,-0.9492,-0.8969,-0.8488,-0.9274,-0.8969,-0.8356,-0.8356,-0.8925,-0.9318,-0.8575,-0.8925,-0.9318,-0.8532,-0.8356,-0.8356,-0.8356,-0.9527,-1.0611,-1.0611,-1.0611,-1.0351,-0.9623,-0.9492,-0.9231,-0.8488,-0.8356,-0.8356,-0.8356,-0.8356,-0.8185,-0.7797,-0.7753,-0.7577,-0.7139,-0.7095,-0.7095,-0.7095,-0.6425,-0.6027,-0.6027,-0.5265,-0.4861,-0.4861,-0.4461,-0.4819,-0.6027,-0.5218,-0.4639,-0.4239,-0.4239,-0.4016,0.0937,0.0,0.0,0.0,0.0,-0.3088,-0.4506,0.0,-0.5002,-0.6064,-0.63,-0.63,-0.63,-0.7403,-0.8089,-0.7403,-0.7969,-0.8586,-0.8783,-0.9312,-0.9776,-0.9986,-1.0351,-1.0611,-1.0611,-1.0611,-1.0611,-1.0611,-1.0611,0.0,-1.1681,-1.1724,-1.2291,-1.347,-1.3512,-1.3512,-1.3512,-1.3512,-1.2899,-1.1724,-1.1724,-1.1338,-1.0611,-1.0183,-1.0009,-1.0009,-0.9614,-0.9874,-1.0567,-1.0183,-1.0009,-1.0009,-0.957,-0.944,-0.944,-0.944,-0.944,-0.9309,-0.8536,-0.8277,-0.8277,-0.8277,-0.7753,-0.7272,-0.8061,-0.7753,-0.7095,-0.7095,-0.7665,-0.8105,-0.7316,-0.7709,-0.8105,-0.7272,-0.7095,-0.7095,-0.7095,-0.8313,-0.944,-0.944,-0.944,-0.9183,-0.8408,-0.8277,-0.8013,-0.7228,-0.7095,-0.7095,-0.7095,-0.7095,-0.7095,-0.7095,-0.6738,-0.6517,-0.6517,-0.6157,-0.5933,-0.5933,-0.522,-0.4776,-0.4776,-0.4016,-0.3614,-0.3614,-0.3213,-0.3395,-0.4198,-0.3794,-0.3392,-0.2992,-0.2992,-0.2769,0.0,0.0,0.0,0.0,0.0,0.0,-0.4164,0.0,-0.496,-0.6064,-0.63,-0.63,-0.63,-0.63,-0.63,-0.63,-0.6419,-0.6566,-0.6678,-0.7827,-0.8679,-0.8825,-0.9836,-1.0481,-1.0481,-1.0481,-1.0481,-1.0481,-1.0481,-1.0524,-1.0567,-1.0567,-1.1123,-1.22,-1.2237,-1.2237,-1.2237,-1.2237,-1.1681,-1.0567,-1.0567,-1.0524,-1.0481,-0.9362,-0.8846,-0.8803,-0.7621,-0.84,-1.0394,-0.9323,-0.8846,-0.8715,-0.7577,-0.7095,-0.7095,-0.7095,-0.7095,-0.7095,-0.7095,-0.7095,-0.7095,-0.7095,-0.7095,-0.7095,-0.7095,-0.7095,-0.7095,-0.7095,-0.7095,-0.7095,-0.7095,-0.7095,-0.7095,-0.7095,-0.7095,-0.7051,-0.7051,-0.7007,-0.7007,-0.7095,-0.7095,-0.7095,-0.7095,-0.7051,-0.7051,-0.7051,-0.7007,-0.7007,-0.7007,-0.7007,-0.7007,-0.7007,-0.6027,-0.5359,-0.5359,-0.4283,-0.3614,-0.3614,-0.357,-0.3525,-0.3525,-0.3525,-0.3481,-0.3481,-0.2325,-0.1746,-0.1746,-0.2903,-0.2903,-0.1746,-0.1746,-0.1121,0.3215,0.0,0.0,0.0,0.0,0.0,0.0,0.0,-0.4062,-0.5906,-0.63,-0.63,-0.63,-0.63,-0.63,-0.63,-0.6419,-0.6566,-0.6678,-0.7123,-0.7451,-0.7603,-0.7881,-0.8053,-0.8053,-0.8053,-0.8053,0.0,-0.8053,-0.8448,-0.9318,-1.0139,-1.074,-1.108,-1.108,-1.108,-1.108,-1.108,-1.0481,-0.9362,-0.9362,-0.8925,-0.8053,-0.7753,-0.7577,-0.7577,-0.7228,-0.7489,-0.8053,-0.7705,-0.7577,-0.7577,-0.7228,-0.7095,-0.7095,-0.7095,-0.7095,-0.7095,-0.7095,-0.7095,-0.7095,-0.7095,-0.7095,-0.7095,-0.7095,-0.7095,-0.7095,-0.7095,-0.7095,-0.7095,-0.7095,-0.7095,-0.7095,-0.7095,-0.647,-0.5891,-0.5891,-0.5176,-0.5082,-0.6782,-0.7095,-0.7095,-0.7095,-0.6428,-0.5891,-0.5891,-0.5132,-0.455,-0.455,-0.455,-0.455,-0.455,-0.4283,-0.4105,-0.4105,-0.3792,-0.3614,-0.3614,-0.2769,-0.228,-0.228,-0.1478,-0.0986,-0.0986,-0.0673,-0.0494,-0.0494,-0.0852,-0.0807,-0.0494,-0.0494,-0.0314,0.0,0.0,0.0,0.0,0.0,0.0,-0.2626,-0.3085,-0.3709,0.0,-0.63,-0.63,-0.63,-0.63,-0.63,-0.63,-0.6368,-0.6474,-0.6583,-0.6793,-0.6916,-0.6997,-0.7061,-0.7095,-0.7095,-0.7095,-0.7095,-0.7095,-0.7095,-0.7401,-0.8105,-0.8794,-0.9353,-0.9879,-0.9879,-0.9879,-0.9879,-0.9879,-0.9318,-0.8149,-0.8149,-0.7797,-0.7095,-0.7095,-0.7095,-0.7095,-0.7095,-0.7095,-0.7095,-0.7095,-0.7095,-0.7095,-0.7095,-0.7095,-0.7095,-0.7095,-0.7095,-0.7095,-0.7095,-0.7095,-0.7095,-0.7095,-0.7095,-0.7095,-0.7095,-0.6782,-0.6381,-0.6381,-0.6024,-0.562,-0.562,-0.562,-0.562,-0.562,-0.5129,-0.4641,-0.4641,-0.4105,-0.4014,-0.5351,-0.562,-0.562,-0.562,-0.5087,-0.4641,-0.4641,-0.4061,-0.3614,-0.3614,-0.3614,-0.3614,-0.3614,-0.317,-0.2858,-0.2858,-0.2369,-0.2102,-0.2102,-0.1433,-0.1031,-0.1031,-0.0359,0.0,0.0,0.0,0.0,0.0,0.0,0.0,0.0,0.0,0.0,0.0,0.0,0.0,0.0,0.0,0.0,-0.2617,-0.3007,-0.3593,0.0,-0.6222,-0.6141,-0.6141,-0.6222,-0.6261,-0.6141,-0.6219,-0.6351,-0.6494,-0.6705,-0.6849,-0.6883,-0.6997,-0.7078,-0.7095,-0.7095,-0.7095,-0.7095,-0.7095,-0.7095,-0.7095,-0.7095,-0.7577,-0.8671,-0.8715,-0.8715,-0.8715,-0.8715,-0.8145,-0.7095,-0.7095,-0.7095,-0.7095,-0.7095,-0.7095,-0.7095,-0.7095,-0.7095,-0.7095,-0.6962,-0.7007,-0.7095,-0.7095,-0.7095,-0.7095,-0.7095,-0.7007,-0.6918,-0.6918,-0.6827,-0.6691,-0.6691,-0.6691,-0.6691,-0.6691,-0.6024,-0.5179,-0.5179,-0.4419,-0.3614,-0.3614,-0.3614,-0.3614,-0.3614,-0.3481,-0.3392,-0.3392,-0.3303,-0.3213,-0.3213,-0.3436,-0.3614,-0.3614,-0.3481,-0.3392,-0.3392,-0.3303,-0.3213,-0.3213,-0.3213,-0.3213,-0.3213,-0.2236,-0.1612,-0.1612,-0.0628,0.0,0.0,0.0,0.0,0.0,0.0,0.0,0.0,0.0135,0.0225,0.0225,0.009,0.0,0.0,0.0135,0.0225,0.0,0.0,0.0,0.0,0.0,0.0,-0.2617,-0.2462,-0.2738,0.0,-0.5628,-0.5002,-0.5002,-0.5709,-0.6025,-0.5157,-0.5747,-0.6351,-0.6494,-0.6562,-0.6654,-0.6856,-0.691,-0.697,-0.7085,-0.7095,-0.7095,-0.7095,-0.7095,-0.7095,-0.7095,-0.7095,-0.7228,-0.7445,-0.7445,-0.7445,-0.7445,-0.7445,-0.7316,-0.7095,-0.7095,-0.7095,-0.7095,-0.7095,-0.7095,-0.7095,-0.7095,-0.7095,-0.7007,-0.6115,-0.6293,-0.7095,-0.7095,-0.7095,-0.7095,-0.7095,-0.6517,-0.5714,-0.5714,-0.5087,-0.4281,-0.4281,-0.4281,-0.4281,-0.4281,-0.415,-0.3972,-0.3972,-0.3792,-0.3614,-0.3614,-0.3614,-0.3614,-0.3614,-0.2858,-0.2147,-0.2147,-0.1389,-0.0718,-0.0718,-0.2281,-0.3614,-0.3614,-0.2814,-0.2147,-0.2147,-0.1344,-0.0718,-0.0718,-0.0718,-0.0718,-0.0718,-0.0494,-0.0359,-0.0359,-0.0135,0.0,0.0,0.0,0.0,0.0,0.0,0.0,0.0,0.0941,0.149,0.1607,0.0543,0.0,0.0045,0.1095,0.1608,0.0,0.0,0.0,0.0,0.0,0.0,0.0,-0.1957,-0.2192,-0.4258,-0.4256,-0.3904,-0.3904,-0.4334,-0.453,-0.3982,-0.4805,-0.5335,-0.4878,-0.5781,-0.6569,-0.6681,-0.677,-0.6871,-0.6977,-0.6991,-0.7021,-0.7092,-0.7095,-0.7095,-0.7095,-0.7095,-0.7095,-0.7095,-0.7095,-0.7095,-0.7095,-0.7095,-0.7095,-0.7095,-0.7095,-0.7095,-0.7095,-0.6517,-0.6248,-0.6204,-0.5622,-0.5351,-0.5307,-0.473,-0.4819,-0.5351,-0.5351,-0.5351,-0.5351,-0.5351,-0.4996,-0.4508,-0.4508,-0.4105,-0.3614,-0.3614,-0.3614,-0.3614,-0.3614,-0.317,-0.2592,-0.1969,-0.179,-0.179,-0.179,-0.179,-0.179,-0.179,-0.1344,-0.0897,-0.0897,-0.0449,0.0,0.0,-0.0986,-0.179,-0.179,-0.1299,-0.0897,-0.0897,-0.0404,0.0,0.0,0.0,0.0,0.0,0.0,0.0,0.0,0.0,0.0,0.0,0.0,0.0319,0.0956,0.1012,0.1294,0.1985,0.2583,0.292,0.2996,0.2319,0.1985,0.2033,0.2704,0.2996,0.0,0.0,0.0,0.0,0.0,-0.0275,0.0,0.0,0.0,-0.2851,-0.2929,0.0,0.0,0.0,0.0,0.0,0.0,0.0,0.0,-0.4681,0.0,-0.5901,-0.6169,-0.6434,-0.6606,-0.6605,-0.6753,-0.7085,-0.6915,-0.6874,-0.7095,-0.7095,-0.7095,-0.7095,-0.7095,-0.7095,-0.7095,-0.7095,-0.7007,-0.6782,-0.6782,-0.665,-0.6378,-0.5489,-0.5045,-0.5001,-0.4016,-0.3614,-0.357,-0.3349,-0.326,-0.326,-0.3525,-0.3614,-0.3614,-0.3614,-0.3436,-0.326,-0.326,-0.3081,-0.2903,-0.2903,-0.2903,-0.2903,-0.2903,-0.2236,-0.1254,-0.0269,0.0,0.0,0.0,0.0,0.0,0.0,0.0,0.0,0.0,0.0,0.0,0.0,0.0,0.0,0.0,0.0,0.0,0.0,0.0,0.0,0.0,0.0,0.0,0.0,0.0225,0.0359,0.0359,0.0585,0.0722,0.0722,0.0736,0.1254,0.2321,0.2406,0.29,0.3987,0.4224,0.4373,0.4391,0.4629,0.4476,0.3989,0.4241,0.4391,0.0,0.0,0.0,0.0,0.0,0.0,0.0,0.0,-0.0745,-0.2695,0.0,0.0,0.0,0.0,0.0,0.0,0.0,0.0,-0.3124,-0.3326,-0.3516,-0.3632,-0.4501,-0.5208,-0.5558,-0.5588,-0.6012,-0.7007,-0.616,-0.6027,-0.7051,-0.7095,-0.7095,-0.7095,-0.7095,-0.7095,-0.7095,-0.7095,-0.6605,-0.5581,-0.5581,-0.5043,-0.397,-0.3881,-0.3794,-0.3792,-0.3659,-0.3614,-0.3525,-0.2458,-0.2013,-0.2102,-0.317,-0.3614,-0.3614,-0.3614,-0.2903,-0.2013,-0.2013,-0.1299,-0.0404,-0.0404,-0.0404,-0.0404,-0.0404,-0.0314,-0.018,-0.0045,0.0,0.0,0.0,0.0,0.0,0.0,0.0,0.0,0.0,0.0,0.0,0.0,0.0,0.0,0.0,0.0,0.0,0.0,0.0,0.0,0.0,0.0,0.0,0.0,0.0941,0.1612,0.1612,0.2682,0.3351,0.3351,0.3463,0.3597,0.3786,0.3794,0.3847,0.3987,0.5074,0.5643,0.5792,0.6861,0.6221,0.4038,0.5216,0.5792,0.0,0.0,0.0,0.0,0.0,0.0,-0.0588,0.0,-0.0235,0.0,0.0,0.0,0.0,0.0,0.0,0.0,-0.1567,0.0,0.0,0.0,-0.2472,0.0,0.0,0.0,-0.4143,-0.4288,-0.454,-0.5036,-0.4641,-0.455,-0.5041,-0.5711,-0.6115,-0.6115,-0.6115,-0.6115,-0.6115,-0.5398,-0.4816,-0.4374,-0.4374,-0.4105,-0.357,-0.2858,-0.2547,-0.2503,-0.1835,-0.1522,-0.1478,-0.0986,-0.0763,-0.0807,-0.1299,-0.1522,-0.1522,-0.1522,-0.121,-0.0763,-0.0763,-0.0404,0.0,0.0,0.0,0.0,0.0,0.0,0.0,0.0,0.0,0.0,0.0,0.0,0.0,0.0,0.0,0.0,0.0,0.0539,0.1031,0.1031,0.1612,0.2102,0.2102,0.0942,0.0225,0.0942,0.1031,0.1299,0.2013,0.2102,0.2102,0.2102,0.262,0.2957,0.2957,0.3569,0.3937,0.3937,0.4678,0.5142,0.515,0.5889,0.6328,0.6328,0.6818,0.7091,0.715,0.7645,0.7367,0.6328,0.6874,0.715,0.0325,0.0,0.0,0.0,0.0,0.0,0.0,0.0,0.0,0.0,0.0,0.0,0.0,0.0,0.0,0.0,0.0,-0.0902,0.0,-0.0667,0.0,0.0,0.0,0.0,0.0,-0.3194,-0.3225,-0.3581,-0.3293,-0.326,-0.357,-0.4419,-0.491,-0.491,-0.491,-0.491,-0.491,-0.4016,-0.3436,-0.3126,-0.3126,-0.2948,-0.2592,-0.1701,-0.1299,-0.1254,-0.0359,0.0,0.0,0.0,0.0,0.0,0.0,0.0,0.0,0.0,0.0,0.0,0.0,0.0,0.0,0.0,0.0,0.0,0.0,0.0,0.0,0.0,0.0,0.009,0.0404,0.0494,0.0584,0.0897,0.0986,0.0986,0.0986,0.1656,0.2281,0.2281,0.2992,0.3614,0.3614,0.2147,0.1299,0.2147,0.2281,0.2592,0.3481,0.3614,0.3623,0.3643,0.4017,0.4292,0.436,0.4776,0.5034,0.5108,0.6009,0.6538,0.6528,0.7484,0.7988,0.7988,0.7988,0.7988,0.7988,0.7988,0.7988,0.7988,0.7988,0.7988,0.0,0.0,0.0,0.0,0.0,0.0,0.0,0.0,0.0,0.0,0.0,0.0,0.0,0.0,0.0,0.0,0.0,0.0,0.0,0.0,0.0,0.0,0.0,0.0,0.0,-0.2449,-0.234,-0.3512,-0.2521,-0.237,-0.3525,-0.3659,-0.3659,-0.3659,-0.3659,-0.3659,-0.3659,-0.3614,-0.2992,-0.1879,-0.1879,-0.1254,-0.0135,-0.009,-0.0045,-0.0045,0.0,0.0,0.0,0.0,0.0,0.0,0.0,0.0,0.0,0.0,0.0,0.0,0.0,0.0,0.0,0.0,0.0,0.0,0.0,0.0,0.0,0.0,0.0,0.0269,0.1433,0.1746,0.2057,0.3213,0.3481,0.3481,0.3481,0.3525,0.3525,0.3525,0.357,0.3614,0.3614,0.3525,0.3481,0.3525,0.3525,0.357,0.3614,0.3614,0.3643,0.3765,0.4835,0.5573,0.5722,0.6942,0.7719,0.7865,0.7928,0.7935,0.7939,0.7988,0.7988,0.7988,0.7988,0.7988,0.7988,0.7988,0.7988,0.7988,0.7988,0.7988,0.0,0.0,0.0,0.0,0.0,0.0,0.0,0.0,0.0,0.0,0.0,0.0,0.0,0.0,0.0,0.0,0.0,0.0,0.0,0.0,0.0,0.0,0.0,0.0,0.0,0.0,-0.077,-0.1172,-0.0842,-0.0807,-0.121,-0.1969,-0.2413,-0.2413,-0.2413,-0.2413,-0.2413,-0.1612,-0.1031,-0.0628,-0.0628,-0.0404,0.0,0.0,0.0,0.0,0.0,0.0,0.0,0.0,0.0,0.0,0.0,0.0,0.0,0.0,0.0,0.0,0.0,0.0,0.0,0.0,0.0539,0.121,0.121,0.1746,0.237,0.237,0.237,0.2458,0.2903,0.2992,0.3081,0.3481,0.3614,0.3614,0.3614,0.4241,0.4776,0.4776,0.5398,0.5933,0.5933,0.5933,0.5664,0.491,0.4776,0.5114,0.6003,0.6105,0.6153,0.6281,0.675,0.7057,0.7101,0.7628,0.7934,0.7985,0.7988,0.7988,0.7988,0.7988,0.7988,0.7988,0.7988,0.7988,0.7988,0.7988,0.7988,0.7988,0.7988,0.7988,0.0,0.0,0.0,0.0,0.0,0.0,0.0,0.0,0.0,0.0,0.0,0.0,0.0,0.0,0.0,0.0,0.0,0.0,0.0,0.0588,0.0,0.0,0.0,0.0,0.0,0.0,0.0,0.0,0.0,0.0,0.0,-0.0718,-0.1165,-0.1165,-0.1165,-0.1165,-0.1165,-0.0404,0.0,0.0,0.0,0.0,0.0,0.0,0.0,0.0,0.0,0.0,0.0,0.0,0.0,0.0045,0.0494,0.0628,0.0583,0.018,0.0269,0.0628,0.0628,0.0942,0.1299,0.1299,0.179,0.2458,0.2458,0.2992,0.3614,0.3614,0.3614,0.3703,0.415,0.4239,0.4328,0.4727,0.4861,0.4861,0.4861,0.5442,0.6027,0.6027,0.6605,0.7095,0.7095,0.7142,0.6933,0.6121,0.6064,0.6442,0.7265,0.7463,0.7509,0.7658,0.7756,0.7834,0.7889,0.7934,0.7988,0.7988,0.7988,0.7988,0.7988,0.7988,0.7965,0.7911,0.7961,0.7965,0.7911,0.7965,0.7988,0.7988,0.8482,0.8726]},{"header":{"parameterUnit":"m.s-1","parameterCategory":1,"la1":30.6,"la2":29.2853,"lo1":-89.7004,"lo2":-87.6739,"dy":0.0162,"dx":0.0183,"nx":112,"ny":82,"refTime":"2023-09-14T18:00:00:Z","depth":0,"parameterNumber":3,"parameterNumberName":"V-component_of_WINDS"},"data":[0.0,0.0,0.0,0.0,0.0,0.0,0.0,0.0,0.0,0.0,0.0,0.0,0.0,0.0,0.0,0.0,0.0,0.0,0.0,0.0,0.0,0.0,0.0,0.0,0.0,0.0,0.0,0.0,0.0,0.0,0.0,0.0,0.0,0.0,0.0,0.0,0.0,0.0,0.0,0.0,0.0,0.0,0.0,0.0,0.0,0.0,0.0,0.0,0.0,0.0,0.0,0.0,0.0,0.0,0.0,0.0,0.0,0.0,0.0,0.0,0.0,0.0,0.0,0.0,0.0,0.0,0.0,0.0,0.0,0.0,0.0,0.0,0.0,0.0,0.0,0.0,0.0,0.0,0.0,0.0,0.0,0.0,0.0,0.0,0.0,0.0,0.0,0.0,0.0,0.0,0.7169,0.722,0.6379,0.6086,0.6829,0.7593,0.803,0.7996,0.0,0.0,0.0,0.0,0.0,0.0,0.0,0.0,0.0,0.0,0.0,0.0,0.0,0.0,0.0,0.0,0.0,0.0,0.0,0.0,0.0,0.0,0.0,0.0,0.0,0.0,0.0,0.0,0.0,0.0,0.0,0.0,0.0,0.0,0.0,0.0,0.0,0.0,0.0,0.0,0.0,0.0,0.0,0.0,0.0,0.0,0.0,0.0,0.0,0.0,0.0,0.0,0.0,0.0,0.0,0.0,0.0,0.0,0.0,0.0,0.0,0.0,0.0,0.0,0.0,0.0,0.0,0.0,0.0,0.0,0.0,0.0,0.0,0.0,0.0,0.0,0.0,0.0,0.0,0.0,0.0,0.0,0.0,0.0,0.0,0.0,0.0,0.0,0.0,0.0,0.0,0.0,0.0,0.0,0.0,0.0,0.0,0.0,0.0,0.0,0.0,0.0,0.0,0.0,0.7078,0.6169,0.5921,0.5835,0.5979,0.6769,0.7215,0.7116,0.0,0.0,0.0,0.0,0.0,0.0,0.0,0.0,0.0,0.0,0.0,0.0,0.0,0.0,0.0,0.0,0.0,0.0,0.0,0.0,0.0,0.0,0.0,0.0,0.0,0.0,0.0,0.0,0.0,0.0,0.0,0.0,0.0,0.0,0.0,0.0,0.0,0.0,0.0,0.0,0.0,0.0,0.0,0.0,0.0,0.0,0.0,0.0,0.0,0.0,0.0,0.0,0.0,0.0,0.0,0.0,0.0,0.0,0.0,0.0,0.0,0.0,0.0,0.0,0.0,0.0,0.0,0.0,0.0,0.0,0.0,0.0,0.0,0.0,0.0,0.0,0.0,0.0,0.0,0.0,0.0,0.0,0.0,0.0,0.0,0.0,0.0,0.0,0.0,0.0,0.0,0.0,0.0,0.0,0.0,0.0,0.0,0.0,0.0,0.0,0.0,0.0,0.0,0.709,0.6651,0.6132,0.6088,0.6088,0.6088,0.6772,0.6969,0.6431,0.8581,0.0,0.0,0.0,0.0,0.0,0.0,0.0,0.0,0.0,0.0,0.0,0.0,0.0,0.0,0.0,0.0,0.0,0.0,0.0,0.0,0.0,0.0,0.0,0.0,0.0,0.0,0.0,0.0,0.0,0.0,0.0,0.0,0.0,0.0,0.0,0.0,0.0,0.0,0.0,0.0,0.0,0.0,0.0,0.0,0.0,0.0,0.0,0.0,0.0,0.0,0.0,0.0,0.0,0.0,0.0,0.0,0.0,0.0,0.0,0.0,0.0,0.0,0.0,0.0,0.0,0.0,0.0,0.0,0.0,0.0,0.0,0.0,0.0,0.0,0.0,0.0,0.0,0.0,0.0,0.0,0.0,0.0,0.0,0.0,0.0,0.0,0.0,0.0,0.0,0.0,0.0,0.0,0.0,0.0,0.0,0.0,0.0,0.0,0.0,0.0,0.0,0.0,0.63,0.63,0.63,0.63,0.63,0.63,0.6783,0.6764,0.603,0.7055,0.0,0.0,0.0,0.0,0.0,0.0,0.0,0.0,0.0,0.0,0.0,0.0,0.0,0.0,0.0,0.0,0.0,0.0,0.0,0.0,0.0,0.0,0.0,0.0,0.0,0.0,0.0,0.0,0.0,0.0,0.0,0.0,0.0,0.0,0.0,0.0,0.0,0.0,0.0,0.0,0.0,0.0,0.0,0.0,0.0,0.0,0.0,0.0,0.0,0.0,0.0,0.0,0.0,0.0,0.0,0.0,0.0,0.0,0.0,0.0,0.0,0.0,0.0,0.0,0.0,0.0,0.0,0.0,0.0,0.0,0.0,0.0,0.0,0.0,0.0,0.0,0.0,0.0,0.0,0.0,0.0,0.0,0.0,0.0,0.0,0.0,0.0,0.0,0.0,0.0,0.0,0.0,0.0,0.0,0.0,0.0,0.0,0.0,0.0,0.0,0.0,0.0,0.63,0.63,0.63,0.63,0.63,0.63,0.6328,0.6256,0.6,0.6084,0.0,0.0,0.0,0.0,0.0,0.0,0.0,0.0,0.0,0.0,0.0,0.0,0.0,0.0,0.0,0.0,0.0,0.0,0.0,0.0,0.0,0.0,0.0,0.0,0.0,0.0,0.0,0.0,0.0,0.0,0.0,0.0,0.0,0.0,0.0,0.0,0.0,0.0,0.0,0.0,0.0,0.0,0.0,0.0,0.0,0.0,0.0,0.0,0.0,0.0,0.0,0.0,0.0,0.0,0.0,0.0,0.0,0.0,0.0,0.0,0.0,0.0,0.0,0.0,0.0,0.0,0.0,0.0,0.0,0.0,0.0,0.0,0.0,0.0,0.0,0.0,0.0,0.0,0.0,0.0,0.0,0.0,0.0,0.0,0.0,0.0,0.0,0.0,0.0,0.0,0.0,0.0,0.0,0.0,0.0,0.0,0.0,0.0,0.0,0.0,0.0,0.0,0.6834,0.6984,0.0,0.63,0.63,0.63,0.63,0.6276,0.6176,0.0,0.0,0.0,0.0,0.0,0.0,0.0,0.0,0.0,0.0,0.0,0.0,0.0,0.0,0.0,0.0,0.0,0.0,0.0,0.0,0.0,0.0,0.0,0.0,0.0,0.0,0.0,0.0,0.0,0.0,0.0,0.0,0.0,0.0,0.0,0.0,0.0,0.0,0.0,0.0,0.0,0.0,0.0,0.0,0.0,0.0,0.0,0.0,0.0,0.0,0.0,0.0,0.0,0.0,0.0,0.0,0.0,0.0,0.0,0.0,0.0,0.0,0.0,0.0,0.0,0.0,0.0,0.0,0.0,0.0,0.0,0.0,0.0,0.0,0.0,0.0,0.0,0.0,0.0,0.0,0.0,0.0,0.0,0.0,0.0,0.0,0.0,0.0,0.0,0.0,0.0,0.0,0.0,0.0,0.0,0.0,0.0,0.0,0.0,0.0,0.0,0.0,0.6567,0.7176,0.7403,0.0,0.63,0.63,0.63,0.6606,0.6795,0.6795,0.0,0.0,0.0,0.0,0.0,0.0,0.0,0.0,0.0,0.0,0.0,0.0,0.0,0.0,0.0,0.0,0.0,0.0,0.0,0.0,0.0,0.0,0.0,0.0,0.0,0.0,0.0,0.0,0.0,0.0,0.0,0.0,0.0,0.0,0.0,0.0,0.0,0.0,0.0,0.0,0.0,0.0,0.0,0.0,0.0,0.0,0.0,0.0,0.0,0.0,0.0,0.0,0.0,0.0,0.0,0.0,0.0,0.0,0.0,0.0,0.0,0.0,0.0,0.0,0.0,0.0,0.0,0.0,0.0,0.0,0.0,0.0,0.0,0.0,0.0,0.0,0.0,0.0,0.0,0.0,0.0,0.0,0.0,0.0,0.0,0.0,0.0,0.0,0.0,0.0,0.0,0.0,0.0,0.0,0.0,0.0,0.0,0.0,0.0,0.0,0.0,0.0,0.6567,0.7215,0.7442,0.6412,0.63,0.63,0.63,0.7211,0.7783,0.0,0.0,0.0,0.0,0.0,0.0,0.0,0.0,0.0,0.0,0.0,0.0,0.0,0.0,0.0,0.0,0.0,0.0,0.0,0.0,0.0,0.0,0.0,0.0,0.0,0.0,0.0,0.0,0.0,0.0,0.0,0.0,0.0,0.0,0.0,0.0,0.0,0.0,0.0,0.0,0.0,0.0,0.0,0.0,0.0,0.0,0.0,0.0,0.0,0.0,0.0,0.0,0.0,0.0,0.0,0.0,0.0,0.0,0.0,0.0,0.0,0.0,0.0,0.0,0.0,0.0,0.0,0.0,0.0,0.0,0.0,0.0,0.0,0.0,0.0,0.0,0.0,0.0,0.0,0.0,0.0,0.0,0.0,0.0,0.0,0.0,0.0,0.0,0.0,0.0,0.0,0.0,0.0,0.0,0.0,0.0,0.0,0.0,0.0,0.0,0.0,0.0,0.0,0.7706,0.8237,0.8199,0.649,0.63,0.63,0.63,0.7211,0.748,0.6795,0.0,0.0,0.0,0.0,0.0,0.0,0.0,0.0,0.0,0.0,0.0,0.0,0.0,0.0,0.0,0.0,0.0,0.0,0.0,0.0,0.0,0.0,0.0,0.0,0.0,0.0,0.0,0.0,0.0,0.0,0.0,0.0,0.0,0.0,0.0,0.0,0.0,0.0,0.0,0.0,0.0,0.0,0.0,0.0,0.0,0.0,0.0,0.0,0.0,0.0,0.0,0.0,0.0,0.0,0.0,0.0,0.0,0.0,0.0,0.0,0.0,0.0,0.0,0.0,0.0,0.0,0.0,0.0,0.0,0.0,0.0,0.0,0.0,0.0,0.0,0.0,0.0,0.0,0.0,0.0,0.0,0.0,0.0,0.0,0.0,0.0,0.0,0.0,0.0,0.0,0.0,0.0,0.0,0.0,0.0,0.0,0.0,0.0,0.0,0.0,0.0,0.0,0.8199,0.9026,0.914,0.7099,0.7249,0.748,0.748,0.8423,0.8723,0.8114,0.0,0.0,0.0,0.0,0.0,0.0,0.0,0.0,0.0,0.0,0.0,0.0,0.0,0.0,0.0,0.0,0.0,0.0,0.0,0.0,0.0,0.0,0.0,0.0,0.0,0.0,0.0,0.0,0.0,0.0,0.0,0.0,0.0,0.0,0.0,0.0,0.0,0.0,0.0,0.0,0.0,0.0,0.0,0.0,0.0,0.0,0.0,0.0,0.0,0.0,0.0,0.0,0.0,0.0,0.0,0.0,0.0,0.0,0.0,0.0,0.0,0.0,0.0,0.0,0.0,0.0,0.0,0.0,0.0,0.0,0.0,0.0,0.0,0.0,0.0,0.0,0.0,0.0,0.0,0.0,0.0,0.0,0.0,0.0,0.0,0.0,0.0,0.0,0.0,0.0,0.0,0.0,0.0,0.0,0.0,0.0,0.0,0.0,0.0,0.0,0.0,0.0,0.8309,0.9626,1.0072,0.8161,0.877,0.9296,0.9296,1.0228,1.0746,1.0671,0.0,0.0,0.0,0.0,0.0,0.0,0.0,0.0,0.0,0.0,0.0,0.0,0.0,0.0,0.0,0.0,0.0,0.0,0.0,0.0,0.0,0.0,0.0,0.0,0.0,0.0,0.0,0.0,0.0,0.0,0.0,0.0,0.0,0.0,0.0,0.0,0.0,0.0,0.0,0.0,0.0,0.0,0.0,0.0,0.0,0.0,0.0,0.0,0.0,0.0,0.0,0.0,0.0,0.0,0.0,0.0,0.0,0.0,0.0,0.0,0.9746,0.0,0.0,0.0,0.0,0.0,0.0,0.0,0.0,0.0,0.0,0.0,0.0,0.0,0.0,0.0,0.0,0.0,0.0,0.0,0.0,0.0,0.0,0.0,0.0,0.0,0.0,0.0,0.0,0.0,0.0,0.0,0.0,0.0,0.0,0.0,0.0,0.0,0.0,0.0,0.0,0.0,0.9258,1.004,1.034,0.9107,0.9183,0.9296,0.9296,1.0228,1.0447,0.9669,1.1323,0.0,0.0,0.0,0.0,0.0,0.0,0.0,0.0,0.0,0.0,0.0,0.0,0.0,0.0,0.0,0.0,0.0,0.0,0.0,0.0,0.0,0.0,0.0,0.0,0.0,0.0,0.0,0.0,0.0,0.0,0.0,0.0,0.0,0.0,0.0,0.0,0.0,0.0,0.0,0.0,0.0,0.0,0.0,0.0,0.0,0.0,0.0,0.0,0.0,0.0,0.0,0.0,0.0,0.0,0.0,0.0,0.0,0.0,0.0,0.0,0.9947,0.0,0.0,0.0,0.0,0.0,0.0,0.0,0.0,0.0,0.0,0.0,0.0,0.0,0.0,0.0,0.0,0.0,0.0,0.0,0.0,0.0,0.0,0.0,0.0,0.0,0.0,0.0,0.0,0.0,0.0,0.0,0.0,0.0,0.0,0.0,0.0,0.0,0.0,0.0,0.0,1.0228,1.0907,1.113,1.0121,1.0458,1.0726,1.0726,1.1205,1.1316,1.0763,1.1737,0.0,0.0,0.0,0.0,0.0,0.0,0.0,0.0,0.0,0.0,0.0,0.0,0.0,0.0,0.0,0.0,0.0,0.0,0.0,0.0,0.0,0.0,0.0,0.0,0.0,0.0,0.0,0.0,0.0,0.0,0.0,0.0,0.0,0.0,0.0,0.0,0.0,0.0,0.0,0.0,0.0,0.0,0.0,0.0,0.0,0.0,0.0,0.0,0.0,0.0,0.0,0.0,0.0,1.1129,1.1112,1.1214,1.1214,1.1729,1.2547,1.1601,1.1601,1.2242,1.1295,0.0,0.0,0.0,0.0,0.0,0.0,0.0,0.0,0.0,0.0,0.0,0.0,0.0,0.0,0.0,0.0,0.0,0.0,0.0,0.0,0.0,0.0,0.0,0.0,1.6289,1.707,1.7828,0.0,0.0,0.0,0.0,0.0,0.0,0.0,0.0,0.0,0.0,0.0,1.0938,1.1694,1.1996,1.1162,1.1805,1.2305,1.2305,1.2305,1.2305,1.2305,1.2305,1.2305,0.0,0.0,0.0,0.0,0.0,0.0,0.0,0.0,0.0,0.0,0.0,0.0,0.0,0.0,0.0,0.0,0.0,0.0,0.0,0.0,0.0,0.0,0.0,0.0,0.0,0.0,0.0,0.0,0.0,0.0,0.0,0.0,1.5482,1.5234,0.0,0.0,0.0,0.0,0.0,0.0,0.0,0.0,0.0,0.0,0.0,0.0,0.0,1.5422,1.622,1.5534,1.5131,1.5002,1.4079,1.3613,1.3652,1.3652,1.3737,1.3864,1.3695,0.0,1.2279,1.2157,0.0,0.0,0.0,0.0,0.0,0.0,0.0,0.0,0.0,0.0,0.0,0.0,0.0,0.0,0.0,0.0,0.0,0.0,0.0,0.0,0.0,0.0,1.8094,1.7718,1.7725,1.7862,0.0,1.6724,1.5517,1.5234,1.5199,0.0,0.0,0.0,0.0,0.0,0.0,0.0,1.0938,1.1694,1.2261,1.2114,1.2224,1.2305,1.2305,1.2305,1.2305,1.2305,1.2305,1.2305,1.2305,1.2305,0.0,0.0,0.0,0.0,0.0,0.0,0.0,0.0,0.0,0.0,0.0,0.0,0.0,0.0,0.0,0.0,0.0,0.0,0.0,0.0,0.0,0.0,0.0,0.0,0.0,0.0,0.0,0.0,0.0,1.5516,1.4712,1.4639,1.444,1.4072,0.0,0.0,0.0,0.0,0.0,0.0,0.0,0.0,0.0,1.4402,1.5135,1.5764,1.6202,1.6481,1.6601,1.6601,1.5504,1.5019,1.4977,1.437,1.4412,1.4977,1.437,1.4146,1.4141,1.3578,1.2735,1.1783,0.0,0.0,0.0,0.0,1.1552,1.1729,1.2899,1.3698,1.4308,1.4838,0.0,0.0,0.0,0.0,0.0,0.0,0.0,0.0,0.0,0.0,1.8123,1.8292,1.8149,1.8008,1.8008,1.7364,1.662,0.0,1.5552,1.4879,1.3882,0.0,0.0,0.0,0.0,1.215,1.1694,1.2033,1.2305,1.2305,1.2305,1.2305,1.2305,1.2305,1.2305,1.2305,1.2305,1.2305,1.2305,1.2305,1.2732,0.0,0.0,0.0,0.0,0.0,0.0,0.0,0.0,0.0,0.0,0.0,0.0,0.0,0.0,0.0,0.0,0.0,0.0,0.0,0.0,0.0,0.0,0.0,0.0,0.0,0.0,0.0,0.0,1.6359,1.5514,1.5148,1.5141,1.4756,0.0,0.0,0.0,0.0,0.0,0.0,1.4973,1.4988,1.4981,1.4936,1.5711,1.6232,1.6552,1.705,1.7302,1.7302,1.6191,1.582,1.6067,1.5019,1.4936,1.5662,1.4573,1.4531,1.522,1.4412,1.3913,1.3561,1.2984,1.2589,1.2328,1.2632,1.2766,1.2899,1.3779,1.4615,1.5296,1.5296,1.6034,1.6887,1.6887,0.0,0.0,0.0,0.0,1.7894,1.8538,1.8496,1.8332,1.8547,1.8364,1.8144,1.8037,1.7794,1.7501,0.0,1.6402,1.5517,1.4314,0.0,0.0,0.0,0.0,1.2305,1.2305,1.2305,1.2305,1.2305,1.2305,1.2305,1.2305,1.2305,1.2305,1.2305,1.2305,1.2305,1.2305,1.2519,1.3091,1.4063,0.0,0.0,0.0,0.0,0.0,0.0,0.0,0.0,0.0,0.0,0.0,0.0,0.0,0.0,0.0,0.0,0.0,0.0,0.0,0.0,0.0,0.0,0.0,0.0,0.0,0.0,0.0,0.0,0.0,1.7637,1.6682,0.0,0.0,0.0,0.0,1.3661,1.3964,1.4132,1.4146,1.4146,1.5088,1.709,1.7172,1.7738,1.8838,1.7827,1.7302,1.7302,1.6191,1.6232,1.7172,1.6108,1.5662,1.5662,1.4573,1.4124,1.4166,1.413,1.3421,1.2504,1.3597,1.3294,1.2456,1.3597,1.3997,1.3997,1.4088,1.413,1.4166,1.4166,1.4894,1.5779,1.5779,1.6478,0.0,0.0,1.8917,1.9064,1.9678,1.9817,1.9594,1.8802,1.8588,1.8461,1.8096,1.7285,1.6922,0.0,1.7906,1.726,1.5446,0.0,1.4486,1.2586,1.2305,1.2305,1.2305,1.2305,1.2305,1.2305,1.2305,1.2305,1.2305,1.2305,1.2305,1.2305,1.2305,1.2305,1.2305,1.3164,1.4099,1.5092,1.6,0.0,0.0,0.0,0.0,0.0,0.0,0.0,0.0,0.0,0.0,0.0,0.0,0.0,0.0,0.0,0.0,0.0,0.0,0.0,0.0,0.0,0.0,0.0,0.0,0.0,0.0,0.0,0.0,1.5283,1.5538,0.0,1.4364,1.4069,1.4206,1.4882,1.5072,1.5137,1.5137,1.5137,1.5179,1.5228,1.6568,1.7504,1.7908,1.9169,1.9798,1.9798,1.8994,1.8645,1.8749,1.7681,1.7433,1.777,1.665,1.6568,1.722,1.6445,1.5081,1.3512,1.3913,1.3822,1.3591,1.472,1.5137,1.522,1.5918,1.665,1.7374,1.806,1.8541,1.8859,1.8859,1.9107,1.9511,1.9923,2.004,2.009,2.0294,2.0127,1.9775,1.9199,1.8812,1.849,1.8105,1.7759,1.7613,1.794,1.701,1.5983,1.5305,1.4665,1.3774,1.2519,1.2305,1.2305,1.2305,1.2305,1.2305,1.2305,1.2305,1.2305,1.2305,1.2305,1.2305,1.2305,1.2879,1.32,1.32,1.4135,1.5128,1.607,1.6428,1.707,0.0,0.0,0.0,0.0,0.0,0.0,0.0,0.0,0.0,0.0,0.0,0.0,0.0,0.0,0.0,0.0,0.0,0.0,0.0,0.0,0.0,0.0,0.0,0.0,0.0,0.0,1.7319,1.5105,1.5658,1.567,1.425,1.4088,1.4412,1.5095,1.5179,1.5179,1.5179,1.5238,1.5337,1.5394,1.6893,1.7863,1.8275,1.9993,2.0847,2.0847,2.0421,2.0245,2.0337,1.9243,1.89,1.9155,1.8014,1.7857,1.835,1.7617,1.6445,1.5144,1.4776,1.4412,1.4208,1.5296,1.5696,1.5861,1.6927,1.7787,1.855,1.9274,1.9756,2.004,2.004,2.0323,2.0605,2.0605,2.0605,2.0605,2.0605,2.0352,2.0029,1.96,1.917,1.8705,1.8276,1.8115,1.8008,1.8008,1.701,1.6044,1.5728,1.4879,1.3882,1.2915,1.2519,1.2305,1.2305,1.2305,1.2305,1.2305,1.2305,1.2305,1.2305,1.2305,1.2445,1.2732,1.3346,1.3854,1.4207,1.5155,1.5965,1.6602,1.6922,1.7398,1.8008,0.0,0.0,0.0,0.0,0.0,0.0,0.0,0.0,0.0,0.0,0.0,0.0,0.0,0.0,0.0,0.0,0.0,0.0,0.0,0.0,0.0,0.0,0.0,2.0557,2.0527,1.9678,1.7496,1.722,1.6363,1.4292,1.4088,1.4088,1.4088,1.4137,1.4186,1.4186,1.4419,1.5627,1.7903,1.8234,1.8965,2.0111,2.0214,2.0265,2.0265,2.0274,2.0848,2.1863,2.0796,2.0047,1.9593,1.8554,1.7846,1.744,1.7423,1.7374,1.7253,1.6191,1.5095,1.4334,1.5421,1.582,1.5985,1.705,1.7415,1.7415,1.7415,1.8149,1.9045,1.9045,1.9766,2.0605,2.0605,2.0605,2.0605,2.0605,2.0605,2.0488,2.0019,1.96,1.9189,1.8695,1.8286,1.8027,1.8008,1.8008,1.7681,1.674,1.5825,1.4843,1.3854,1.2915,0.0,1.2305,1.2305,1.2305,1.2305,1.2305,1.2305,1.2305,1.2305,1.2703,1.3637,1.3745,1.4207,1.5199,1.6149,1.6636,1.6636,1.7545,1.8008,1.8008,0.0,0.0,0.0,0.0,0.0,0.0,0.0,0.0,0.0,0.0,0.0,0.0,0.0,0.0,0.0,0.0,0.0,0.0,0.0,0.0,0.0,0.0,2.0323,1.9559,1.8749,1.7698,1.6314,1.547,1.4741,1.4166,1.4088,1.4088,1.4088,1.5099,1.5681,1.5681,1.5987,1.6461,1.7105,1.797,1.8544,1.8879,2.0854,2.1882,2.1891,2.2145,2.2317,2.2334,2.2019,2.1662,2.1208,2.0608,2.0248,2.0117,1.9799,1.9234,1.843,1.7293,1.6683,1.6568,1.7698,1.8581,1.9304,1.959,1.9678,1.9678,1.9678,1.9913,2.0157,2.0157,2.0362,2.0605,2.0605,2.0605,2.0605,2.0605,2.0605,2.0488,2.0019,1.9824,1.9541,1.8754,1.851,1.8344,1.8066,1.8008,1.7681,1.674,1.5825,1.4843,1.3854,1.3491,0.0,1.2372,1.2305,1.2305,1.2305,1.2305,1.2305,1.2305,1.2305,1.2703,1.3637,1.4378,1.5234,1.6175,1.7113,1.7613,1.7613,1.7872,1.8008,0.0,0.0,0.0,0.0,0.0,0.0,0.0,0.0,0.0,0.0,0.0,0.0,0.0,0.0,0.0,0.0,0.0,0.0,0.0,0.0,0.0,0.0,2.0605,2.0362,1.9766,1.9107,1.8101,1.656,1.5835,1.511,1.4173,1.4195,1.4269,1.4269,1.521,1.5763,1.5763,1.6529,1.7232,1.7762,1.8954,1.9878,2.0366,2.193,2.273,2.274,2.2984,2.2974,2.273,2.273,2.2549,2.2139,2.1885,2.1629,2.1475,2.1025,2.0484,0.0,0.0,0.0,0.0,0.0,1.9678,2.0605,2.0605,2.0605,2.0605,2.0605,2.0605,2.0605,2.0605,2.0605,2.0605,2.0605,2.0605,2.0605,2.0605,2.0605,2.0537,2.0244,2.0049,1.9738,1.9241,1.8861,1.8529,1.8286,1.8135,0.0,1.7285,1.6393,1.5438,1.4494,1.4314,1.3991,1.3025,1.3237,1.352,1.352,1.352,1.3346,1.2915,1.2879,0.0,0.0,0.0,1.5799,1.7139,1.7716,0.0,0.0,0.0,1.8178,1.8563,1.9044,0.0,0.0,2.091,2.1459,0.0,0.0,0.0,0.0,0.0,0.0,0.0,0.0,0.0,0.0,0.0,0.0,0.0,0.0,0.0,0.0,2.0605,2.0605,2.0605,2.0605,1.9795,1.7577,1.7302,1.6542,1.4537,1.4534,1.4696,1.4781,1.5059,1.5318,1.5452,0.0,0.0,0.0,0.0,2.18,2.2906,2.3047,2.3091,2.3091,2.3091,2.3091,2.3091,2.3091,2.2896,2.2578,2.2539,2.2305,2.1924,2.1484,2.1239,2.1071,1.9727,1.855,1.7779,1.8798,1.9766,2.0605,2.0605,0.0,0.0,2.0605,2.0605,2.0605,2.0605,2.0605,2.0605,2.0605,2.0605,2.0605,2.0605,2.0605,2.0605,2.0605,2.0273,1.9971,1.9922,1.9241,1.8656,1.8617,1.8301,1.8008,1.8008,1.732,1.6393,1.5376,1.5199,1.4843,1.3818,1.4494,1.5057,1.5199,0.0,0.0,1.3962,1.3882,1.3918,1.4027,1.495,1.6263,1.794,1.8008,1.8008,1.8008,1.8008,1.8428,1.9299,1.9299,2.0139,2.1721,2.0268,2.0462,0.0,0.0,0.0,0.0,0.0,0.0,0.0,0.0,0.0,0.0,0.0,0.0,0.0,0.0,0.0,2.0605,2.0605,2.0605,2.0605,2.0605,1.9795,1.7577,1.7302,1.6917,1.5985,1.5811,1.5957,1.6352,1.6625,1.7206,1.8241,1.8786,1.9607,2.082,2.1167,2.1426,2.1667,2.2633,2.3091,2.3091,0.0,0.0,2.3091,2.3091,2.3052,2.2955,2.2656,2.2471,2.2353,2.1934,2.1553,2.1151,2.0536,2.0157,2.0001,2.0196,2.0401,2.0605,2.0605,2.0605,2.0605,2.0605,2.0605,2.0605,2.0605,2.0605,0.0,2.0605,2.0605,2.0605,2.0605,2.0605,2.0605,2.0605,2.0537,2.038,1.999,1.9521,1.9053,1.8666,1.8301,1.8008,1.8008,1.7862,1.7148,1.5446,1.5199,1.4843,1.3818,1.3882,1.4314,1.5128,1.5199,1.5128,1.4914,1.4914,1.5226,1.6,1.6932,1.7623,1.7974,1.8008,1.8008,1.8008,1.8008,1.8428,1.9299,1.9299,1.9814,2.0846,2.1239,2.1939,0.0,0.0,0.0,0.0,0.0,0.0,0.0,0.0,0.0,0.0,0.0,2.0605,0.0,0.0,2.0605,2.0605,2.0605,2.0605,2.0605,2.0605,2.0001,1.835,1.7666,1.7023,1.6272,1.5828,1.5928,1.6936,1.7274,1.8009,1.9224,1.9977,2.0666,2.1293,2.1889,2.2217,2.2217,2.2818,2.3091,2.3091,2.3091,2.3091,2.3091,2.3091,2.3091,2.3081,2.2877,2.2779,2.275,2.2373,2.1816,2.1171,2.0986,2.0762,2.0605,2.0605,2.0605,2.0605,2.0605,2.0605,2.0605,2.0605,2.0605,2.0605,2.0605,2.0605,2.0605,2.0605,2.0605,2.0605,2.0605,2.0934,2.1183,2.0712,2.0972,2.1094,2.0398,1.9902,1.9473,1.9043,1.8613,1.8252,1.8047,1.8008,1.751,1.6114,1.6298,1.6263,1.5296,1.5552,1.6053,1.655,1.6585,1.6402,1.593,1.5473,1.5587,1.6532,1.7035,1.7501,1.7974,1.8008,1.8008,1.8008,1.8008,1.8428,1.9299,1.9299,1.9977,2.127,2.169,2.2137,0.0,0.0,0.0,0.0,0.0,0.0,0.0,0.0,1.8718,1.8957,1.9835,2.0605,2.0605,2.0605,2.0605,2.0605,2.0605,2.0605,2.0605,2.0605,2.0284,1.9402,1.851,1.7663,1.695,1.6359,1.6543,1.7891,1.8018,1.8596,1.9807,2.0755,2.1426,2.1658,2.2589,2.3091,2.3091,2.3091,2.3091,2.3091,2.3091,2.3091,2.3091,2.3091,2.3091,2.3091,2.3091,2.3091,2.3062,2.2685,2.2109,2.1434,2.1356,2.1084,2.0723,2.0635,2.0605,2.0605,2.0605,2.0605,2.0605,2.0605,2.0605,2.0605,2.0605,2.0605,2.0605,2.0605,2.0712,2.0828,2.0644,2.1298,2.1773,2.0818,2.1193,2.1517,2.075,2.0225,1.9785,1.9365,1.8936,1.8471,1.8086,1.8008,1.7681,1.674,1.7242,1.7467,1.6706,1.7251,1.7794,1.7974,1.8008,1.7681,1.6922,1.6184,1.6088,1.6819,1.6888,1.7217,1.7974,1.8008,1.8008,1.8008,1.8168,1.8687,1.9562,1.9726,2.0623,2.2137,2.2137,2.2137,0.4779,0.7126,0.9192,1.0481,1.1638,1.3038,0.0,0.0,1.7787,1.8798,1.9835,2.0605,2.0605,2.0605,2.0605,2.0605,2.0605,2.0605,2.0605,2.0605,2.0566,2.044,2.0323,2.0097,1.9766,1.9577,1.9817,2.0766,1.9872,1.9807,2.1025,2.1248,2.18,2.2862,2.3047,2.3091,2.3091,2.3091,2.3091,2.3091,2.3091,2.3091,2.3091,2.3091,2.3091,2.3091,2.3091,2.3091,2.3062,2.2685,2.2451,2.2334,2.1953,2.1543,2.1073,2.0752,2.0605,2.0605,2.0605,2.0605,2.0605,2.0605,2.0605,2.0605,2.0605,2.0605,2.0605,2.0605,2.1193,2.1669,2.0828,2.1298,2.1773,2.0818,2.0673,2.0712,2.0644,2.0225,1.9785,1.9365,1.8936,1.8471,1.8086,1.8008,1.7681,1.674,1.6706,1.6706,1.6593,1.6706,1.707,1.7906,1.8008,1.7974,1.7862,1.7759,1.7725,1.7828,1.7828,1.7906,1.8008,1.8008,1.8008,1.8008,1.8754,1.9584,2.0462,2.1227,2.2063,2.2975,2.2975,2.2975,0.4732,0.6599,0.8273,1.0135,1.095,1.1938,1.4258,1.6075,1.7423,1.7908,1.9392,2.0605,2.0605,2.0605,2.0605,0.0,2.0605,2.0605,2.0605,2.0605,2.0605,2.0605,2.0791,2.0438,1.9169,1.8399,1.8353,1.9165,1.9405,2.0034,2.1248,2.1987,2.2589,2.3091,2.3091,2.3091,2.3091,2.3091,2.3091,2.3091,2.3091,2.3091,2.3091,2.3091,2.3091,2.3091,2.3091,2.3091,2.3081,2.2906,2.2691,2.249,2.2314,2.1836,2.1171,2.1025,2.0791,2.0605,2.0605,2.0605,2.0605,2.0605,2.0605,2.0605,2.0605,2.0605,2.0605,2.0605,2.0895,2.1231,2.1375,2.2151,2.2627,2.1631,2.1859,2.2113,2.1555,2.0823,2.0277,2.0195,1.9553,1.8799,1.8125,1.8008,1.7872,1.7467,1.7398,1.7398,1.7398,1.7398,1.7579,1.7974,1.8008,1.8008,1.8008,1.8008,1.8008,1.8008,1.8008,1.8008,1.8008,1.8008,1.8008,1.8008,1.8361,1.8721,1.9077,1.9944,2.0994,2.2115,2.2614,2.3311,0.4332,0.5755,0.0,0.9527,1.0351,1.1128,1.3124,1.5538,1.7302,1.7302,1.9067,2.0605,2.0605,2.0605,2.0605,2.0605,2.0605,2.0605,2.0605,2.0605,2.0605,2.0605,2.0967,2.0555,1.8854,1.8411,1.8511,1.9144,1.9997,2.0854,2.1756,2.2633,2.3091,2.3091,2.3091,2.3091,2.3091,2.3091,2.3091,2.3091,2.3091,2.3091,2.3091,2.3091,2.3091,2.3091,2.3091,2.3091,2.3091,2.3091,2.2916,2.2685,2.2685,2.2194,2.1531,2.1414,2.1055,2.0605,2.0605,2.0605,2.0605,2.0605,2.0605,2.0605,2.0605,2.0605,2.0634,2.0895,2.1193,2.1565,2.2253,2.3147,2.3661,2.2664,2.2962,2.322,2.2215,2.1479,2.0895,2.0596,2.0072,1.933,1.8345,1.8281,1.8269,1.8042,1.8008,1.8008,1.8008,1.8008,1.8008,1.8008,1.8008,1.8008,1.8008,1.8008,1.8008,1.8008,1.8008,1.8008,1.8008,1.8008,1.8008,1.8008,1.8354,1.8676,1.8937,1.9915,2.1074,2.2329,2.2973,2.3891,0.3303,0.4552,0.6021,0.836,0.9792,1.0913,1.2072,1.4913,1.7302,1.7302,1.9067,2.0605,2.0605,2.0605,2.0605,2.0605,2.0605,2.0605,2.0605,2.0605,2.0605,2.0605,2.0967,2.089,0.0,2.1405,2.2494,2.2921,2.296,2.3003,2.3047,2.3091,2.3091,2.3091,2.3091,2.3091,2.3091,2.3091,2.3091,2.3091,2.3091,2.3091,2.3091,2.3091,2.3091,2.3091,2.3091,2.3091,2.3091,2.3091,2.3091,2.3081,2.3081,2.2808,2.2422,2.2012,2.1349,2.0605,2.0605,2.0605,2.0605,2.0605,2.0605,2.0605,2.0605,2.0605,2.0789,2.1697,2.2664,2.3415,2.3452,2.4192,2.4707,2.3697,2.3478,2.322,2.2215,2.2,2.1563,2.0197,2.0265,2.0138,1.8797,1.8971,1.8977,1.8144,1.8008,1.8008,1.8008,1.8008,1.8008,1.8008,1.8008,1.8008,1.8008,1.8008,1.8008,1.8008,1.8008,1.8008,1.8008,1.8008,1.8008,1.8008,1.9206,2.0324,2.1296,2.2551,2.3697,2.4698,2.473,2.5039,0.228,0.3885,0.5753,0.7325,0.9161,1.0907,1.2029,1.4872,1.7302,1.7302,1.9067,2.0605,2.0605,2.0605,2.0605,2.0605,2.0605,2.0605,2.0605,2.0605,2.0713,2.0977,2.1396,0.0,0.0,0.0,0.0,2.0738,2.1445,2.1889,2.1889,2.2677,2.3091,2.3091,2.3091,2.3091,2.3091,2.3091,2.3091,2.3091,2.3091,2.3091,2.3091,2.3091,2.3091,2.3091,2.3091,2.3091,2.3091,2.3091,2.3091,2.3178,2.392,2.3987,2.3701,2.4275,2.3892,2.283,2.1188,2.1011,2.1517,2.1517,2.1962,2.2526,2.2526,2.2075,2.1745,2.2702,2.2776,2.2813,2.4156,2.4755,2.4898,2.4564,2.4492,2.4409,2.4072,2.2925,2.2142,2.27,2.1634,2.0562,2.0465,2.0292,2.0074,1.9759,1.8754,1.8008,1.8008,1.8008,1.8008,1.8008,1.8008,1.8008,1.8008,1.8008,1.8008,1.8008,1.8008,1.8135,1.8383,1.9031,1.9541,1.985,2.0868,2.1596,2.1947,2.294,2.3802,2.4487,2.5046,2.5636,0.17,0.3261,0.5041,0.6225,0.8547,1.0778,1.1509,1.4288,1.6846,1.7212,1.8749,2.0167,2.0527,2.0605,2.0605,2.0605,2.0605,2.0605,2.0605,2.0605,2.0732,2.1142,2.1621,2.2051,0.0,0.0,0.0,2.0845,2.1489,2.1933,2.1933,2.2677,2.3091,2.3091,2.3091,2.3091,2.3091,2.3091,2.3091,2.3091,2.3091,2.3091,2.3091,2.3091,2.3091,2.3091,2.3091,2.3091,2.3091,2.3091,2.3091,2.3222,2.4329,2.4651,2.4544,2.5477,2.5256,2.4292,2.2524,2.2174,2.2553,2.2553,2.2962,2.3514,2.3514,2.3036,2.2739,2.3745,2.3551,2.3441,2.5111,2.5558,2.5558,2.5558,2.5558,2.5441,2.5075,2.3963,2.3267,2.3873,2.2705,2.1568,2.1599,2.106,2.059,2.059,1.9661,1.8921,1.8921,1.8664,1.8462,1.8462,1.8202,1.8144,1.8428,1.8462,1.8691,1.9181,1.9215,1.9421,1.9864,2.0498,2.0993,2.1296,2.2064,2.2627,2.296,2.3694,2.44,2.5103,2.5651,2.6135,0.1388,0.2637,0.3881,0.5001,0.7986,1.0611,1.0611,1.3237,1.5985,1.709,1.823,1.9323,2.0401,2.0605,2.0605,2.0605,2.0605,2.0605,2.0605,2.0625,2.0762,0.0,0.0,0.0,0.0,0.0,0.0,2.3091,0.0,2.3091,2.3091,2.3091,2.3091,2.3091,2.3091,2.3091,2.3091,2.3091,2.3091,2.3091,2.3178,2.3178,2.3178,2.3266,2.3256,2.3256,2.3256,2.3256,2.3256,2.3256,2.3256,2.3387,2.4542,2.4957,2.5062,2.5732,2.5639,2.5081,2.4645,2.41,2.3599,2.3599,2.3624,2.3661,2.3661,2.3635,2.3781,2.4779,2.504,2.5229,2.6245,2.6499,2.6499,2.6499,2.6499,2.6245,2.53,2.504,2.4743,2.3818,2.3503,2.3099,2.2253,2.1317,2.0687,2.0719,2.0687,2.0655,2.059,1.9879,1.9365,1.9365,1.863,1.8462,1.9299,1.9386,1.9985,2.1329,2.1419,2.1677,2.2207,2.2263,2.2309,2.2343,2.2841,2.3525,2.4426,2.486,2.5581,2.6499,2.6499,2.6499,0.0359,0.2013,0.3659,0.3972,0.7355,1.0611,1.0611,1.3237,1.5985,1.709,1.823,1.9323,2.0401,2.0605,2.0605,2.0605,2.0605,0.0,2.0605,2.0859,0.0,2.167,0.0,2.2519,2.2896,2.3033,0.0,0.0,2.3091,2.3091,2.3091,2.3091,2.3091,2.3091,2.3091,2.3091,2.3091,2.3091,2.3091,2.3091,2.3963,2.4382,2.4425,2.5263,2.5641,2.5641,2.5641,2.5641,2.5641,2.5641,2.5641,2.5724,2.6819,2.7267,2.7377,2.8385,2.8154,2.7299,2.7164,2.6021,2.4636,2.4636,2.5099,2.5721,2.5721,2.5217,2.4814,2.5838,2.5594,2.5229,2.6245,2.6499,2.6499,2.6499,2.6499,2.6418,2.6164,2.5511,2.5158,2.5652,2.5034,2.4205,2.3594,2.2412,2.1772,2.2372,2.1959,2.1333,2.0687,2.0398,2.0268,2.0268,2.0074,2.0042,2.0236,2.0632,2.1019,2.1385,2.1767,2.2195,2.2701,2.3398,2.3931,2.4272,2.5128,2.5699,2.594,2.6055,2.6233,2.6499,2.6499,2.6499,0.0,0.1745,0.3614,0.3614,0.7132,1.0611,1.0611,1.3237,1.5985,1.709,1.823,1.9323,2.0401,2.0605,2.0605,0.0,0.0,0.0,2.0605,2.0947,2.1356,0.0,2.2256,0.0,2.3052,2.3091,2.3091,0.0,2.3091,2.3091,2.3091,2.3091,2.3091,2.3091,2.3091,2.3091,2.3091,2.3594,2.3844,2.3877,2.501,2.5546,2.5588,2.6224,2.6524,2.6524,0.0,2.6524,2.6524,2.6524,2.6524,2.6595,2.7683,2.8096,2.8255,2.9365,2.9076,2.8109,2.8109,2.7047,2.5664,2.5664,2.6025,2.6499,2.6499,2.6094,2.5769,2.6349,2.6094,2.5804,2.6349,2.6499,2.6499,2.6499,2.6499,2.6499,2.6499,2.606,2.573,2.6058,2.5398,2.4612,2.4092,2.3133,2.2567,2.3035,2.2732,2.2249,2.1772,2.1385,2.1175,2.1175,2.105,2.111,2.1498,2.2003,2.2583,2.3205,2.3522,2.3925,2.4459,2.5004,2.5404,2.5652,2.6198,2.6499,2.6499,2.6499,2.6499,2.6499,2.6499,2.6499,0.018,0.1879,0.3659,0.3792,0.7267,1.0611,1.0611,1.3237,1.5985,1.709,1.823,1.9323,2.0401,2.0605,2.0644,2.0789,0.0,2.0789,2.0789,2.1135,2.1508,2.1877,2.2256,2.2676,2.3052,2.3266,2.3343,2.3343,2.3343,2.3266,2.3091,2.3091,2.3178,2.3299,2.3343,2.3387,2.356,2.4542,2.5041,2.5041,2.6171,2.6719,2.6719,2.6894,2.6935,2.6935,2.6935,2.6935,2.6935,2.6935,2.6935,2.7017,2.7936,2.8347,2.8438,2.9456,2.9076,2.8109,2.8109,2.7381,2.6499,2.6499,2.6499,2.6499,2.6499,2.6499,2.6499,2.6499,2.6499,2.6499,2.6499,2.6499,2.6499,2.6499,2.6499,2.6499,2.6499,2.6499,2.6348,2.5812,2.5285,2.4757,2.4205,2.3597,2.3195,2.3108,2.3108,2.3108,2.3108,2.2476,2.2063,2.2063,2.1882,2.2055,2.2791,2.3439,2.4314,2.5528,2.5674,2.5971,2.6474,2.6499,2.6499,2.6499,2.6499,2.6499,2.6499,2.6499,2.6499,2.6499,2.6499,2.6555,0.121,0.2503,0.3838,0.4821,0.7851,1.0611,1.0611,1.3237,0.0,1.709,1.823,1.9323,2.0401,2.0605,2.0857,2.1621,2.1773,2.1773,2.1773,2.2139,2.2298,0.0,2.2256,2.2676,2.3052,2.3963,0.0,0.0,2.45,2.4082,2.3135,2.3091,2.3507,2.4457,2.45,2.4967,2.5891,2.6099,2.6224,2.6224,2.7279,2.7804,2.7844,2.8791,2.9209,2.9209,2.9209,0.0,2.9209,2.9209,2.9209,2.926,2.9417,2.9495,2.9534,2.9714,2.9076,2.8109,2.8109,2.7381,2.6499,2.6499,2.6499,2.6499,2.6499,2.6499,2.6499,2.6499,2.6499,2.6499,2.6499,2.6499,2.6499,2.6499,2.6499,2.6499,2.6499,2.6499,2.6461,2.6361,2.5883,2.5297,2.4738,2.4217,2.369,2.3183,2.3108,2.3108,2.3108,2.2975,2.2884,2.2884,2.3288,2.359,2.376,2.4656,2.5353,2.5586,2.6084,2.6386,2.6499,2.6499,2.6499,2.6499,2.6499,2.6499,2.6499,2.6499,2.6499,2.6499,2.6499,2.685,0.1478,0.2681,0.3881,0.509,0.803,1.0611,1.0611,0.0,0.0,1.7172,1.8669,2.0001,2.0527,2.1001,0.0,2.1924,2.244,2.2776,2.2776,2.3188,0.0,2.3511,2.3883,2.4294,0.0,2.5347,2.5672,2.5672,2.5672,2.5431,2.4893,2.4851,2.5105,2.5672,2.5672,2.5933,2.6472,2.7035,2.7331,2.7371,2.845,2.8976,2.8988,2.9534,2.9792,2.9792,2.9792,2.9792,2.9792,2.9792,2.9792,2.9792,2.9792,2.9792,2.9754,2.9453,2.8812,2.8059,2.777,2.7178,2.6499,2.6499,2.6499,2.6499,2.6499,2.6499,2.6499,2.6499,2.6499,2.6499,2.6499,2.6499,2.6499,2.6499,2.6499,2.6499,2.6499,2.6499,2.6499,2.6499,2.6021,2.5523,2.5272,2.4782,2.423,2.3634,2.359,2.3446,2.3145,2.3358,2.359,2.359,2.4092,2.4544,2.4808,2.5573,2.6084,2.6084,2.6336,2.6499,2.6499,2.6499,2.6499,2.6499,2.6499,2.6499,2.6499,2.6905,2.7129,2.7129,2.7571,2.8019,0.179,0.2858,0.3927,0.5401,0.8209,1.0649,1.0892,1.4261,0.0,1.7617,1.9234,2.0605,2.0605,2.1375,2.2065,0.0,2.3184,2.3818,2.3818,2.4158,2.4487,0.0,2.5223,0.0,2.6259,2.661,0.0,2.6842,2.7058,2.7017,2.6524,2.6524,2.6595,2.6842,2.6842,2.6964,2.718,2.8028,2.8466,2.8466,2.9365,2.9792,2.9792,2.9792,2.9792,2.9792,2.9792,2.9792,2.9792,2.9792,2.9792,2.9792,2.9792,2.9792,2.9729,2.9101,2.8549,2.8021,2.7469,2.6952,2.6499,2.6499,2.6499,2.6499,2.6499,2.6499,2.6521,2.6714,2.6624,2.6521,2.6714,2.6624,2.6499,2.6499,2.6624,2.6714,2.6521,2.6499,2.6499,2.6499,2.6122,2.5737,2.5611,2.5259,2.4808,2.4255,2.4167,2.4004,2.3534,2.3891,2.4217,2.433,2.4732,2.5146,2.5561,2.616,2.6499,2.6499,2.6499,2.6499,2.6499,2.6499,2.6499,2.6499,2.6499,2.6499,2.6499,2.7317,2.7703,2.7736,2.8588,2.9097,0.2815,0.3525,0.4148,0.6381,0.879,1.0854,1.1827,0.0,1.7577,1.863,1.9766,2.0605,2.0605,2.1375,2.2291,0.0,0.0,2.4862,0.0,2.4897,0.0,0.0,0.0,0.0,0.0,2.7042,0.0,2.7964,2.891,2.8633,2.6607,2.6524,2.6964,2.7924,2.7964,2.8438,2.9507,2.9585,2.9624,2.9624,2.9753,2.9792,2.9792,2.9792,2.9792,2.9792,2.9792,2.9792,0.0,2.9792,2.9792,2.9792,2.9792,2.9792,2.9729,2.9101,2.8549,2.8021,2.7469,2.6952,2.6499,2.6499,2.6499,2.6499,2.6499,2.6499,2.6658,2.7384,2.7074,2.6692,2.7384,2.704,2.6499,2.6499,2.7074,2.7384,2.6658,2.6499,2.6499,2.6499,2.6449,2.6248,2.5686,2.5548,2.5347,2.482,2.4713,2.47,2.4637,2.4675,2.4888,2.5398,2.5498,2.5548,2.5598,2.616,2.6499,2.6499,2.6499,2.6499,2.6499,2.6499,2.6499,2.6499,2.6499,2.6499,2.6499,2.7317,2.7703,2.7736,2.8588,2.9411,0.3126,0.415,0.5262,0.7614,0.9401,1.1069,1.2862,0.0,1.7626,1.8758,2.0314,2.1441,2.1441,2.2739,2.3927,0.0,0.0,0.0,2.5908,0.0,0.0,0.0,2.6538,0.0,0.0,0.0,2.9106,2.9106,2.9534,2.9417,2.8542,2.8502,2.8661,2.9106,2.9106,2.9326,2.9792,2.9792,2.9792,2.9792,2.9792,2.9792,2.9792,2.9792,2.9792,2.9792,2.9792,2.9792,0.0,2.9792,2.9792,2.9792,2.9792,2.9897,2.9902,2.881,2.8373,2.8199,2.7164,2.7007,2.7229,2.7229,2.7571,2.7835,2.6816,2.685,2.7284,2.7604,2.7855,2.8084,2.8395,2.8247,2.7986,2.7986,2.8247,2.8247,2.7384,2.7229,2.7229,2.7229,2.7229,2.7306,2.7601,2.7658,2.7279,2.6213,2.6071,2.5775,2.4922,2.5096,2.536,2.5573,2.5598,2.5737,2.6122,2.6361,2.6499,2.6499,2.6499,2.6499,2.6499,2.6499,2.6499,2.6499,2.6499,2.6748,2.7229,2.8084,2.8748,2.9286,3.0103,3.0673,0.3794,0.4732,0.5977,0.8317,1.0,1.169,0.0,0.0,1.8221,1.961,2.0989,2.2103,2.2403,2.3854,2.5004,0.0,0.0,2.6499,2.6499,0.0,0.0,0.0,0.0,2.826,0.0,2.9352,2.9792,2.9792,2.9792,2.9792,2.9792,2.9792,2.9792,2.9792,2.9792,2.9792,2.9792,2.9792,2.9792,2.9792,2.9792,2.9792,2.9792,2.9792,2.9792,2.983,3.0113,3.0216,0.0,3.0495,3.0505,3.0312,3.0312,3.0307,3.0193,2.9015,2.873,2.8745,2.76,2.7604,2.8084,2.8084,2.8492,2.878,2.7604,2.7637,2.8149,2.8395,2.8907,2.9317,2.9066,2.9192,2.9317,2.9066,2.9192,2.916,2.8266,2.8084,2.8084,2.8084,2.8084,2.8266,2.8907,2.9002,2.8661,2.765,2.7533,2.7163,2.6174,2.6362,2.6595,2.6595,2.6595,2.6677,2.6845,2.7095,2.7229,2.7229,2.7229,2.7229,2.7229,2.7229,2.7229,2.7229,2.7229,2.7517,2.8084,2.8971,2.969,3.0329,3.1117,3.1511,0.5045,0.5403,0.5977,0.8317,1.057,1.2777,0.0,1.7349,1.9541,2.1573,2.1989,2.2291,2.3294,2.4301,2.5004,2.5004,0.0,0.0,2.6499,2.6499,0.0,0.0,0.0,2.8109,2.8109,2.9126,2.9792,2.9792,2.9792,0.0,2.9792,2.9792,2.9792,2.9792,2.9792,2.9792,2.9792,2.9792,2.9792,2.9792,2.9792,2.9792,2.9792,2.9792,2.9792,2.9856,3.0758,3.118,0.0,3.2177,3.2177,3.1571,3.1571,3.1165,3.0541,2.997,2.9769,2.9719,2.9146,2.8971,2.9002,2.9002,2.9002,2.9002,2.8971,2.8971,2.916,3.0042,3.0269,3.0072,2.9223,2.9628,3.0072,2.9223,2.9659,3.0042,2.916,2.9002,2.9002,2.9002,2.9002,2.9002,2.9002,2.9002,2.9002,2.8989,2.8989,2.8989,2.8957,2.8957,2.8957,2.8957,2.8957,2.862,2.7769,2.8492,2.8971,2.8971,2.8971,2.8971,2.8971,2.8971,2.8971,2.8971,2.8971,2.8971,2.9002,2.9858,3.0299,3.0329,3.1117,3.1511,0.6269,0.7156,0.8519,1.1599,1.291,1.424,1.7227,1.8964,2.0343,2.1714,2.311,2.4156,2.4456,2.5358,2.6025,2.6025,2.628,0.0,0.0,0.0,0.0,2.6499,2.7431,2.8247,0.0,0.0,2.9792,2.9792,2.9792,2.9792,2.9792,2.9792,2.9792,2.9792,2.9792,2.9792,2.9792,2.9792,2.9792,2.9792,2.9792,3.0139,3.0758,3.0758,3.1119,3.1719,3.2033,3.191,3.1493,3.1775,3.1523,3.0918,3.0918,3.0915,3.0845,3.0067,2.9959,3.0021,2.9261,2.938,2.9889,2.9889,3.0269,3.0703,3.0703,3.0329,3.0042,3.0896,3.1117,3.1058,3.0777,3.0896,3.1058,3.0777,3.0925,3.0896,3.0072,2.9889,2.9889,2.9889,2.9889,3.0042,3.0614,3.0703,3.0524,2.9981,2.9889,2.9659,2.9097,2.9002,2.9002,2.9002,2.9535,2.9535,2.8652,2.8844,2.9002,2.9002,2.9002,2.9002,2.9002,2.9002,2.9002,2.9002,2.9002,2.9286,2.9889,3.0178,3.0584,3.1117,3.138,3.1511,0.0,0.8991,1.026,1.326,1.4302,0.0,0.0,2.0304,2.1418,2.284,2.412,2.5123,2.5488,2.6311,2.6939,2.6939,2.7229,0.0,0.0,0.0,0.0,2.7704,0.0,0.0,0.0,2.9677,2.9872,2.9504,2.9986,3.0177,2.983,2.9792,2.9972,3.0317,2.996,2.9792,2.9792,3.0139,3.0317,3.0317,3.0671,3.1156,3.1742,3.1742,3.1911,3.2226,3.2626,3.2414,0.0,3.2174,3.1919,3.1318,3.1318,3.1298,3.118,3.0628,3.0569,3.0673,3.0133,3.0299,3.0748,3.0748,3.1087,3.1511,3.1511,3.1161,3.0866,3.1351,3.1511,3.1511,3.1511,3.1511,3.1511,3.1511,3.1511,3.1351,3.0866,3.0748,3.0748,3.0748,3.0748,3.0896,3.1409,3.1511,3.1322,3.0837,3.0748,3.0554,3.0011,2.995,2.995,2.995,3.0419,3.0524,2.9981,2.995,2.995,2.995,2.995,2.995,2.995,2.995,2.995,2.995,2.995,3.0208,3.0748,3.1043,3.1421,3.1923,3.2173,3.2269,0.0,1.0907,1.137,1.3688,1.5112,0.0,0.0,0.0,0.0,2.46,2.5052,2.5406,2.6405,2.7196,2.7736,2.7769,2.846,2.9002,0.0,2.9002,0.0,0.0,2.9067,0.0,2.9368,3.0046,3.0043,2.9074,3.0366,3.0777,2.9884,2.9858,3.0265,3.1122,3.0303,2.9884,2.9998,3.0871,3.1278,3.1315,3.2136,3.2573,3.2644,3.2603,3.227,0.0,3.2735,3.2768,3.2211,3.3087,3.3036,3.2437,3.2437,3.2049,3.1511,3.1511,3.1511,3.1511,3.1511,3.1511,3.1511,3.1511,3.1511,3.1511,3.1511,3.1511,3.1511,3.1511,3.1511,3.1511,3.1511,3.1511,3.1511,3.1511,3.1511,3.1511,3.1511,3.1511,3.1511,3.1511,3.1511,3.1511,3.1511,3.1511,3.1511,3.1511,3.1511,3.1511,3.1511,3.1511,3.1511,3.1511,3.1568,3.1582,3.1582,3.1524,3.1511,3.1511,3.1511,3.1511,3.1511,3.1511,3.1511,3.1511,3.1553,3.1611,3.1653,3.2355,3.2668,3.2695,3.3313,3.3582,1.4253,0.0,1.3723,1.5988,1.7894,1.9693,0.0,0.0,0.0,0.0,0.0,0.0,0.0,2.7571,2.792,2.8588,2.8876,2.9002,2.9002,0.0,0.0,2.9164,2.9383,2.9547,2.9697,3.0235,3.0438,3.0231,3.0539,3.0641,3.0411,3.0411,3.0516,3.0745,3.0516,3.0912,3.1924,3.2141,3.2285,3.2272,3.1948,3.2242,3.2986,3.244,3.2501,3.3086,3.329,3.3028,3.242,3.2646,3.2333,3.1735,3.1735,3.1645,3.1511,3.1511,3.1511,3.1511,3.1511,3.1511,3.1511,3.1511,3.1511,3.1511,3.1511,3.1511,3.1511,3.1511,3.1511,3.1511,3.1511,3.1511,3.1511,3.1511,3.1511,3.1511,3.1511,3.1511,3.1511,3.1511,3.1511,3.1511,3.1511,3.1511,3.1511,3.1511,3.1511,3.1511,3.1511,3.1511,3.1511,3.1511,3.2007,3.2355,3.2355,3.1824,3.1511,3.1511,3.1511,3.1511,3.1511,3.1511,3.1511,3.1511,3.2064,3.2598,3.3103,3.3287,3.3365,3.3365,3.3547,3.3582,1.6265,1.5962,1.6014,1.8209,1.9584,2.0929,0.0,0.0,0.0,0.0,0.0,0.0,0.0,0.0,2.9066,2.9504,2.9919,0.0,0.0,0.0,3.0133,3.0133,3.0094,3.0027,0.0,3.0544,3.0699,3.0251,3.0879,3.1099,3.0629,3.0596,3.0798,3.1264,3.1298,3.1419,3.166,3.2157,3.2362,3.2362,3.244,3.2771,3.3284,3.2918,3.2859,3.3036,3.3036,3.2677,3.2034,3.2034,3.1824,3.1524,3.1881,3.2007,3.2035,3.2351,3.2256,3.2007,3.2007,3.2007,3.2007,3.2007,3.2201,3.2407,3.2104,3.2201,3.2339,3.1682,3.1739,3.2007,3.2007,3.2228,3.2446,3.2446,3.2446,3.2446,3.2446,3.2446,3.2446,3.2446,3.2446,3.2446,3.2446,3.2446,3.2446,3.2446,3.2446,3.2446,3.2446,3.2446,3.2446,3.2446,3.2826,3.3066,3.3066,3.2691,3.2446,3.2446,3.2446,3.2446,3.2446,3.2446,3.2446,3.2446,3.2853,3.3235,3.3582,3.3912,3.4062,3.4062,3.4374,3.4536,1.7986,1.8106,1.8576,2.0042,2.0766,2.183,2.4589,0.0,0.0,0.0,0.0,0.0,0.0,2.9797,0.0,0.0,0.0,0.0,3.1511,3.1511,3.1511,3.1511,3.0896,0.0,3.0494,3.0944,3.0939,3.0117,3.1265,3.1629,3.0787,3.0721,3.1129,3.1994,3.2026,3.1597,3.0754,3.1782,3.2315,3.2315,3.3026,3.335,3.3335,3.3245,3.2886,3.2333,0.0,0.0,3.1668,3.1668,3.1739,3.1894,3.2504,3.2734,3.2815,3.3391,3.3235,3.2734,3.2734,3.2734,3.2734,3.2734,3.3145,3.3479,3.2906,3.3145,3.3365,3.2145,3.2272,3.2734,3.2734,3.3156,3.3582,3.3582,3.3582,3.3582,3.3582,3.3582,3.3582,3.3582,3.3582,3.3582,3.3582,3.3582,3.3582,3.3582,3.3582,3.3582,3.3582,3.3582,3.3582,3.3582,3.3684,3.3761,3.3761,3.3836,3.3928,3.3928,3.371,3.3582,3.3582,3.3582,3.3633,3.3761,3.3761,3.3811,3.3928,3.4496,3.4759,3.4759,3.5339,3.56,2.1192,2.1847,2.22,2.0776,2.2376,2.4625,2.5807,0.0,0.0,0.0,0.0,0.0,0.0,3.0208,3.0524,0.0,0.0,3.1511,0.0,0.0,3.1511,3.1511,0.0,3.1322,3.1322,3.1396,3.1397,3.1235,3.1456,3.1516,3.1353,3.1353,3.1412,3.1589,3.1575,3.1516,3.1353,3.2643,3.3285,3.3285,3.287,3.2662,3.2647,3.2064,3.175,3.1645,0.0,3.1944,3.2437,3.2437,3.2761,3.3287,3.3417,3.3443,3.3469,3.3556,3.3531,3.3443,3.3443,3.3443,3.3443,3.3443,3.3521,3.3582,3.3495,3.3521,3.3556,3.3323,3.3365,3.3443,3.3443,3.3521,3.3582,3.3582,3.3582,3.3582,3.3582,3.3582,3.3582,3.3582,3.3582,3.3582,3.3582,3.3582,3.3582,3.3582,3.3582,3.3582,3.3582,3.3582,3.3582,3.3582,3.4112,3.4455,3.4455,3.4981,3.5293,3.5293,3.4227,3.3582,3.3582,3.3582,3.3862,3.4431,3.4455,3.4728,3.5293,3.5402,3.5447,3.5447,3.5538,3.56,2.2763,2.3872,2.4767,2.384,2.4637,2.5948,2.6836,0.0,0.0,0.0,0.0,0.0,0.0,0.0,3.119,3.1979,0.0,3.2516,3.2132,3.2422,3.2489,0.0,0.0,3.2092,3.2092,3.1739,3.1511,3.1511,3.1511,3.1511,3.1511,3.1511,3.1511,3.1511,3.1511,3.1511,3.1511,3.2516,3.2819,3.2437,3.25,3.2549,3.2562,3.26,3.2637,3.2637,0.0,3.2826,3.3145,3.3145,3.3313,3.3649,3.4012,3.4137,3.4137,3.4137,3.4137,3.4087,3.3735,3.3836,3.4137,3.4137,3.4399,3.4609,3.4235,3.4399,3.4609,3.4235,3.4137,3.4137,3.4137,3.4423,3.4681,3.4681,3.4681,3.4681,3.4681,3.4681,3.4681,3.4681,3.4681,3.4681,3.4681,3.4681,3.4681,3.4681,3.4681,3.4681,3.4681,3.4681,3.4681,3.4681,3.4958,3.5144,3.5144,3.5407,3.56,3.56,3.5005,3.4681,3.4681,3.4681,3.484,3.5121,3.5144,3.5276,3.56,3.56,3.56,3.56,3.5898,3.5876,2.4791,2.5852,2.692,2.692,0.0,2.7167,2.809,0.0,0.0,0.0,0.0,0.0,0.0,3.1736,0.0,3.2703,3.3261,3.3417,3.2922,3.3261,3.3417,3.2895,3.2841,3.2841,3.2841,3.2312,3.1992,3.1992,3.1992,3.1992,3.1992,3.1992,3.1992,3.1992,3.1992,3.1992,3.1992,3.2544,3.2477,3.1768,3.2477,3.2841,3.2841,3.3365,3.3582,3.3582,3.3582,3.3684,3.3836,3.3836,3.3937,3.4112,3.464,3.483,3.483,3.483,3.483,3.4759,3.4252,3.4399,3.483,3.483,3.5184,3.5492,3.4988,3.5207,3.5492,3.4965,3.483,3.483,3.483,3.5207,3.56,3.56,3.56,3.56,3.56,3.56,3.56,3.56,3.56,3.56,3.56,3.56,3.56,3.56,3.56,3.56,3.56,3.56,3.56,3.56,3.56,3.56,3.56,3.56,3.56,3.56,3.56,3.56,3.56,3.56,3.56,3.56,3.56,3.56,3.56,3.5717,3.5783,3.5805,3.6333,3.6374,2.8579,2.8689,2.8798,2.8798,0.0,0.0,2.9919,3.0178,0.0,3.213,0.0,0.0,0.0,3.2412,3.2669,3.3409,3.3572,3.3582,3.3531,0.0,3.3582,3.3531,3.3547,3.3547,3.3547,3.3479,3.3469,3.3469,3.3469,3.3469,3.3469,3.3469,3.3469,3.3469,3.3469,3.3469,3.3469,3.3505,3.3182,3.2547,3.3224,3.3547,3.3547,3.3582,3.3582,3.3582,3.3582,3.3962,3.4528,3.4528,3.4894,3.547,3.5515,3.5515,3.5515,3.5515,3.5515,3.5515,3.547,3.5492,3.5515,3.5515,3.5577,3.56,3.5538,3.556,3.56,3.5538,3.5515,3.5515,3.5515,3.556,3.56,3.56,3.56,3.56,3.56,3.56,3.56,3.56,3.56,3.56,3.56,3.56,3.56,3.56,3.56,3.56,3.56,3.56,3.56,3.56,3.56,3.56,3.56,3.56,3.56,3.56,3.56,3.56,3.56,3.56,3.56,3.56,3.56,3.56,3.56,3.6097,3.6333,3.6371,3.6884,3.7116,3.0219,3.0631,3.1038,3.1038,0.0,0.0,0.0,0.0,3.1741,3.1836,3.2593,0.0,0.0,0.0,3.3372,3.4097,3.4568,3.4704,3.4284,3.4568,3.4704,3.426,3.4211,3.4211,3.4211,3.3836,3.3582,3.3582,3.3582,3.3582,3.3582,3.3582,3.3582,3.3582,3.3582,3.3582,3.3582,3.4012,3.4087,3.3836,3.4112,3.4211,3.4235,3.464,3.484,3.484,3.484,3.4981,3.523,3.523,3.5362,3.56,3.56,3.56,3.56,3.56,3.56,3.56,3.56,3.56,3.56,3.56,3.56,3.56,3.56,3.56,3.56,3.56,3.56,3.56,3.56,3.56,3.56,3.56,3.56,3.56,3.56,3.56,3.56,3.56,3.56,3.56,3.56,3.56,3.56,3.56,3.56,3.56,3.56,3.56,3.56,3.56,3.56,3.56,3.56,3.56,3.56,3.56,3.56,3.56,3.56,3.56,3.5761,3.6097,3.6097,3.6249,3.6603,3.6803,3.6902,3.6921,3.7415,3.7488,3.2056,3.2467,3.2903,0.0,0.0,0.0,0.0,0.0,3.2818,3.2483,3.3003,0.0,0.0,0.0,0.0,0.0,3.5148,3.543,3.4965,3.5316,3.5447,3.4965,3.4918,3.4918,3.4918,3.4496,3.4227,3.4227,3.4227,3.4227,3.4227,3.4227,3.4227,3.4227,3.4227,3.4227,3.4227,3.4688,3.4918,3.4918,3.4918,3.4918,3.4918,3.5385,3.56,3.56,3.56,3.56,3.56,3.56,3.56,3.56,3.56,3.56,3.56,3.56,3.56,3.56,3.56,3.56,3.56,3.56,3.56,3.5644,3.5805,3.5739,3.5644,3.5788,3.5739,3.56,3.56,3.56,3.56,3.56,3.56,3.56,3.56,3.56,3.56,3.56,3.56,3.56,3.56,3.56,3.56,3.56,3.56,3.56,3.56,3.56,3.565,3.5832,3.6011,3.6118,3.6118,3.6118,3.6118,3.6118,3.6118,3.6032,3.5854,3.6011,3.6291,3.6661,3.6643,3.6843,3.7209,3.7341,3.7415,3.7433,3.7911,3.7981,3.4329,3.4329,0.0,0.0,0.0,0.0,0.0,0.0,3.3795,3.4463,0.0,3.3389,3.3406,0.0,0.0,3.437,3.5115,3.5583,3.56,3.56,3.56,3.56,3.56,3.56,3.56,3.56,3.56,3.56,3.56,3.56,3.56,3.56,3.56,3.56,3.56,3.56,3.56,3.56,3.56,3.56,3.56,3.56,3.56,3.56,3.56,3.56,3.56,3.56,3.56,3.56,3.56,3.56,3.56,3.56,3.56,3.56,3.56,3.5622,3.5622,3.5622,3.5622,3.5622,3.5622,3.5717,3.6245,3.6049,3.5717,3.6266,3.6028,3.5622,3.5622,3.5622,3.5622,3.56,3.56,3.56,3.56,3.56,3.5622,3.5622,3.5622,3.5622,3.5622,3.5622,3.5622,3.5622,3.5622,3.5622,3.5622,3.5622,3.581,3.6333,3.6865,3.7209,3.7209,3.7209,3.7209,3.7209,3.7192,3.698,3.6416,3.6921,3.7209,3.7209,3.7209,3.7209,3.7228,3.7685,3.7893,3.7929,3.8465,3.8707,3.6394,0.0,0.0,3.5696,0.0,0.0,0.0,3.4779,0.0,0.0,3.2954,3.2171,3.322,0.0,0.0,3.4286,3.4675,3.5013,3.5515,3.56,3.56,3.56,3.56,3.56,3.56,3.56,3.56,3.56,3.56,3.56,3.56,3.56,3.56,3.56,3.56,3.56,3.56,3.56,3.56,3.56,3.56,3.56,3.56,3.56,3.56,3.56,3.56,3.56,3.56,3.56,3.56,3.56,3.56,3.56,3.56,3.56,3.5832,3.6161,3.6161,3.6416,3.6744,3.6744,3.6744,3.6764,3.6904,3.6845,3.6746,3.6921,3.6845,3.6744,3.6744,3.6744,3.6542,3.5766,3.56,3.56,3.56,3.5898,3.6161,3.6161,3.646,3.6744,3.6744,3.6744,3.6744,3.6744,3.6744,3.6744,3.6744,3.6744,3.6803,3.696,3.7114,3.7209,3.7209,3.7209,3.7209,3.7209,3.7506,3.747,3.6981,3.7133,3.736,3.7685,3.7685,3.7877,3.8252,3.8382,3.8465,3.8465,3.8627,3.8707,3.7716,0.0,0.0,3.6843,3.7097,3.7236,3.6246,0.0,0.0,0.0,0.0,3.2333,3.2934,3.2936,0.0,3.4418,3.4866,3.5332,3.6128,3.6249,3.6143,3.5941,3.592,3.5832,3.5622,3.56,3.56,3.56,3.56,3.56,3.56,3.56,3.56,3.56,3.56,3.5694,3.592,3.592,3.6011,3.6249,3.6249,3.6249,3.6228,3.5788,3.5717,3.5941,3.6143,3.6101,3.592,3.592,3.6032,3.6207,3.5989,3.6054,3.6249,3.6249,3.644,3.6724,3.6724,3.6941,3.7209,3.7209,3.7209,3.7229,3.7415,3.7341,3.7229,3.7433,3.7341,3.7209,3.7209,3.7209,3.7057,3.6378,3.6249,3.6249,3.6249,3.6481,3.6724,3.6724,3.698,3.7209,3.7209,3.7209,3.7209,3.7209,3.7209,3.7209,3.7209,3.736,3.7488,3.7488,3.7667,3.7791,3.7791,3.7791,3.7791,3.7791,3.8066,3.81,3.7808,3.7791,3.7929,3.82,3.8216,3.8382,3.8707,3.8707,3.8707,3.8707,3.8818,3.8855,3.8471,0.0,0.0,3.7433,3.7631,0.0,3.6031,3.5806,3.5687,3.4836,0.0,3.3298,3.2625,3.305,3.3757,3.4553,3.5296,3.6109,3.696,3.7156,3.702,3.6539,3.6478,3.627,3.5788,3.5761,3.5761,3.5761,3.5761,3.5761,3.5761,3.5761,3.5761,3.5761,3.5761,3.5968,3.6478,3.6478,3.6724,3.7209,3.7209,3.7209,3.7171,3.6186,3.6011,3.6498,3.6999,3.6921,3.6478,3.6478,3.6764,3.7135,3.6664,3.6764,3.7209,3.7209,3.7228,3.7267,3.7267,3.7303,3.734,3.734,3.734,3.7433,3.7843,3.7667,3.7433,3.786,3.7667,3.734,3.734,3.734,3.734,3.734,3.7266,3.7209,3.7209,3.7229,3.7267,3.7267,3.7285,3.734,3.734,3.734,3.734,3.734,3.734,3.734,3.734,3.772,3.798,3.798,3.8399,3.8707,3.8707,3.8707,3.8707,3.8707,3.8707,3.8707,3.8707,3.8707,3.8707,3.8707,3.8707,3.8704,3.8735,3.8735,3.8747,3.8792,3.9027,3.9152,3.9106,3.8897,0.0,0.0,3.823,3.8073,3.7266,3.6623,3.5724,3.3898,3.3102,3.2695,3.2536,3.2642,3.2979,3.374,3.4518,3.5296,3.6074,3.6783,3.7171,3.7057,3.7038,3.6981,3.6865,3.6845,3.6845,3.6845,3.6845,3.6845,3.6845,3.6845,3.6845,3.6845,3.6845,3.6904,3.7038,3.7038,3.7095,3.7209,3.7209,3.7209,3.7173,3.6962,3.6923,3.702,3.7152,3.7116,3.7038,3.7038,3.7114,3.7173,3.7058,3.7114,3.7209,3.7209,3.7433,3.7755,3.7755,3.8015,3.8385,3.8385,3.8385,3.8401,3.8515,3.8449,3.8401,3.8515,3.8449,3.8385,3.8385,3.8385,3.8385,3.8385,3.7773,3.7209,3.7209,3.7488,3.7755,3.7755,3.81,3.8385,3.8385,3.8385,3.8385,3.8385,3.8385,3.8385,3.8385,3.8483,3.853,3.853,3.8627,3.8707,3.8707,3.8707,3.8707,3.8707,3.8707,3.8707,3.8707,3.8707,3.8707,3.8707,3.8707,3.8803,3.9008,3.9008,3.9144,3.9414,3.9469,3.9486,3.9755,0.0,0.0,3.9053,0.0,3.7998,3.7432,3.6458,3.5298,3.3959,3.3378,3.3118,3.3118,3.3118,3.3355,3.415,3.4616,3.5301,3.649,3.7066,3.7394,3.7524,3.7542,3.7451,3.721,3.7209,3.7209,3.7209,3.7209,3.7209,3.7209,3.7209,3.7209,3.7209,3.7209,3.7304,3.7524,3.7542,3.7667,3.793,3.793,3.793,3.7913,3.7649,3.7415,3.7228,3.7721,3.7755,3.7542,3.7542,3.7685,3.7878,3.7649,3.7685,3.793,3.793,3.8066,3.8283,3.8283,3.8465,3.8707,3.8707,3.8707,3.8707,3.8707,3.8707,3.8707,3.8707,3.8707,3.8707,3.8707,3.8707,3.8707,3.8707,3.8302,3.793,3.793,3.81,3.8283,3.8283,3.8496,3.8707,3.8707,3.8707,3.8707,3.8707,3.8707,3.8707,3.8707,3.8707,3.8707,3.8707,3.8707,3.8707,3.8707,3.8707,3.8707,3.8707,3.8815,3.888,3.888,3.9064,3.9064,3.888,3.888,3.904,3.9327,3.9327,3.9426,3.9599,3.9765,3.9829,4.0272,0.0,3.9834,3.9652,3.8825,0.0,3.7246,3.6099,3.4997,3.4409,3.4037,3.3807,3.3807,3.3807,3.4027,3.4674,3.4912,3.5536,3.7088,3.7419,3.7631,3.8008,3.8048,3.7877,3.7506,3.7469,3.7469,3.7469,3.7469,3.7469,3.7469,3.7469,3.7469,3.7469,3.7469,3.7649,3.803,3.8048,3.8267,3.8707,3.8707,3.8707,3.8673,3.8251,3.7825,3.7506,3.8334,3.8449,3.8048,3.8048,3.83,3.8676,3.82,3.83,3.8707,3.8707,3.8707,3.8707,3.8707,3.8707,3.8707,3.8707,3.8707,3.8707,3.8707,3.8707,3.8707,3.8707,3.8707,3.8707,3.8707,3.8707,3.8707,3.8707,3.8707,3.8707,3.8707,3.8707,3.8707,3.8707,3.8707,3.8707,3.8707,3.8707,3.8707,3.8707,3.8707,3.8707,3.8707,3.8707,3.8719,3.8762,3.8777,3.8788,3.8848,3.8848,3.8848,3.8848,3.9068,3.9192,3.9192,3.945,3.9505,3.9276,3.9231,3.9339,3.9698,3.9698,3.9712,3.9767,4.0052,4.0167,0.0,0.0,4.0062,0.0,3.915,3.8391,0.0,0.0,3.5558,0.0,3.4196,3.3807,3.3807,3.3807,3.3844,3.3935,3.4546,3.5334,3.6321,3.707,3.7774,3.852,3.8578,3.8562,3.8515,3.8499,3.8499,3.8499,3.8499,3.8499,3.8499,3.8499,3.8499,3.8499,3.8499,3.853,3.8578,3.8578,3.8627,3.8707,3.8707,3.8707,3.8707,3.8627,3.8562,3.8515,3.8643,3.8658,3.8578,3.8578,3.8643,3.8692,3.8627,3.8643,3.8707,3.8707,3.8707,3.8707,3.8707,3.8707,3.8707,3.8707,3.8707,3.8707,3.8707,3.8707,3.8707,3.8707,3.8707,3.8707,3.8707,3.8707,3.8707,3.8707,3.8707,3.8707,3.8707,3.8707,3.8707,3.8707,3.8707,3.8707,3.8707,3.8707,3.8707,3.8707,3.8707,3.8707,3.8707,3.8707,3.8788,3.9022,3.9049,3.9152,3.9457,3.9469,3.9469,3.9469,3.9517,3.9541,3.9541,3.9576,3.972,3.9953,3.9679,3.9709,4.0022,4.0022,4.0148,4.037,4.0441,4.0449,4.0688,4.0541,4.0412,0.0,3.9099,3.804,3.7686,0.0,3.5159,3.4974,3.4593,3.4295,3.4295,3.403,3.3855,3.4012,3.4184,3.4798,3.6101,3.6597,3.7294,3.856,3.8707,3.8707,3.8707,3.8707,3.8707,3.8707,3.8707,3.8707,3.8707,3.8707,3.8707,3.8707,3.8707,3.8707,3.8707,3.8707,3.8707,3.8707,3.8707,3.8707,3.8707,3.8707,3.8707,3.8707,3.8707,3.8707,3.8707,3.8707,3.8707,3.8707,3.8707,3.8707,3.8707,3.8707,3.8707,3.8719,3.8869,3.8919,3.8919,3.8919,3.9059,3.9163,3.8975,3.9059,3.9203,3.9203,3.9073,3.8961,3.9168,3.9073,3.8961,3.9149,3.9203,3.9203,3.9203,3.8946,3.8707,3.8707,3.8707,3.875,3.8894,3.8919,3.899,3.9181,3.9203,3.9203,3.9203,3.9203,3.9255,3.9383,3.9377,3.9438,3.9587,3.9599,3.9599,3.9599,3.9775,3.988,3.988,4.0014,4.0166,4.033,4.0023,4.0023,4.033,4.033,4.0381,4.0496,4.0496,4.0496,0.0,0.0,4.0692,4.03,3.8992,3.7728,0.0,0.0,3.4963,0.0,3.4981,3.4813,3.4898,3.442,3.4099,3.43,3.4153,3.4604,3.6281,3.6445,3.6998,3.8619,3.8732,3.8707,3.8707,3.8707,3.8707,3.8707,3.8707,3.8707,3.8707,3.8707,3.8707,3.8707,3.8707,3.8707,3.8707,3.8707,3.8707,3.8707,3.8707,3.8707,3.8707,3.8777,3.8803,3.8803,3.8735,3.8707,3.8707,3.8777,3.8803,3.8818,3.8902,3.8931,3.8931,3.8931,3.8931,3.8956,3.9171,3.9244,3.9244,3.9244,3.9389,3.9552,3.9302,3.9401,3.9599,3.9599,3.9414,3.9276,3.9541,3.9414,3.9289,3.9552,3.9599,3.9599,3.9599,3.9242,3.8931,3.8931,3.8931,3.8994,3.9192,3.9244,3.9302,3.9564,3.9599,3.9599,3.9599,3.9599,3.9634,3.9731,3.9731,3.9746,3.9821,3.9832,3.9832,3.9832,4.0053,4.0195,4.0195,4.0389,4.0496,4.0496,4.0345,4.0326,4.0496,4.0496,4.0519,4.0552,4.0552,4.0554,0.0,4.099,0.0,3.9708,3.88,0.0,0.0,0.0,0.0,3.5486,3.5273,3.5166,3.5417,3.5016,3.4653,3.4674,3.4663,3.5218,3.6831,3.6837,3.7277,3.8885,3.8855,3.8707,3.8707,3.8707,3.8707,3.8707,3.8707,3.8707,3.8707,3.8707,3.8707,3.8707,3.8707,3.8707,3.8707,3.8707,3.8707,3.8707,3.8707,3.8707,3.8723,3.8961,3.9085,3.9077,3.8818,3.8707,3.8719,3.8971,3.9085,3.9112,3.9432,3.9552,3.9552,3.9552,3.9552,3.9552,3.9576,3.9576,3.9576,3.9576,3.9587,3.9599,3.9587,3.9587,3.9599,3.9599,3.9587,3.9587,3.9599,3.9587,3.9587,3.9599,3.9599,3.9599,3.9599,3.9576,3.9552,3.9552,3.9552,3.9564,3.9576,3.9576,3.9587,3.9599,3.9599,3.9599,3.9599,3.9599,3.9731,4.0032,4.0081,4.0177,4.043,4.0446,4.0446,4.0446,4.0473,4.0481,4.0481,4.0489,4.0496,4.0496,4.0616,4.0604,4.0496,4.0496,4.0566,4.0686,4.0686,4.0726,0.0,0.0,0.0,3.9766,3.8896,3.8015,3.7052,3.6167,3.5558,3.5508,3.5424,3.5383,3.5486,3.507,3.4773,3.4935,3.5248,3.5847,3.695,3.7491,3.8193,3.9282,3.9339,3.9281,3.9281,3.9281,3.9281,3.9281,3.9281,3.9189,3.8975,3.8961,3.8884,3.8707,3.8707,3.8707,3.8707,3.8707,3.8788,3.8961,3.8961,3.9068,3.9294,3.9371,3.9414,3.9432,3.9327,3.9281,3.9294,3.9383,3.9414,3.9426,3.9552,3.9599,3.9599,3.9599,3.9599,3.9634,3.9859,3.9922,3.9922,3.9922,4.0043,4.0148,3.9973,4.0043,4.0175,4.0175,4.0053,3.9963,4.0129,4.0053,3.9963,4.0138,4.0175,4.0175,4.0175,3.9874,3.9599,3.9599,3.9599,3.9668,3.9891,3.9922,3.9983,4.0148,4.0175,4.0175,4.0175,4.0175,4.023,4.0347,4.0356,4.0389,4.0489,4.0496,4.0496,4.0496,4.0568,4.063,4.063,4.0676,4.0687,4.0687,4.0733,4.0712,4.063,4.0663,4.0713,4.0757,4.0757,4.0779,4.0888,0.0,0.0,0.0,0.0,3.7666,3.6697,0.0,3.5588,3.5521,3.55,3.55,3.55,3.5207,3.5035,3.5207,3.5763,3.6464,3.73,3.8057,3.8847,3.9681,3.9668,3.9599,3.9599,3.9599,3.9599,3.9599,3.9599,0.0,3.9276,3.9264,3.9131,3.8844,3.8829,3.8829,3.8829,3.8829,3.8975,3.9264,3.9264,3.9377,3.9599,3.9731,3.9775,3.9775,3.9853,3.9789,3.9611,3.9731,3.9775,3.9775,3.9863,3.9894,3.9894,3.9894,3.9894,3.9925,4.0157,4.0232,4.0232,4.0232,4.0356,4.0465,4.0295,4.0356,4.0496,4.0496,4.0372,4.0286,4.0457,4.0364,4.0286,4.0465,4.0496,4.0496,4.0496,4.0184,3.9894,3.9894,3.9894,3.9974,4.0204,4.0232,4.0285,4.0473,4.0496,4.0496,4.0496,4.0496,4.0496,4.0496,4.0537,4.0574,4.0574,4.059,4.0604,4.0604,4.0682,4.0736,4.0736,4.0779,4.0797,4.0797,4.0831,4.0855,4.08,4.08,4.0816,4.0867,4.0867,4.0883,0.0,0.0,0.0,0.0,0.0,0.0,3.5853,0.0,3.5574,3.5521,3.55,3.55,3.55,3.55,3.55,3.55,3.6173,3.7,3.7873,3.847,3.9147,4.0015,3.9819,3.9634,3.9634,3.9634,3.9634,3.9634,3.9634,3.9622,3.9611,3.9611,3.9438,3.9139,3.9107,3.9107,3.9107,3.9107,3.9276,3.9611,3.9611,3.9622,3.9634,3.9953,4.011,4.012,4.0381,4.0166,3.9656,3.9982,4.011,4.0139,4.0389,4.0496,4.0496,4.0496,4.0496,4.0496,4.0496,4.0496,4.0496,4.0496,4.0496,4.0496,4.0496,4.0496,4.0496,4.0496,4.0496,4.0496,4.0496,4.0496,4.0496,4.0496,4.0496,4.0504,4.0504,4.0512,4.0512,4.0496,4.0496,4.0496,4.0496,4.0504,4.0504,4.0504,4.0512,4.0512,4.0512,4.0512,4.0512,4.0512,4.063,4.0703,4.0703,4.0752,4.0797,4.0797,4.0801,4.0805,4.0805,4.0805,4.0809,4.0809,4.095,4.1017,4.1017,4.0874,4.0874,4.1017,4.1017,4.1078,4.085,0.0,0.0,0.0,0.0,0.0,0.0,0.0,3.5648,3.5528,3.55,3.55,3.55,3.55,3.55,3.55,3.6173,3.7,3.7873,3.8666,3.9479,4.0285,4.0311,4.0257,4.0257,4.0257,4.0257,0.0,4.0257,4.0176,3.9963,3.9742,3.9564,3.945,3.945,3.945,3.945,3.945,3.9634,3.9953,3.9953,4.0053,4.0257,4.0356,4.0389,4.0389,4.0473,4.0406,4.0257,4.0345,4.0389,4.0389,4.0473,4.0496,4.0496,4.0496,4.0496,4.0496,4.0496,4.0496,4.0496,4.0496,4.0496,4.0496,4.0496,4.0496,4.0496,4.0496,4.0496,4.0496,4.0496,4.0496,4.0496,4.0496,4.0561,4.063,4.063,4.0688,4.066,4.053,4.0496,4.0496,4.0496,4.0588,4.063,4.063,4.0693,4.0723,4.0723,4.0723,4.0723,4.0723,4.0752,4.077,4.077,4.0781,4.0797,4.0797,4.0883,4.0933,4.0933,4.1048,4.1082,4.1082,4.1127,4.1149,4.1149,4.1104,4.1105,4.1149,4.1149,4.1151,0.0,0.0,0.0,0.0,0.0,0.0,3.5861,3.5707,3.5667,0.0,3.55,3.55,3.55,3.55,3.55,3.55,3.5885,3.6481,3.7334,3.8527,3.9477,3.9938,4.0304,4.0496,4.0496,4.0496,4.0496,4.0496,4.0496,4.0422,4.0286,4.0082,3.9915,3.9808,3.9808,3.9808,3.9808,3.9808,3.9963,4.0278,4.0278,4.0347,4.0496,4.0496,4.0496,4.0496,4.0496,4.0496,4.0496,4.0496,4.0496,4.0496,4.0496,4.0496,4.0496,4.0496,4.0496,4.0496,4.0496,4.0496,4.0496,4.0496,4.0496,4.0496,4.0496,4.053,4.0575,4.0575,4.061,4.0629,4.0629,4.0629,4.0629,4.0629,4.0674,4.0732,4.0732,4.077,4.076,4.0645,4.0629,4.0629,4.0629,4.0699,4.0732,4.0732,4.0775,4.0797,4.0797,4.0797,4.0797,4.0797,4.0854,4.0877,4.0877,4.0928,4.0962,4.0962,4.1049,4.1081,4.1081,4.1151,4.1191,4.1191,4.1191,4.1191,4.1191,4.1191,4.1191,4.1191,4.1191,4.1191,0.0,0.0,0.0,0.0,0.0,0.0,3.5744,3.5713,3.5679,0.0,3.5514,3.5508,3.5508,3.5514,3.5507,3.5508,3.5494,3.5788,3.6596,3.8027,3.9092,3.9284,3.9938,4.04,4.0496,4.0496,4.0496,4.0496,4.0496,4.0496,4.0496,4.0496,4.0389,4.0148,4.0139,4.0139,4.0139,4.0139,4.0258,4.0496,4.0496,4.0496,4.0496,4.0496,4.0496,4.0496,4.0496,4.0496,4.0496,4.0519,4.0512,4.0496,4.0496,4.0496,4.0496,4.0496,4.0512,4.0527,4.0527,4.0523,4.0526,4.0526,4.0526,4.0526,4.0526,4.061,4.0707,4.0707,4.0757,4.0797,4.0797,4.0797,4.0797,4.0797,4.0809,4.0816,4.0816,4.0824,4.0831,4.0831,4.0813,4.0797,4.0797,4.0809,4.0816,4.0816,4.0824,4.0831,4.0831,4.0831,4.0831,4.0831,4.0955,4.1023,4.1023,4.1128,4.1191,4.1191,4.1191,4.1191,4.1191,4.1191,4.1191,4.1191,4.1191,4.123,4.1327,4.123,4.1191,4.1191,4.1289,4.1327,0.0,0.0,0.0,0.0,0.0,0.0,3.5744,3.5775,3.5794,0.0,3.5534,3.5588,3.5588,3.554,3.5528,3.5566,3.5534,3.5788,3.6596,3.6981,3.7738,3.913,3.9438,3.9785,4.0439,4.0496,4.0496,4.0496,4.0496,4.0496,4.0496,4.0496,4.0473,4.0414,4.0414,4.0414,4.0414,4.0414,4.0457,4.0496,4.0496,4.0496,4.0496,4.0496,4.0496,4.0496,4.0496,4.0496,4.0512,4.0616,4.0589,4.0496,4.0496,4.0496,4.0496,4.0496,4.0574,4.0655,4.0655,4.0699,4.0733,4.0733,4.0733,4.0733,4.0733,4.0766,4.0784,4.0784,4.0781,4.0797,4.0797,4.0797,4.0797,4.0797,4.0877,4.0959,4.0959,4.1051,4.1126,4.1126,4.0952,4.0797,4.0797,4.088,4.0959,4.0959,4.1052,4.1126,4.1126,4.1126,4.1126,4.1126,4.1149,4.1151,4.1151,4.1172,4.1191,4.1191,4.1191,4.1191,4.1191,4.1191,4.1191,4.1191,4.1083,4.1379,4.2079,4.1481,4.1191,4.1211,4.1802,4.2098,0.0,0.0,0.0,3.6875,0.0,0.0,0.0,3.5845,3.5831,3.5645,3.5626,3.5646,3.5646,3.5616,3.5611,3.5638,3.5595,3.5697,3.6137,3.6498,3.7019,3.7892,3.8392,3.8969,3.9823,3.99,4.0073,4.0477,4.0496,4.0496,4.0496,4.0496,4.0496,4.0496,4.0496,4.0496,4.0496,4.0496,4.0496,4.0496,4.0496,4.0496,4.0496,4.0574,4.0596,4.0603,4.0648,4.0645,4.0651,4.0722,4.0712,4.0645,4.0645,4.0645,4.0645,4.0645,4.069,4.0747,4.0747,4.077,4.0797,4.0797,4.0797,4.0797,4.0797,4.0854,4.0914,4.0988,4.0996,4.0996,4.0996,4.0996,4.0996,4.0996,4.1052,4.1103,4.1103,4.115,4.1191,4.1191,4.1082,4.0996,4.0996,4.1054,4.1103,4.1103,4.115,4.1191,4.1191,4.1191,4.1191,4.1191,4.1191,4.1191,4.1191,4.1191,4.1191,4.1191,4.1582,4.1776,4.1747,4.2175,4.2363,4.2297,4.2226,4.2419,4.2844,4.2476,4.2297,4.2314,4.2688,4.2844,0.0,0.0,0.0,0.0,0.0,3.5975,0.0,0.0,0.0,3.5726,3.572,0.0,0.0,0.0,0.0,0.0,0.0,0.0,0.0,3.6163,0.0,3.6736,3.7365,3.8192,3.9213,3.9471,3.9822,4.0439,4.0508,4.0534,4.0496,4.0496,4.0496,4.0496,4.0496,4.0496,4.0496,4.0496,4.0512,4.053,4.053,4.0552,4.0556,4.0666,4.0724,4.0729,4.0779,4.0797,4.0801,4.0839,4.0847,4.0847,4.0805,4.0797,4.0797,4.0797,4.0813,4.0847,4.0847,4.086,4.0874,4.0874,4.0874,4.0874,4.0874,4.0955,4.1055,4.1171,4.1191,4.1191,4.1191,4.1191,4.1191,4.1191,4.1191,4.1191,4.1191,4.1191,4.1191,4.1191,4.1191,4.1191,4.1191,4.1191,4.1191,4.1191,4.1191,4.1191,4.1191,4.1191,4.1191,4.1191,4.1171,4.1151,4.1151,4.1285,4.1361,4.1361,4.2142,4.2579,4.2515,4.3195,4.3517,4.3391,4.3369,4.3433,4.3608,4.3583,4.3501,4.3411,4.3544,4.3608,0.0,0.0,0.0,0.0,3.5996,0.0,0.0,0.0,3.593,3.5738,0.0,0.0,0.0,0.0,0.0,0.0,0.0,0.0,3.5703,3.5764,3.6099,3.6872,3.6993,3.7649,3.9237,4.0081,4.0533,4.0512,4.061,4.063,4.0504,4.0496,4.0496,4.0496,4.0496,4.0496,4.0496,4.0496,4.0559,4.0674,4.0674,4.0704,4.0764,4.0773,4.08,4.0781,4.0793,4.0797,4.0805,4.0922,4.0986,4.0962,4.0854,4.0797,4.0797,4.0797,4.0874,4.0986,4.0986,4.1054,4.115,4.115,4.115,4.115,4.115,4.1171,4.1171,4.1191,4.1191,4.1191,4.1191,4.1191,4.1191,4.1191,4.1191,4.1191,4.1191,4.1191,4.1191,4.1191,4.1191,4.1191,4.1191,4.1191,4.1191,4.1191,4.1191,4.1191,4.1191,4.1191,4.1191,4.1191,4.1083,4.1023,4.1023,4.1613,4.1995,4.1995,4.2809,4.3288,4.3272,4.3369,4.3424,4.3391,4.3278,4.3601,4.437,4.4256,4.3917,4.3426,4.4067,4.437,0.0,0.0,0.0,0.0,0.0,0.0,3.5952,0.0,3.5976,0.0,0.0,0.0,0.0,0.0,0.0,0.0,3.5884,0.0,0.0,0.0,3.5911,0.0,0.0,0.0,3.8606,3.9553,4.0233,4.0646,4.0732,4.0723,4.0685,4.0636,4.0616,4.0616,4.0616,4.0616,4.0616,4.0659,4.0692,4.0762,4.0762,4.077,4.0801,4.0877,4.0917,4.092,4.0994,4.1026,4.1048,4.1082,4.1126,4.1105,4.1054,4.1026,4.1026,4.1026,4.1076,4.1126,4.1126,4.115,4.1191,4.1191,4.1191,4.1191,4.1191,4.1191,4.1191,4.1191,4.1191,4.1191,4.1191,4.1191,4.1191,4.1191,4.1191,4.1191,4.1191,4.1149,4.1081,4.1081,4.1023,4.0962,4.0962,4.1102,4.1171,4.1102,4.1081,4.1054,4.0986,4.0962,4.0962,4.0962,4.1362,4.1633,4.1633,4.2389,4.2847,4.2847,4.3597,4.4273,4.4763,4.4731,4.4671,4.4671,4.4619,4.4774,4.514,4.5079,4.4927,4.4671,4.4986,4.514,3.7206,0.0,0.0,0.0,0.0,0.0,0.0,0.0,0.0,0.0,0.0,0.0,0.0,0.0,0.0,0.0,0.0,3.5946,0.0,3.5951,0.0,0.0,0.0,0.0,0.0,3.8951,3.987,4.0428,4.0707,4.0847,4.0801,4.0757,4.0721,4.0721,4.0721,4.0721,4.0721,4.0779,4.0813,4.0857,4.0857,4.087,4.0914,4.1019,4.1054,4.1055,4.1151,4.1191,4.1191,4.1191,4.1191,4.1191,4.1191,4.1191,4.1191,4.1191,4.1191,4.1191,4.1191,4.1191,4.1191,4.1191,4.1191,4.1191,4.1191,4.1191,4.1191,4.1191,4.1191,4.1191,4.115,4.1149,4.1148,4.1103,4.1082,4.1082,4.1082,4.1002,4.0952,4.0952,4.0867,4.0797,4.0797,4.0959,4.1054,4.0959,4.0952,4.0914,4.0809,4.0797,4.0894,4.1128,4.1721,4.2165,4.2374,4.3174,4.3754,4.3982,4.4518,4.5095,4.5728,4.564,4.5594,4.5594,4.5594,4.5594,4.5594,4.5594,4.5594,4.5594,4.5594,4.5594,0.0,0.0,0.0,3.5996,0.0,0.0,0.0,0.0,3.5996,0.0,0.0,0.0,0.0,0.0,0.0,0.0,0.0,0.0,0.0,0.0,0.0,0.0,0.0,0.0,0.0,3.8653,3.9677,3.9649,4.0488,4.0947,4.0805,4.0793,4.0793,4.0793,4.0793,4.0793,4.0793,4.0797,4.0867,4.0992,4.0992,4.1055,4.1191,4.1191,4.1191,4.1191,4.1191,4.1191,4.1191,4.1191,4.1191,4.1191,4.1191,4.1191,4.1191,4.1191,4.1191,4.1191,4.1191,4.1191,4.1191,4.1191,4.1191,4.1191,4.1191,4.1191,4.1191,4.1191,4.1191,4.1171,4.1049,4.1017,4.0964,4.0831,4.0809,4.0809,4.0809,4.0805,4.0805,4.0805,4.0801,4.0797,4.0797,4.0805,4.0809,4.0805,4.0805,4.0801,4.0797,4.0797,4.1128,4.198,4.2027,4.233,4.3098,4.3829,4.463,4.5477,4.5545,4.5584,4.5603,4.5594,4.5594,4.5594,4.5594,4.5594,4.5594,4.5594,4.5594,4.5594,4.5594,4.5594,0.0,0.0,3.5996,3.5996,0.0,0.0,0.0,0.0,0.0,0.0,0.0,0.0,0.0,0.0,0.0,0.0,0.0,0.0,0.0,0.0,0.0,0.0,0.0,0.0,0.0,0.0,3.9192,3.9768,4.0636,4.1105,4.1076,4.0988,4.0925,4.0925,4.0925,4.0925,4.0925,4.1023,4.1081,4.1128,4.1128,4.115,4.1191,4.1191,4.1191,4.1191,4.1191,4.1191,4.1191,4.1191,4.1191,4.1191,4.1191,4.1191,4.1191,4.1191,4.1191,4.1191,4.1191,4.1191,4.1191,4.1191,4.1149,4.1076,4.1076,4.1017,4.0947,4.0947,4.0947,4.0922,4.0874,4.0867,4.086,4.0809,4.0797,4.0797,4.0797,4.0776,4.0736,4.0736,4.0659,4.0604,4.0604,4.0604,4.0623,4.0721,4.0736,4.0912,4.1403,4.1467,4.1795,4.2665,4.3226,4.3632,4.3902,4.4686,4.5287,4.5575,4.5594,4.5594,4.5594,4.5594,4.5594,4.5594,4.5594,4.5594,4.5594,4.5594,4.5594,4.5594,4.5594,4.5594,3.6855,3.623,0.0,3.5996,3.5996,0.0,3.5996,0.0,3.5996,0.0,0.0,0.0,0.0,0.0,0.0,0.0,0.0,0.0,0.0,3.5952,0.0,0.0,0.0,0.0,0.0,3.791,3.8828,3.9394,4.0527,4.1191,4.1191,4.1126,4.1077,4.1077,4.1077,4.1077,4.1077,4.115,4.1191,4.1191,4.1191,4.1191,4.1191,4.1191,4.1191,4.1191,4.1191,4.1191,4.1191,4.1191,4.1191,4.1191,4.1149,4.1128,4.1129,4.1171,4.1171,4.1128,4.1128,4.1102,4.1054,4.1054,4.0996,4.0922,4.0922,4.0867,4.0797,4.0797,4.0797,4.0789,4.0766,4.0757,4.0747,4.0703,4.0687,4.0687,4.0687,4.0653,4.063,4.063,4.0559,4.0496,4.0496,4.0766,4.0881,4.0655,4.0881,4.1258,4.1736,4.2058,4.2585,4.3431,4.3989,4.4432,4.4739,4.5287,4.5594,4.5594,4.5594,4.5594,4.5594,4.5594,4.546,4.5152,4.5441,4.546,4.5152,4.546,4.5594,4.5594,4.5485,4.5419]}]]